Wetterdaten: Mittwoch, 18.02.2026
Datum Zeit Temp. I. Temp. A. Feuchte I. Feuchte A. Luftdruck Regen Wind Richtung Richtung Sonnenschein Solar Taupunkt Windchill Windböen
18.02.2026 00:00 21,6 °C 2,3 °C 49 % 89 % 1009,0 hPa 0,0 l/m² 7,1 km/h (2 Bft) W 266 ° 0 min 0 W/m² 0,7 °C 1,6 °C 11,3 km/h (2 Bft)
18.02.2026 00:01 21,6 °C 2,3 °C 48 % 89 % 1009,0 hPa 0,0 l/m² 2,3 km/h (1 Bft) W 266 ° 0 min 0 W/m² 0,7 °C 2,3 °C 4,8 km/h (1 Bft)
18.02.2026 00:02 21,6 °C 2,3 °C 48 % 89 % 1009,0 hPa 0,0 l/m² 2,2 km/h (1 Bft) W 266 ° 0 min 0 W/m² 0,7 °C 2,3 °C 3,2 km/h (1 Bft)
18.02.2026 00:04 21,6 °C 2,3 °C 49 % 89 % 1009,0 hPa 0,0 l/m² 1,0 km/h (0 Bft) W 266 ° 0 min 0 W/m² 0,7 °C 2,3 °C 3,2 km/h (1 Bft)
18.02.2026 00:05 21,6 °C 2,3 °C 48 % 89 % 1009,1 hPa 0,0 l/m² 0,0 km/h (0 Bft) W 266 ° 0 min 0 W/m² 0,7 °C 2,3 °C 0,0 km/h (0 Bft)
18.02.2026 00:07 21,6 °C 2,3 °C 49 % 89 % 1009,0 hPa 0,0 l/m² 0,0 km/h (0 Bft) W 266 ° 0 min 0 W/m² 0,7 °C 2,3 °C 0,0 km/h (0 Bft)
18.02.2026 00:09 21,6 °C 2,2 °C 48 % 89 % 1009,1 hPa 0,0 l/m² 0,0 km/h (0 Bft) W 266 ° 0 min 0 W/m² 0,6 °C 2,2 °C 0,0 km/h (0 Bft)
18.02.2026 00:10 21,6 °C 2,2 °C 48 % 89 % 1009,1 hPa 0,0 l/m² 0,0 km/h (0 Bft) W 266 ° 0 min 0 W/m² 0,6 °C 2,2 °C 0,0 km/h (0 Bft)
18.02.2026 00:12 21,6 °C 2,2 °C 49 % 89 % 1009,1 hPa 0,0 l/m² 0,1 km/h (0 Bft) W 266 ° 0 min 0 W/m² 0,6 °C 2,2 °C 1,6 km/h (1 Bft)
18.02.2026 00:13 21,6 °C 2,2 °C 49 % 89 % 1009,1 hPa 0,0 l/m² 0,3 km/h (0 Bft) W 266 ° 0 min 0 W/m² 0,6 °C 2,2 °C 1,6 km/h (1 Bft)
18.02.2026 00:15 21,6 °C 2,2 °C 48 % 89 % 1009,1 hPa 0,0 l/m² 0,1 km/h (0 Bft) W 266 ° 0 min 0 W/m² 0,6 °C 2,2 °C 1,6 km/h (1 Bft)
18.02.2026 00:17 21,6 °C 2,2 °C 49 % 89 % 1009,1 hPa 0,0 l/m² 0,4 km/h (0 Bft) W 266 ° 0 min 0 W/m² 0,6 °C 2,2 °C 3,2 km/h (1 Bft)
18.02.2026 00:19 21,7 °C 2,2 °C 49 % 89 % 1009,1 hPa 0,0 l/m² 0,2 km/h (0 Bft) W 266 ° 0 min 0 W/m² 0,6 °C 2,2 °C 1,6 km/h (1 Bft)
18.02.2026 00:21 21,7 °C 2,1 °C 49 % 89 % 1009,1 hPa 0,0 l/m² 0,1 km/h (0 Bft) W 266 ° 0 min 0 W/m² 0,5 °C 2,1 °C 1,6 km/h (1 Bft)
18.02.2026 00:22 21,7 °C 2,1 °C 49 % 89 % 1009,1 hPa 0,0 l/m² 0,0 km/h (0 Bft) W 266 ° 0 min 0 W/m² 0,5 °C 2,1 °C 0,0 km/h (0 Bft)
18.02.2026 00:23 21,6 °C 2,1 °C 48 % 89 % 1009,2 hPa 0,0 l/m² 0,0 km/h (0 Bft) W 266 ° 0 min 0 W/m² 0,5 °C 2,1 °C 0,0 km/h (0 Bft)
18.02.2026 00:25 21,7 °C 2,1 °C 49 % 89 % 1009,2 hPa 0,0 l/m² 0,0 km/h (0 Bft) W 266 ° 0 min 0 W/m² 0,5 °C 2,1 °C 0,0 km/h (0 Bft)
18.02.2026 00:27 21,7 °C 2,1 °C 48 % 90 % 1009,3 hPa 0,0 l/m² 0,0 km/h (0 Bft) W 266 ° 0 min 0 W/m² 0,6 °C 2,1 °C 0,0 km/h (0 Bft)
18.02.2026 00:29 21,7 °C 2,1 °C 48 % 90 % 1009,3 hPa 0,0 l/m² 0,0 km/h (0 Bft) W 266 ° 0 min 0 W/m² 0,6 °C 2,1 °C 0,0 km/h (0 Bft)
18.02.2026 00:31 21,7 °C 2,1 °C 48 % 90 % 1009,3 hPa 0,0 l/m² 0,0 km/h (0 Bft) W 266 ° 0 min 0 W/m² 0,6 °C 2,1 °C 0,0 km/h (0 Bft)
18.02.2026 00:32 21,7 °C 2,1 °C 48 % 89 % 1009,3 hPa 0,0 l/m² 0,0 km/h (0 Bft) W 266 ° 0 min 0 W/m² 0,5 °C 2,1 °C 0,0 km/h (0 Bft)
18.02.2026 00:33 21,7 °C 2,0 °C 48 % 90 % 1009,3 hPa 0,0 l/m² 0,0 km/h (0 Bft) W 266 ° 0 min 0 W/m² 0,5 °C 2,0 °C 0,0 km/h (0 Bft)
18.02.2026 00:35 21,7 °C 2,0 °C 48 % 89 % 1009,4 hPa 0,0 l/m² 0,0 km/h (0 Bft) W 266 ° 0 min 0 W/m² 0,4 °C 2,0 °C 0,0 km/h (0 Bft)
18.02.2026 00:37 21,7 °C 2,0 °C 48 % 89 % 1009,4 hPa 0,0 l/m² 0,0 km/h (0 Bft) W 266 ° 0 min 0 W/m² 0,4 °C 2,0 °C 0,0 km/h (0 Bft)
18.02.2026 00:39 21,7 °C 2,0 °C 48 % 90 % 1009,4 hPa 0,0 l/m² 0,0 km/h (0 Bft) W 266 ° 0 min 0 W/m² 0,5 °C 2,0 °C 0,0 km/h (0 Bft)
18.02.2026 00:41 21,7 °C 1,9 °C 48 % 90 % 1009,5 hPa 0,0 l/m² 0,0 km/h (0 Bft) W 266 ° 0 min 0 W/m² 0,4 °C 1,9 °C 0,0 km/h (0 Bft)
18.02.2026 00:42 21,7 °C 1,9 °C 48 % 90 % 1009,5 hPa 0,0 l/m² 0,0 km/h (0 Bft) W 266 ° 0 min 0 W/m² 0,4 °C 1,9 °C 0,0 km/h (0 Bft)
18.02.2026 00:43 21,7 °C 1,9 °C 48 % 90 % 1009,4 hPa 0,0 l/m² 0,0 km/h (0 Bft) W 266 ° 0 min 0 W/m² 0,4 °C 1,9 °C 0,0 km/h (0 Bft)
18.02.2026 00:46 21,7 °C 1,9 °C 48 % 90 % 1009,4 hPa 0,0 l/m² 0,0 km/h (0 Bft) W 266 ° 0 min 0 W/m² 0,4 °C 1,9 °C 0,0 km/h (0 Bft)
18.02.2026 00:48 21,7 °C 1,9 °C 48 % 90 % 1009,5 hPa 0,0 l/m² 0,3 km/h (0 Bft) W 266 ° 0 min 0 W/m² 0,4 °C 1,9 °C 3,2 km/h (1 Bft)
18.02.2026 00:50 21,7 °C 1,9 °C 48 % 90 % 1009,6 hPa 0,0 l/m² 1,1 km/h (1 Bft) N-NW 337 ° 0 min 0 W/m² 0,4 °C 1,9 °C 3,2 km/h (1 Bft)
18.02.2026 00:52 21,7 °C 1,9 °C 48 % 90 % 1009,5 hPa 0,0 l/m² 8,3 km/h (2 Bft) N-NW 331 ° 0 min 0 W/m² 0,4 °C 0,1 °C 14,5 km/h (3 Bft)
18.02.2026 00:53 21,7 °C 1,9 °C 48 % 90 % 1009,5 hPa 0,0 l/m² 10,4 km/h (2 Bft) NW 304 ° 0 min 0 W/m² 0,4 °C -1,7 °C 14,5 km/h (3 Bft)
18.02.2026 00:54 21,7 °C 1,8 °C 48 % 90 % 1009,6 hPa 0,0 l/m² 6,7 km/h (2 Bft) N-NW 330 ° 0 min 0 W/m² 0,3 °C 1,5 °C 9,7 km/h (2 Bft)
18.02.2026 00:56 21,7 °C 1,8 °C 48 % 90 % 1009,6 hPa 0,0 l/m² 7,9 km/h (2 Bft) W-NW 297 ° 0 min 0 W/m² 0,3 °C 0,3 °C 16,1 km/h (3 Bft)
18.02.2026 00:58 21,7 °C 1,8 °C 48 % 90 % 1009,7 hPa 0,0 l/m² 11,1 km/h (2 Bft) W 267 ° 0 min 0 W/m² 0,3 °C -2,3 °C 20,9 km/h (4 Bft)
18.02.2026 01:00 21,7 °C 1,8 °C 48 % 90 % 1009,8 hPa 0,0 l/m² 5,4 km/h (2 Bft) W 277 ° 0 min 0 W/m² 0,3 °C 1,8 °C 12,9 km/h (3 Bft)
18.02.2026 01:02 21,7 °C 1,9 °C 48 % 90 % 1009,7 hPa 0,0 l/m² 10,3 km/h (2 Bft) W-SW 240 ° 0 min 0 W/m² 0,4 °C -1,6 °C 14,5 km/h (3 Bft)
18.02.2026 01:03 21,7 °C 1,9 °C 48 % 90 % 1009,7 hPa 0,0 l/m² 4,4 km/h (1 Bft) W-SW 246 ° 0 min 0 W/m² 0,4 °C 1,9 °C 9,7 km/h (2 Bft)
18.02.2026 01:04 21,7 °C 1,9 °C 48 % 90 % 1009,8 hPa 0,0 l/m² 9,2 km/h (2 Bft) W-SW 242 ° 0 min 0 W/m² 0,4 °C -0,7 °C 12,9 km/h (3 Bft)
18.02.2026 01:06 21,7 °C 1,9 °C 48 % 90 % 1009,8 hPa 0,0 l/m² 9,9 km/h (2 Bft) W 268 ° 0 min 0 W/m² 0,4 °C -1,3 °C 16,1 km/h (3 Bft)
18.02.2026 01:08 21,7 °C 1,9 °C 48 % 90 % 1009,8 hPa 0,0 l/m² 14,7 km/h (3 Bft) W-SW 249 ° 0 min 0 W/m² 0,4 °C -4,5 °C 19,3 km/h (3 Bft)
18.02.2026 01:10 21,7 °C 1,9 °C 48 % 90 % 1009,8 hPa 0,0 l/m² 12,5 km/h (2 Bft) W-SW 247 ° 0 min 0 W/m² 0,4 °C -3,1 °C 16,1 km/h (3 Bft)
18.02.2026 01:12 21,7 °C 1,9 °C 48 % 90 % 1009,9 hPa 0,0 l/m² 16,6 km/h (3 Bft) W-SW 254 ° 0 min 0 W/m² 0,4 °C -5,6 °C 22,5 km/h (4 Bft)
18.02.2026 01:13 21,7 °C 1,9 °C 48 % 90 % 1009,9 hPa 0,0 l/m² 13,7 km/h (3 Bft) W-SW 257 ° 0 min 0 W/m² 0,4 °C -3,9 °C 17,7 km/h (3 Bft)
18.02.2026 01:14 21,7 °C 1,9 °C 48 % 90 % 1010,0 hPa 0,0 l/m² 8,9 km/h (2 Bft) W-SW 241 ° 0 min 0 W/m² 0,4 °C -0,5 °C 14,5 km/h (3 Bft)
18.02.2026 01:16 21,7 °C 2,0 °C 48 % 90 % 1009,9 hPa 0,0 l/m² 13,2 km/h (3 Bft) W-SW 249 ° 0 min 0 W/m² 0,5 °C -3,5 °C 19,3 km/h (3 Bft)
18.02.2026 01:18 21,7 °C 2,0 °C 48 % 90 % 1009,9 hPa 0,0 l/m² 9,3 km/h (2 Bft) W-SW 253 ° 0 min 0 W/m² 0,5 °C -0,7 °C 14,5 km/h (3 Bft)
18.02.2026 01:20 21,7 °C 2,0 °C 48 % 90 % 1010,0 hPa 0,0 l/m² 11,2 km/h (2 Bft) W-SW 256 ° 0 min 0 W/m² 0,5 °C -2,1 °C 16,1 km/h (3 Bft)
18.02.2026 01:22 21,7 °C 2,0 °C 48 % 90 % 1009,9 hPa 0,0 l/m² 8,7 km/h (2 Bft) W-SW 242 ° 0 min 0 W/m² 0,5 °C -0,2 °C 12,9 km/h (3 Bft)
18.02.2026 01:23 21,7 °C 2,0 °C 48 % 90 % 1009,9 hPa 0,0 l/m² 9,9 km/h (2 Bft) W-SW 240 ° 0 min 0 W/m² 0,5 °C -1,2 °C 11,3 km/h (2 Bft)
18.02.2026 01:24 21,7 °C 2,1 °C 48 % 90 % 1010,0 hPa 0,0 l/m² 9,5 km/h (2 Bft) W-SW 240 ° 0 min 0 W/m² 0,6 °C -0,7 °C 12,9 km/h (3 Bft)
18.02.2026 01:26 21,7 °C 2,0 °C 48 % 90 % 1009,9 hPa 0,0 l/m² 9,2 km/h (2 Bft) SW 230 ° 0 min 0 W/m² 0,5 °C -0,6 °C 14,5 km/h (3 Bft)
18.02.2026 01:28 21,7 °C 2,0 °C 48 % 90 % 1009,9 hPa 0,0 l/m² 5,9 km/h (2 Bft) SW 227 ° 0 min 0 W/m² 0,5 °C 2,0 °C 12,9 km/h (3 Bft)
18.02.2026 01:30 21,7 °C 2,0 °C 48 % 90 % 1009,9 hPa 0,0 l/m² 5,2 km/h (1 Bft) SW 233 ° 0 min 0 W/m² 0,5 °C 2,0 °C 11,3 km/h (2 Bft)
18.02.2026 01:32 21,7 °C 2,0 °C 48 % 90 % 1009,9 hPa 0,0 l/m² 10,6 km/h (2 Bft) W-SW 242 ° 0 min 0 W/m² 0,5 °C -1,7 °C 17,7 km/h (3 Bft)
18.02.2026 01:33 21,7 °C 2,0 °C 48 % 90 % 1009,9 hPa 0,0 l/m² 10,7 km/h (2 Bft) W 262 ° 0 min 0 W/m² 0,5 °C -1,8 °C 17,7 km/h (3 Bft)
18.02.2026 01:34 21,7 °C 1,9 °C 48 % 90 % 1010,0 hPa 0,0 l/m² 15,5 km/h (3 Bft) W-SW 257 ° 0 min 0 W/m² 0,4 °C -5,0 °C 17,7 km/h (3 Bft)
18.02.2026 01:36 21,7 °C 2,0 °C 48 % 90 % 1010,0 hPa 0,0 l/m² 12,1 km/h (2 Bft) W-SW 240 ° 0 min 0 W/m² 0,5 °C -2,8 °C 17,7 km/h (3 Bft)
18.02.2026 01:38 21,7 °C 1,9 °C 48 % 90 % 1010,0 hPa 0,0 l/m² 11,0 km/h (2 Bft) W-SW 249 ° 0 min 0 W/m² 0,4 °C -2,1 °C 16,1 km/h (3 Bft)
18.02.2026 01:40 21,7 °C 1,9 °C 48 % 90 % 1010,0 hPa 0,0 l/m² 9,2 km/h (2 Bft) W-SW 254 ° 0 min 0 W/m² 0,4 °C -0,7 °C 14,5 km/h (3 Bft)
18.02.2026 01:42 21,7 °C 1,9 °C 48 % 90 % 1010,0 hPa 0,0 l/m² 9,2 km/h (2 Bft) W-SW 250 ° 0 min 0 W/m² 0,4 °C -0,7 °C 12,9 km/h (3 Bft)
18.02.2026 01:43 21,7 °C 1,9 °C 48 % 90 % 1010,0 hPa 0,0 l/m² 6,7 km/h (2 Bft) W-SW 251 ° 0 min 0 W/m² 0,4 °C 1,6 °C 9,7 km/h (2 Bft)
18.02.2026 01:44 21,7 °C 1,9 °C 48 % 90 % 1010,0 hPa 0,0 l/m² 8,4 km/h (2 Bft) W-SW 253 ° 0 min 0 W/m² 0,4 °C -0,0 °C 11,3 km/h (2 Bft)
18.02.2026 01:46 21,7 °C 1,9 °C 48 % 90 % 1010,0 hPa 0,0 l/m² 7,2 km/h (2 Bft) W-SW 257 ° 0 min 0 W/m² 0,4 °C 1,1 °C 11,3 km/h (2 Bft)
18.02.2026 01:48 21,7 °C 1,9 °C 48 % 90 % 1010,1 hPa 0,0 l/m² 6,3 km/h (2 Bft) W-SW 251 ° 0 min 0 W/m² 0,4 °C 1,9 °C 11,3 km/h (2 Bft)
18.02.2026 01:50 21,7 °C 1,9 °C 48 % 90 % 1010,1 hPa 0,0 l/m² 4,8 km/h (1 Bft) W-SW 255 ° 0 min 0 W/m² 0,4 °C 1,9 °C 6,4 km/h (2 Bft)
18.02.2026 01:52 21,7 °C 1,9 °C 48 % 90 % 1010,1 hPa 0,0 l/m² 4,9 km/h (1 Bft) W-SW 246 ° 0 min 0 W/m² 0,4 °C 1,9 °C 8,0 km/h (2 Bft)
18.02.2026 01:53 21,7 °C 1,9 °C 48 % 90 % 1010,1 hPa 0,0 l/m² 4,2 km/h (1 Bft) W-SW 253 ° 0 min 0 W/m² 0,4 °C 1,9 °C 6,4 km/h (2 Bft)
18.02.2026 01:54 21,6 °C 1,9 °C 48 % 90 % 1010,1 hPa 0,0 l/m² 3,8 km/h (1 Bft) W-SW 244 ° 0 min 0 W/m² 0,4 °C 1,9 °C 4,8 km/h (1 Bft)
18.02.2026 01:56 21,7 °C 1,8 °C 48 % 90 % 1010,1 hPa 0,0 l/m² 5,2 km/h (1 Bft) W-SW 246 ° 0 min 0 W/m² 0,3 °C 1,8 °C 8,0 km/h (2 Bft)
18.02.2026 01:58 21,6 °C 1,8 °C 48 % 90 % 1010,2 hPa 0,0 l/m² 6,3 km/h (2 Bft) W-SW 249 ° 0 min 0 W/m² 0,3 °C 1,8 °C 11,3 km/h (2 Bft)
18.02.2026 02:00 21,6 °C 1,8 °C 48 % 90 % 1010,2 hPa 0,0 l/m² 7,4 km/h (2 Bft) W-SW 244 ° 0 min 0 W/m² 0,3 °C 0,8 °C 11,3 km/h (2 Bft)
18.02.2026 02:02 21,6 °C 1,8 °C 48 % 90 % 1010,2 hPa 0,0 l/m² 5,4 km/h (2 Bft) W-SW 240 ° 0 min 0 W/m² 0,3 °C 1,8 °C 8,0 km/h (2 Bft)
18.02.2026 02:03 21,6 °C 1,8 °C 48 % 90 % 1010,2 hPa 0,0 l/m² 5,7 km/h (2 Bft) W-SW 242 ° 0 min 0 W/m² 0,3 °C 1,8 °C 6,4 km/h (2 Bft)
18.02.2026 02:05 21,6 °C 1,8 °C 48 % 90 % 1010,3 hPa 0,0 l/m² 4,3 km/h (1 Bft) SW 236 ° 0 min 0 W/m² 0,3 °C 1,8 °C 8,0 km/h (2 Bft)
18.02.2026 02:06 21,6 °C 1,8 °C 48 % 90 % 1010,2 hPa 0,0 l/m² 4,0 km/h (1 Bft) W-SW 239 ° 0 min 0 W/m² 0,3 °C 1,8 °C 4,8 km/h (1 Bft)
18.02.2026 02:08 21,6 °C 1,8 °C 48 % 90 % 1010,2 hPa 0,0 l/m² 3,1 km/h (1 Bft) W-SW 239 ° 0 min 0 W/m² 0,3 °C 1,8 °C 6,4 km/h (2 Bft)
18.02.2026 02:09 21,6 °C 1,8 °C 48 % 90 % 1010,2 hPa 0,0 l/m² 2,0 km/h (1 Bft) W-SW 239 ° 0 min 0 W/m² 0,3 °C 1,8 °C 3,2 km/h (1 Bft)
18.02.2026 02:11 21,6 °C 1,8 °C 48 % 90 % 1010,2 hPa 0,0 l/m² 0,3 km/h (0 Bft) W-SW 239 ° 0 min 0 W/m² 0,3 °C 1,8 °C 1,6 km/h (1 Bft)
18.02.2026 02:12 21,6 °C 1,7 °C 48 % 90 % 1010,2 hPa 0,0 l/m² 1,7 km/h (1 Bft) W-SW 239 ° 0 min 0 W/m² 0,2 °C 1,7 °C 3,2 km/h (1 Bft)
18.02.2026 02:13 21,6 °C 1,7 °C 48 % 90 % 1010,2 hPa 0,0 l/m² 0,3 km/h (0 Bft) W-SW 239 ° 0 min 0 W/m² 0,2 °C 1,7 °C 1,6 km/h (1 Bft)
18.02.2026 02:15 21,6 °C 1,8 °C 48 % 90 % 1010,2 hPa 0,0 l/m² 1,1 km/h (1 Bft) W-SW 239 ° 0 min 0 W/m² 0,3 °C 1,8 °C 3,2 km/h (1 Bft)
18.02.2026 02:17 21,6 °C 1,8 °C 48 % 90 % 1010,1 hPa 0,0 l/m² 1,2 km/h (1 Bft) W-SW 239 ° 0 min 0 W/m² 0,3 °C 1,8 °C 3,2 km/h (1 Bft)
18.02.2026 02:19 21,6 °C 1,7 °C 48 % 90 % 1010,2 hPa 0,0 l/m² 1,6 km/h (1 Bft) W-SW 241 ° 0 min 0 W/m² 0,2 °C 1,7 °C 4,8 km/h (1 Bft)
18.02.2026 02:21 21,6 °C 1,8 °C 48 % 90 % 1010,2 hPa 0,0 l/m² 3,6 km/h (1 Bft) W-SW 247 ° 0 min 0 W/m² 0,3 °C 1,8 °C 4,8 km/h (1 Bft)
18.02.2026 02:22 21,6 °C 1,7 °C 48 % 90 % 1010,2 hPa 0,0 l/m² 2,9 km/h (1 Bft) W-SW 247 ° 0 min 0 W/m² 0,2 °C 1,7 °C 4,8 km/h (1 Bft)
18.02.2026 02:23 21,6 °C 1,8 °C 48 % 90 % 1010,2 hPa 0,0 l/m² 4,5 km/h (1 Bft) W-SW 245 ° 0 min 0 W/m² 0,3 °C 1,8 °C 6,4 km/h (2 Bft)
18.02.2026 02:25 21,6 °C 1,8 °C 48 % 90 % 1010,1 hPa 0,0 l/m² 3,8 km/h (1 Bft) SW 229 ° 0 min 0 W/m² 0,3 °C 1,8 °C 6,4 km/h (2 Bft)
18.02.2026 02:27 21,6 °C 1,7 °C 48 % 90 % 1010,1 hPa 0,0 l/m² 3,9 km/h (1 Bft) SW 227 ° 0 min 0 W/m² 0,2 °C 1,7 °C 6,4 km/h (2 Bft)
18.02.2026 02:29 21,6 °C 1,7 °C 48 % 90 % 1010,0 hPa 0,0 l/m² 9,1 km/h (2 Bft) W-SW 244 ° 0 min 0 W/m² 0,2 °C -0,8 °C 14,5 km/h (3 Bft)
18.02.2026 02:31 21,6 °C 1,7 °C 48 % 90 % 1010,0 hPa 0,0 l/m² 11,9 km/h (2 Bft) W 259 ° 0 min 0 W/m² 0,2 °C -3,0 °C 16,1 km/h (3 Bft)
18.02.2026 02:32 21,6 °C 1,7 °C 48 % 90 % 1010,0 hPa 0,0 l/m² 12,7 km/h (3 Bft) W-SW 258 ° 0 min 0 W/m² 0,2 °C -3,5 °C 14,5 km/h (3 Bft)
18.02.2026 02:33 21,6 °C 1,7 °C 48 % 90 % 1010,1 hPa 0,0 l/m² 12,1 km/h (2 Bft) W 259 ° 0 min 0 W/m² 0,2 °C -3,1 °C 16,1 km/h (3 Bft)
18.02.2026 02:35 21,6 °C 1,8 °C 48 % 90 % 1010,0 hPa 0,0 l/m² 11,5 km/h (2 Bft) W 259 ° 0 min 0 W/m² 0,3 °C -2,6 °C 16,1 km/h (3 Bft)
18.02.2026 02:37 21,6 °C 1,8 °C 48 % 90 % 1010,1 hPa 0,0 l/m² 11,2 km/h (2 Bft) W-SW 249 ° 0 min 0 W/m² 0,3 °C -2,4 °C 14,5 km/h (3 Bft)
18.02.2026 02:39 21,6 °C 1,8 °C 48 % 90 % 1010,1 hPa 0,0 l/m² 12,1 km/h (2 Bft) W-SW 245 ° 0 min 0 W/m² 0,3 °C -3,0 °C 17,7 km/h (3 Bft)
18.02.2026 02:41 21,6 °C 1,8 °C 48 % 90 % 1010,1 hPa 0,0 l/m² 10,6 km/h (2 Bft) SW 236 ° 0 min 0 W/m² 0,3 °C -1,9 °C 16,1 km/h (3 Bft)
18.02.2026 02:42 21,6 °C 1,8 °C 48 % 90 % 1010,1 hPa 0,0 l/m² 9,9 km/h (2 Bft) W-SW 256 ° 0 min 0 W/m² 0,3 °C -1,4 °C 12,9 km/h (3 Bft)
18.02.2026 02:43 21,6 °C 1,8 °C 48 % 90 % 1010,1 hPa 0,0 l/m² 11,4 km/h (2 Bft) W-SW 241 ° 0 min 0 W/m² 0,3 °C -2,5 °C 14,5 km/h (3 Bft)
18.02.2026 02:45 21,6 °C 1,8 °C 48 % 90 % 1010,1 hPa 0,0 l/m² 10,8 km/h (2 Bft) W-SW 246 ° 0 min 0 W/m² 0,3 °C -2,1 °C 14,5 km/h (3 Bft)
18.02.2026 02:47 21,6 °C 1,8 °C 48 % 90 % 1010,1 hPa 0,0 l/m² 9,0 km/h (2 Bft) W-SW 257 ° 0 min 0 W/m² 0,3 °C -0,6 °C 12,9 km/h (3 Bft)
18.02.2026 02:49 21,6 °C 1,8 °C 48 % 90 % 1010,1 hPa 0,0 l/m² 8,5 km/h (2 Bft) W-SW 246 ° 0 min 0 W/m² 0,3 °C -0,2 °C 14,5 km/h (3 Bft)
18.02.2026 02:51 21,6 °C 1,8 °C 48 % 90 % 1010,2 hPa 0,0 l/m² 8,1 km/h (2 Bft) W-SW 244 ° 0 min 0 W/m² 0,3 °C 0,2 °C 11,3 km/h (2 Bft)
18.02.2026 02:52 21,6 °C 1,8 °C 48 % 90 % 1010,2 hPa 0,0 l/m² 6,6 km/h (2 Bft) W-SW 248 ° 0 min 0 W/m² 0,3 °C 1,6 °C 8,0 km/h (2 Bft)
18.02.2026 02:53 21,6 °C 1,8 °C 48 % 90 % 1010,2 hPa 0,0 l/m² 6,8 km/h (2 Bft) W 261 ° 0 min 0 W/m² 0,3 °C 1,4 °C 11,3 km/h (2 Bft)
18.02.2026 02:55 21,6 °C 1,8 °C 48 % 90 % 1010,1 hPa 0,0 l/m² 5,7 km/h (2 Bft) W 262 ° 0 min 0 W/m² 0,3 °C 1,8 °C 9,7 km/h (2 Bft)
18.02.2026 02:57 21,6 °C 1,8 °C 48 % 90 % 1010,2 hPa 0,0 l/m² 5,2 km/h (1 Bft) W 268 ° 0 min 0 W/m² 0,3 °C 1,8 °C 9,7 km/h (2 Bft)
18.02.2026 02:59 21,6 °C 1,8 °C 48 % 90 % 1010,3 hPa 0,0 l/m² 1,2 km/h (1 Bft) W 269 ° 0 min 0 W/m² 0,3 °C 1,8 °C 4,8 km/h (1 Bft)
18.02.2026 03:01 21,6 °C 1,8 °C 48 % 90 % 1010,2 hPa 0,0 l/m² 0,0 km/h (0 Bft) W 269 ° 0 min 0 W/m² 0,3 °C 1,8 °C 0,0 km/h (0 Bft)
18.02.2026 03:02 21,6 °C 1,8 °C 48 % 90 % 1010,2 hPa 0,0 l/m² 0,0 km/h (0 Bft) W 269 ° 0 min 0 W/m² 0,3 °C 1,8 °C 0,0 km/h (0 Bft)
18.02.2026 03:03 21,6 °C 1,8 °C 48 % 90 % 1010,2 hPa 0,0 l/m² 0,0 km/h (0 Bft) W 269 ° 0 min 0 W/m² 0,3 °C 1,8 °C 0,0 km/h (0 Bft)
18.02.2026 03:05 21,6 °C 1,8 °C 48 % 90 % 1010,2 hPa 0,0 l/m² 0,0 km/h (0 Bft) W 269 ° 0 min 0 W/m² 0,3 °C 1,8 °C 0,0 km/h (0 Bft)
18.02.2026 03:07 21,6 °C 1,8 °C 48 % 90 % 1010,2 hPa 0,0 l/m² 0,0 km/h (0 Bft) W 269 ° 0 min 0 W/m² 0,3 °C 1,8 °C 0,0 km/h (0 Bft)
18.02.2026 03:09 21,6 °C 1,8 °C 48 % 90 % 1010,2 hPa 0,0 l/m² 0,0 km/h (0 Bft) W 269 ° 0 min 0 W/m² 0,3 °C 1,8 °C 0,0 km/h (0 Bft)
18.02.2026 03:11 21,6 °C 1,8 °C 48 % 90 % 1010,2 hPa 0,0 l/m² 0,0 km/h (0 Bft) W 269 ° 0 min 0 W/m² 0,3 °C 1,8 °C 0,0 km/h (0 Bft)
18.02.2026 03:12 21,6 °C 1,7 °C 48 % 90 % 1010,2 hPa 0,0 l/m² 0,0 km/h (0 Bft) W 269 ° 0 min 0 W/m² 0,2 °C 1,7 °C 0,0 km/h (0 Bft)
18.02.2026 03:13 21,6 °C 1,7 °C 48 % 90 % 1010,2 hPa 0,0 l/m² 0,0 km/h (0 Bft) W 269 ° 0 min 0 W/m² 0,2 °C 1,7 °C 0,0 km/h (0 Bft)
18.02.2026 03:15 21,6 °C 1,7 °C 48 % 90 % 1010,1 hPa 0,0 l/m² 0,1 km/h (0 Bft) W 269 ° 0 min 0 W/m² 0,2 °C 1,7 °C 1,6 km/h (1 Bft)
18.02.2026 03:17 21,6 °C 1,7 °C 48 % 90 % 1010,2 hPa 0,0 l/m² 0,1 km/h (0 Bft) W 269 ° 0 min 0 W/m² 0,2 °C 1,7 °C 1,6 km/h (1 Bft)
18.02.2026 03:19 21,6 °C 1,7 °C 48 % 90 % 1010,1 hPa 0,0 l/m² 0,3 km/h (0 Bft) W-SW 248 ° 0 min 0 W/m² 0,2 °C 1,7 °C 3,2 km/h (1 Bft)
18.02.2026 03:21 21,6 °C 1,7 °C 48 % 90 % 1010,1 hPa 0,0 l/m² 1,6 km/h (1 Bft) W-SW 248 ° 0 min 0 W/m² 0,2 °C 1,7 °C 3,2 km/h (1 Bft)
18.02.2026 03:22 21,6 °C 1,7 °C 48 % 90 % 1010,1 hPa 0,0 l/m² 1,7 km/h (1 Bft) W-SW 246 ° 0 min 0 W/m² 0,2 °C 1,7 °C 3,2 km/h (1 Bft)
18.02.2026 03:23 21,6 °C 1,7 °C 48 % 90 % 1010,2 hPa 0,0 l/m² 1,8 km/h (1 Bft) W-SW 246 ° 0 min 0 W/m² 0,2 °C 1,7 °C 3,2 km/h (1 Bft)
18.02.2026 03:25 21,5 °C 1,7 °C 48 % 90 % 1010,2 hPa 0,0 l/m² 3,1 km/h (1 Bft) SW 234 ° 0 min 0 W/m² 0,2 °C 1,7 °C 4,8 km/h (1 Bft)
18.02.2026 03:27 21,6 °C 1,6 °C 48 % 90 % 1010,2 hPa 0,0 l/m² 3,6 km/h (1 Bft) SW 234 ° 0 min 0 W/m² 0,1 °C 1,6 °C 4,8 km/h (1 Bft)
18.02.2026 03:29 21,6 °C 1,6 °C 48 % 90 % 1010,2 hPa 0,0 l/m² 3,7 km/h (1 Bft) SW 231 ° 0 min 0 W/m² 0,1 °C 1,6 °C 4,8 km/h (1 Bft)
18.02.2026 03:31 21,6 °C 1,6 °C 48 % 90 % 1010,3 hPa 0,0 l/m² 4,2 km/h (1 Bft) W-SW 243 ° 0 min 0 W/m² 0,1 °C 1,6 °C 6,4 km/h (2 Bft)
18.02.2026 03:32 21,6 °C 1,6 °C 48 % 90 % 1010,3 hPa 0,0 l/m² 3,4 km/h (1 Bft) W-SW 246 ° 0 min 0 W/m² 0,1 °C 1,6 °C 4,8 km/h (1 Bft)
18.02.2026 03:33 21,6 °C 1,6 °C 48 % 90 % 1010,3 hPa 0,0 l/m² 3,8 km/h (1 Bft) W-SW 252 ° 0 min 0 W/m² 0,1 °C 1,6 °C 6,4 km/h (2 Bft)
18.02.2026 03:35 21,6 °C 1,6 °C 48 % 90 % 1010,3 hPa 0,0 l/m² 3,4 km/h (1 Bft) W-SW 254 ° 0 min 0 W/m² 0,1 °C 1,6 °C 4,8 km/h (1 Bft)
18.02.2026 03:37 21,6 °C 1,5 °C 48 % 90 % 1010,3 hPa 0,0 l/m² 4,0 km/h (1 Bft) W-SW 257 ° 0 min 0 W/m² 0,0 °C 1,5 °C 4,8 km/h (1 Bft)
18.02.2026 03:39 21,6 °C 1,6 °C 48 % 90 % 1010,3 hPa 0,0 l/m² 4,0 km/h (1 Bft) W-SW 258 ° 0 min 0 W/m² 0,1 °C 1,6 °C 6,4 km/h (2 Bft)
18.02.2026 03:41 21,6 °C 1,6 °C 48 % 90 % 1010,3 hPa 0,0 l/m² 4,8 km/h (1 Bft) W-SW 252 ° 0 min 0 W/m² 0,1 °C 1,6 °C 6,4 km/h (2 Bft)
18.02.2026 03:42 21,6 °C 1,6 °C 48 % 90 % 1010,3 hPa 0,0 l/m² 4,4 km/h (1 Bft) W-SW 254 ° 0 min 0 W/m² 0,1 °C 1,6 °C 4,8 km/h (1 Bft)
18.02.2026 03:43 21,6 °C 1,5 °C 48 % 90 % 1010,3 hPa 0,0 l/m² 4,5 km/h (1 Bft) W-SW 254 ° 0 min 0 W/m² 0,0 °C 1,5 °C 6,4 km/h (2 Bft)
18.02.2026 03:45 21,6 °C 1,5 °C 48 % 90 % 1010,4 hPa 0,0 l/m² 4,1 km/h (1 Bft) W-SW 257 ° 0 min 0 W/m² 0,0 °C 1,5 °C 6,4 km/h (2 Bft)
18.02.2026 03:48 21,6 °C 1,5 °C 48 % 90 % 1010,4 hPa 0,0 l/m² 3,7 km/h (1 Bft) W 265 ° 0 min 0 W/m² 0,0 °C 1,5 °C 9,7 km/h (2 Bft)
18.02.2026 03:50 21,6 °C 1,5 °C 48 % 90 % 1010,4 hPa 0,0 l/m² 0,3 km/h (0 Bft) W 265 ° 0 min 0 W/m² 0,0 °C 1,5 °C 1,6 km/h (1 Bft)
18.02.2026 03:52 21,6 °C 1,5 °C 48 % 90 % 1010,3 hPa 0,0 l/m² 0,3 km/h (0 Bft) W 265 ° 0 min 0 W/m² 0,0 °C 1,5 °C 3,2 km/h (1 Bft)
18.02.2026 03:53 21,6 °C 1,5 °C 48 % 90 % 1010,3 hPa 0,0 l/m² 1,6 km/h (1 Bft) W 267 ° 0 min 0 W/m² 0,0 °C 1,5 °C 3,2 km/h (1 Bft)
18.02.2026 03:54 21,6 °C 1,5 °C 48 % 90 % 1010,4 hPa 0,0 l/m² 1,0 km/h (0 Bft) W 270 ° 0 min 0 W/m² 0,0 °C 1,5 °C 3,2 km/h (1 Bft)
18.02.2026 03:56 21,6 °C 1,4 °C 48 % 90 % 1010,5 hPa 0,0 l/m² 1,2 km/h (1 Bft) W 271 ° 0 min 0 W/m² -0,1 °C 1,4 °C 4,8 km/h (1 Bft)
18.02.2026 03:58 21,6 °C 1,4 °C 48 % 90 % 1010,4 hPa 0,0 l/m² 2,2 km/h (1 Bft) W 271 ° 0 min 0 W/m² -0,1 °C 1,4 °C 4,8 km/h (1 Bft)
18.02.2026 04:00 21,6 °C 1,5 °C 48 % 90 % 1010,4 hPa 0,0 l/m² 2,2 km/h (1 Bft) W 269 ° 0 min 0 W/m² 0,0 °C 1,5 °C 4,8 km/h (1 Bft)
18.02.2026 04:02 21,6 °C 1,4 °C 48 % 90 % 1010,4 hPa 0,0 l/m² 2,0 km/h (1 Bft) W-SW 253 ° 0 min 0 W/m² -0,1 °C 1,4 °C 4,8 km/h (1 Bft)
18.02.2026 04:03 21,6 °C 1,4 °C 48 % 90 % 1010,5 hPa 0,0 l/m² 1,7 km/h (1 Bft) W-SW 254 ° 0 min 0 W/m² -0,1 °C 1,4 °C 3,2 km/h (1 Bft)
18.02.2026 04:05 21,6 °C 1,4 °C 48 % 90 % 1010,5 hPa 0,0 l/m² 1,9 km/h (1 Bft) W 261 ° 0 min 0 W/m² -0,1 °C 1,4 °C 3,2 km/h (1 Bft)
18.02.2026 04:07 21,6 °C 1,4 °C 48 % 90 % 1010,5 hPa 0,0 l/m² 1,0 km/h (0 Bft) W 261 ° 0 min 0 W/m² -0,1 °C 1,4 °C 3,2 km/h (1 Bft)
18.02.2026 04:09 21,6 °C 1,4 °C 48 % 90 % 1010,5 hPa 0,0 l/m² 0,0 km/h (0 Bft) W 261 ° 0 min 0 W/m² -0,1 °C 1,4 °C 0,0 km/h (0 Bft)
18.02.2026 04:11 21,6 °C 1,4 °C 48 % 90 % 1010,5 hPa 0,0 l/m² 0,0 km/h (0 Bft) W 261 ° 0 min 0 W/m² -0,1 °C 1,4 °C 0,0 km/h (0 Bft)
18.02.2026 04:13 21,6 °C 1,4 °C 48 % 90 % 1010,5 hPa 0,0 l/m² 0,0 km/h (0 Bft) W 261 ° 0 min 0 W/m² -0,1 °C 1,4 °C 0,0 km/h (0 Bft)
18.02.2026 04:14 21,6 °C 1,4 °C 48 % 90 % 1010,5 hPa 0,0 l/m² 0,0 km/h (0 Bft) W 261 ° 0 min 0 W/m² -0,1 °C 1,4 °C 0,0 km/h (0 Bft)
18.02.2026 04:15 21,6 °C 1,4 °C 48 % 90 % 1010,5 hPa 0,0 l/m² 0,0 km/h (0 Bft) W 261 ° 0 min 0 W/m² -0,1 °C 1,4 °C 0,0 km/h (0 Bft)
18.02.2026 04:17 21,6 °C 1,4 °C 48 % 90 % 1010,5 hPa 0,0 l/m² 0,7 km/h (0 Bft) W 261 ° 0 min 0 W/m² -0,1 °C 1,4 °C 3,2 km/h (1 Bft)
18.02.2026 04:19 21,6 °C 1,4 °C 48 % 90 % 1010,6 hPa 0,0 l/m² 0,0 km/h (0 Bft) W 261 ° 0 min 0 W/m² -0,1 °C 1,4 °C 1,6 km/h (1 Bft)
18.02.2026 04:21 21,6 °C 1,4 °C 48 % 90 % 1010,5 hPa 0,0 l/m² 0,0 km/h (0 Bft) W 261 ° 0 min 0 W/m² -0,1 °C 1,4 °C 0,0 km/h (0 Bft)
18.02.2026 04:23 21,6 °C 1,4 °C 48 % 90 % 1010,6 hPa 0,0 l/m² 0,0 km/h (0 Bft) W 261 ° 0 min 0 W/m² -0,1 °C 1,4 °C 0,0 km/h (0 Bft)
18.02.2026 04:25 21,6 °C 1,4 °C 48 % 90 % 1010,6 hPa 0,0 l/m² 0,0 km/h (0 Bft) W 261 ° 0 min 0 W/m² -0,1 °C 1,4 °C 1,6 km/h (1 Bft)
18.02.2026 04:27 21,6 °C 1,4 °C 48 % 90 % 1010,6 hPa 0,0 l/m² 0,4 km/h (0 Bft) W 261 ° 0 min 0 W/m² -0,1 °C 1,4 °C 1,6 km/h (1 Bft)
18.02.2026 04:29 21,6 °C 1,4 °C 48 % 90 % 1010,6 hPa 0,0 l/m² 0,1 km/h (0 Bft) W 261 ° 0 min 0 W/m² -0,1 °C 1,4 °C 1,6 km/h (1 Bft)
18.02.2026 04:31 21,6 °C 1,4 °C 48 % 90 % 1010,6 hPa 0,0 l/m² 0,1 km/h (0 Bft) W 261 ° 0 min 0 W/m² -0,1 °C 1,4 °C 1,6 km/h (1 Bft)
18.02.2026 04:33 21,6 °C 1,4 °C 48 % 90 % 1010,8 hPa 0,0 l/m² 0,1 km/h (0 Bft) W 261 ° 0 min 0 W/m² -0,1 °C 1,4 °C 1,6 km/h (1 Bft)
18.02.2026 04:35 21,6 °C 1,4 °C 48 % 90 % 1010,7 hPa 0,0 l/m² 0,1 km/h (0 Bft) W 261 ° 0 min 0 W/m² -0,1 °C 1,4 °C 1,6 km/h (1 Bft)
18.02.2026 04:37 21,6 °C 1,3 °C 48 % 90 % 1010,6 hPa 0,0 l/m² 0,6 km/h (0 Bft) W 261 ° 0 min 0 W/m² -0,2 °C 1,3 °C 3,2 km/h (1 Bft)
18.02.2026 04:39 21,6 °C 1,3 °C 48 % 90 % 1010,7 hPa 0,0 l/m² 0,0 km/h (0 Bft) W 261 ° 0 min 0 W/m² -0,2 °C 1,3 °C 1,6 km/h (1 Bft)
18.02.2026 04:41 21,6 °C 1,4 °C 48 % 90 % 1010,7 hPa 0,0 l/m² 0,2 km/h (0 Bft) W 261 ° 0 min 0 W/m² -0,1 °C 1,4 °C 1,6 km/h (1 Bft)
18.02.2026 04:43 21,6 °C 1,3 °C 48 % 90 % 1010,7 hPa 0,0 l/m² 0,0 km/h (0 Bft) W 261 ° 0 min 0 W/m² -0,2 °C 1,3 °C 0,0 km/h (0 Bft)
18.02.2026 04:45 21,6 °C 1,4 °C 48 % 90 % 1010,8 hPa 0,0 l/m² 0,0 km/h (0 Bft) W 261 ° 0 min 0 W/m² -0,1 °C 1,4 °C 0,0 km/h (0 Bft)
18.02.2026 04:47 21,6 °C 1,3 °C 48 % 90 % 1010,7 hPa 0,0 l/m² 0,0 km/h (0 Bft) W 261 ° 0 min 0 W/m² -0,2 °C 1,3 °C 0,0 km/h (0 Bft)
18.02.2026 04:49 21,6 °C 1,3 °C 48 % 90 % 1010,8 hPa 0,0 l/m² 0,0 km/h (0 Bft) W 261 ° 0 min 0 W/m² -0,2 °C 1,3 °C 0,0 km/h (0 Bft)
18.02.2026 04:51 21,6 °C 1,3 °C 48 % 90 % 1010,8 hPa 0,0 l/m² 0,0 km/h (0 Bft) W 261 ° 0 min 0 W/m² -0,2 °C 1,3 °C 0,0 km/h (0 Bft)
18.02.2026 04:53 21,6 °C 1,3 °C 48 % 90 % 1010,8 hPa 0,0 l/m² 0,0 km/h (0 Bft) W 261 ° 0 min 0 W/m² -0,2 °C 1,3 °C 0,0 km/h (0 Bft)
18.02.2026 04:55 21,6 °C 1,3 °C 48 % 90 % 1010,8 hPa 0,0 l/m² 0,0 km/h (0 Bft) W 261 ° 0 min 0 W/m² -0,2 °C 1,3 °C 0,0 km/h (0 Bft)
18.02.2026 04:57 21,6 °C 1,3 °C 48 % 90 % 1010,9 hPa 0,0 l/m² 0,0 km/h (0 Bft) W 261 ° 0 min 0 W/m² -0,2 °C 1,3 °C 0,0 km/h (0 Bft)
18.02.2026 04:59 21,6 °C 1,3 °C 48 % 90 % 1010,8 hPa 0,0 l/m² 0,0 km/h (0 Bft) W 261 ° 0 min 0 W/m² -0,2 °C 1,3 °C 0,0 km/h (0 Bft)
18.02.2026 05:01 21,6 °C 1,3 °C 48 % 90 % 1010,9 hPa 0,0 l/m² 0,0 km/h (0 Bft) W 261 ° 0 min 0 W/m² -0,2 °C 1,3 °C 0,0 km/h (0 Bft)
18.02.2026 05:03 21,6 °C 1,3 °C 48 % 90 % 1010,9 hPa 0,0 l/m² 0,0 km/h (0 Bft) W 261 ° 0 min 0 W/m² -0,2 °C 1,3 °C 0,0 km/h (0 Bft)
18.02.2026 05:05 21,6 °C 1,3 °C 48 % 90 % 1010,9 hPa 0,0 l/m² 0,0 km/h (0 Bft) W 261 ° 0 min 0 W/m² -0,2 °C 1,3 °C 0,0 km/h (0 Bft)
18.02.2026 05:07 21,6 °C 1,3 °C 48 % 90 % 1010,9 hPa 0,0 l/m² 0,0 km/h (0 Bft) W 261 ° 0 min 0 W/m² -0,2 °C 1,3 °C 0,0 km/h (0 Bft)
18.02.2026 05:09 21,6 °C 1,3 °C 48 % 90 % 1010,8 hPa 0,0 l/m² 0,0 km/h (0 Bft) W 261 ° 0 min 0 W/m² -0,2 °C 1,3 °C 0,0 km/h (0 Bft)
18.02.2026 05:11 21,6 °C 1,3 °C 48 % 90 % 1010,8 hPa 0,0 l/m² 0,0 km/h (0 Bft) W 261 ° 0 min 0 W/m² -0,2 °C 1,3 °C 0,0 km/h (0 Bft)
18.02.2026 05:13 21,6 °C 1,3 °C 48 % 90 % 1010,9 hPa 0,0 l/m² 0,0 km/h (0 Bft) W 261 ° 0 min 0 W/m² -0,2 °C 1,3 °C 0,0 km/h (0 Bft)
18.02.2026 05:15 21,6 °C 1,3 °C 48 % 90 % 1010,9 hPa 0,0 l/m² 0,0 km/h (0 Bft) W 261 ° 0 min 0 W/m² -0,2 °C 1,3 °C 0,0 km/h (0 Bft)
18.02.2026 05:17 21,6 °C 1,3 °C 48 % 90 % 1010,9 hPa 0,0 l/m² 0,0 km/h (0 Bft) W 261 ° 0 min 0 W/m² -0,2 °C 1,3 °C 0,0 km/h (0 Bft)
18.02.2026 05:19 21,6 °C 1,3 °C 48 % 90 % 1010,8 hPa 0,0 l/m² 0,0 km/h (0 Bft) W 261 ° 0 min 0 W/m² -0,2 °C 1,3 °C 0,0 km/h (0 Bft)
18.02.2026 05:21 21,6 °C 1,3 °C 48 % 90 % 1010,9 hPa 0,0 l/m² 0,0 km/h (0 Bft) W 261 ° 0 min 0 W/m² -0,2 °C 1,3 °C 0,0 km/h (0 Bft)
18.02.2026 05:23 21,6 °C 1,3 °C 48 % 90 % 1010,9 hPa 0,0 l/m² 0,0 km/h (0 Bft) W 261 ° 0 min 0 W/m² -0,2 °C 1,3 °C 0,0 km/h (0 Bft)
18.02.2026 05:25 21,6 °C 1,3 °C 48 % 90 % 1010,9 hPa 0,0 l/m² 0,0 km/h (0 Bft) W 261 ° 0 min 0 W/m² -0,2 °C 1,3 °C 0,0 km/h (0 Bft)
18.02.2026 05:27 21,6 °C 1,3 °C 48 % 90 % 1010,9 hPa 0,0 l/m² 0,0 km/h (0 Bft) W 261 ° 0 min 0 W/m² -0,2 °C 1,3 °C 0,0 km/h (0 Bft)
18.02.2026 05:29 21,6 °C 1,3 °C 48 % 90 % 1011,0 hPa 0,0 l/m² 0,0 km/h (0 Bft) W 261 ° 0 min 0 W/m² -0,2 °C 1,3 °C 0,0 km/h (0 Bft)
18.02.2026 05:31 21,6 °C 1,3 °C 48 % 90 % 1011,0 hPa 0,0 l/m² 0,0 km/h (0 Bft) W 261 ° 0 min 0 W/m² -0,2 °C 1,3 °C 0,0 km/h (0 Bft)
18.02.2026 05:33 21,6 °C 1,3 °C 48 % 90 % 1011,1 hPa 0,0 l/m² 0,0 km/h (0 Bft) W 261 ° 0 min 0 W/m² -0,2 °C 1,3 °C 0,0 km/h (0 Bft)
18.02.2026 05:35 21,6 °C 1,3 °C 48 % 90 % 1011,0 hPa 0,0 l/m² 0,0 km/h (0 Bft) W 261 ° 0 min 0 W/m² -0,2 °C 1,3 °C 0,0 km/h (0 Bft)
18.02.2026 05:37 21,6 °C 1,3 °C 48 % 90 % 1011,0 hPa 0,0 l/m² 0,0 km/h (0 Bft) W 261 ° 0 min 0 W/m² -0,2 °C 1,3 °C 0,0 km/h (0 Bft)
18.02.2026 05:39 21,6 °C 1,3 °C 48 % 90 % 1011,0 hPa 0,0 l/m² 0,0 km/h (0 Bft) W 261 ° 0 min 0 W/m² -0,2 °C 1,3 °C 0,0 km/h (0 Bft)
18.02.2026 05:41 21,6 °C 1,2 °C 48 % 90 % 1011,0 hPa 0,0 l/m² 0,0 km/h (0 Bft) W 261 ° 0 min 0 W/m² -0,3 °C 1,2 °C 0,0 km/h (0 Bft)
18.02.2026 05:43 21,6 °C 1,2 °C 48 % 90 % 1011,1 hPa 0,0 l/m² 0,0 km/h (0 Bft) W 261 ° 0 min 0 W/m² -0,3 °C 1,2 °C 0,0 km/h (0 Bft)
18.02.2026 05:45 21,6 °C 1,2 °C 48 % 90 % 1011,0 hPa 0,0 l/m² 0,0 km/h (0 Bft) W 261 ° 0 min 0 W/m² -0,3 °C 1,2 °C 0,0 km/h (0 Bft)
18.02.2026 05:47 21,6 °C 1,2 °C 48 % 90 % 1011,1 hPa 0,0 l/m² 0,0 km/h (0 Bft) W 261 ° 0 min 0 W/m² -0,3 °C 1,2 °C 0,0 km/h (0 Bft)
18.02.2026 05:49 21,6 °C 1,2 °C 48 % 90 % 1011,0 hPa 0,0 l/m² 0,0 km/h (0 Bft) W 261 ° 0 min 0 W/m² -0,3 °C 1,2 °C 0,0 km/h (0 Bft)
18.02.2026 05:51 21,6 °C 1,2 °C 48 % 90 % 1011,0 hPa 0,0 l/m² 0,0 km/h (0 Bft) W 261 ° 0 min 0 W/m² -0,3 °C 1,2 °C 0,0 km/h (0 Bft)
18.02.2026 05:53 21,6 °C 1,2 °C 48 % 90 % 1011,0 hPa 0,2 l/m² 0,0 km/h (0 Bft) W 261 ° 0 min 0 W/m² -0,3 °C 1,2 °C 0,0 km/h (0 Bft)
18.02.2026 05:55 21,6 °C 1,2 °C 48 % 90 % 1011,0 hPa 0,0 l/m² 0,0 km/h (0 Bft) W 261 ° 0 min 0 W/m² -0,3 °C 1,2 °C 0,0 km/h (0 Bft)
18.02.2026 05:57 21,6 °C 1,2 °C 48 % 90 % 1011,0 hPa 0,0 l/m² 0,0 km/h (0 Bft) W 261 ° 0 min 0 W/m² -0,3 °C 1,2 °C 0,0 km/h (0 Bft)
18.02.2026 05:59 21,6 °C 1,2 °C 48 % 90 % 1010,9 hPa 0,0 l/m² 0,0 km/h (0 Bft) W 261 ° 0 min 0 W/m² -0,3 °C 1,2 °C 0,0 km/h (0 Bft)
18.02.2026 06:01 21,6 °C 1,2 °C 48 % 90 % 1011,0 hPa 0,0 l/m² 0,0 km/h (0 Bft) W 261 ° 0 min 0 W/m² -0,3 °C 1,2 °C 0,0 km/h (0 Bft)
18.02.2026 06:03 21,6 °C 1,2 °C 48 % 90 % 1011,0 hPa 0,0 l/m² 0,0 km/h (0 Bft) W 261 ° 0 min 0 W/m² -0,3 °C 1,2 °C 0,0 km/h (0 Bft)
18.02.2026 06:05 21,6 °C 1,2 °C 48 % 90 % 1011,0 hPa 0,0 l/m² 0,0 km/h (0 Bft) W 261 ° 0 min 0 W/m² -0,3 °C 1,2 °C 0,0 km/h (0 Bft)
18.02.2026 06:07 21,6 °C 1,2 °C 48 % 90 % 1011,0 hPa 0,0 l/m² 0,0 km/h (0 Bft) W 261 ° 0 min 0 W/m² -0,3 °C 1,2 °C 0,0 km/h (0 Bft)
18.02.2026 06:09 21,6 °C 1,2 °C 48 % 90 % 1011,0 hPa 0,0 l/m² 0,0 km/h (0 Bft) W 261 ° 0 min 0 W/m² -0,3 °C 1,2 °C 0,0 km/h (0 Bft)
18.02.2026 06:11 21,6 °C 1,1 °C 48 % 90 % 1011,0 hPa 0,0 l/m² 0,0 km/h (0 Bft) W 261 ° 0 min 0 W/m² -0,4 °C 1,1 °C 0,0 km/h (0 Bft)
18.02.2026 06:12 21,6 °C 1,1 °C 48 % 90 % 1011,0 hPa 0,0 l/m² 0,0 km/h (0 Bft) W 261 ° 0 min 0 W/m² -0,4 °C 1,1 °C 0,0 km/h (0 Bft)
18.02.2026 06:13 21,6 °C 1,1 °C 48 % 90 % 1011,0 hPa 0,0 l/m² 0,0 km/h (0 Bft) W 261 ° 0 min 0 W/m² -0,4 °C 1,1 °C 0,0 km/h (0 Bft)
18.02.2026 06:14 21,6 °C 1,1 °C 48 % 90 % 1011,0 hPa 0,0 l/m² 0,0 km/h (0 Bft) W-SW 258 ° 0 min 0 W/m² -0,4 °C 1,1 °C 0,0 km/h (0 Bft)
18.02.2026 06:15 21,5 °C 1,1 °C 48 % 90 % 1011,1 hPa 0,0 l/m² 0,1 km/h (0 Bft) W-SW 248 ° 0 min 0 W/m² -0,4 °C 1,1 °C 1,6 km/h (1 Bft)
18.02.2026 06:16 21,6 °C 1,1 °C 48 % 90 % 1011,1 hPa 0,0 l/m² 0,8 km/h (0 Bft) W-SW 238 ° 0 min 0 W/m² -0,4 °C 1,1 °C 1,6 km/h (1 Bft)
18.02.2026 06:17 21,5 °C 1,1 °C 48 % 90 % 1011,0 hPa 0,0 l/m² 0,0 km/h (0 Bft) W-SW 238 ° 0 min 0 W/m² -0,4 °C 1,1 °C 0,0 km/h (0 Bft)
18.02.2026 06:18 21,6 °C 1,1 °C 48 % 90 % 1011,1 hPa 0,0 l/m² 0,0 km/h (0 Bft) W-SW 239 ° 0 min 0 W/m² -0,4 °C 1,1 °C 0,0 km/h (0 Bft)
18.02.2026 06:19 21,5 °C 1,1 °C 48 % 90 % 1011,0 hPa 0,0 l/m² 0,0 km/h (0 Bft) W-SW 239 ° 0 min 0 W/m² -0,4 °C 1,1 °C 0,0 km/h (0 Bft)
18.02.2026 06:20 21,6 °C 1,1 °C 48 % 90 % 1011,1 hPa 0,0 l/m² 0,0 km/h (0 Bft) W-SW 239 ° 0 min 0 W/m² -0,4 °C 1,1 °C 0,0 km/h (0 Bft)
18.02.2026 06:21 21,5 °C 1,1 °C 48 % 90 % 1011,1 hPa 0,0 l/m² 0,0 km/h (0 Bft) W-SW 239 ° 0 min 0 W/m² -0,4 °C 1,1 °C 0,0 km/h (0 Bft)
18.02.2026 06:22 21,5 °C 1,1 °C 48 % 90 % 1011,1 hPa 0,0 l/m² 0,0 km/h (0 Bft) W-SW 239 ° 0 min 0 W/m² -0,4 °C 1,1 °C 0,0 km/h (0 Bft)
18.02.2026 06:23 21,5 °C 1,1 °C 48 % 91 % 1011,2 hPa 0,0 l/m² 0,4 km/h (0 Bft) W-SW 238 ° 0 min 0 W/m² -0,2 °C 1,1 °C 1,6 km/h (1 Bft)
18.02.2026 06:24 21,5 °C 1,1 °C 48 % 90 % 1011,2 hPa 0,0 l/m² 0,3 km/h (0 Bft) W-SW 238 ° 0 min 0 W/m² -0,4 °C 1,1 °C 1,6 km/h (1 Bft)
18.02.2026 06:25 21,5 °C 1,1 °C 48 % 91 % 1011,2 hPa 0,0 l/m² 0,0 km/h (0 Bft) W-SW 238 ° 0 min 0 W/m² -0,2 °C 1,1 °C 0,0 km/h (0 Bft)
18.02.2026 06:26 21,6 °C 1,1 °C 48 % 91 % 1011,1 hPa 0,0 l/m² 0,0 km/h (0 Bft) W-SW 238 ° 0 min 0 W/m² -0,2 °C 1,1 °C 0,0 km/h (0 Bft)
18.02.2026 06:27 21,6 °C 1,1 °C 48 % 91 % 1011,1 hPa 0,0 l/m² 0,0 km/h (0 Bft) W-SW 238 ° 0 min 0 W/m² -0,2 °C 1,1 °C 0,0 km/h (0 Bft)
18.02.2026 06:28 21,6 °C 1,1 °C 48 % 91 % 1011,2 hPa 0,0 l/m² 0,5 km/h (0 Bft) W-SW 238 ° 0 min 0 W/m² -0,2 °C 1,1 °C 1,6 km/h (1 Bft)
18.02.2026 06:29 21,5 °C 1,1 °C 48 % 91 % 1011,2 hPa 0,0 l/m² 0,0 km/h (0 Bft) W-SW 238 ° 0 min 0 W/m² -0,2 °C 1,1 °C 0,0 km/h (0 Bft)
18.02.2026 06:30 21,5 °C 1,1 °C 48 % 91 % 1011,2 hPa 0,0 l/m² 0,0 km/h (0 Bft) W-SW 238 ° 0 min 0 W/m² -0,2 °C 1,1 °C 0,0 km/h (0 Bft)
18.02.2026 06:31 21,5 °C 1,1 °C 48 % 91 % 1011,1 hPa 0,0 l/m² 0,0 km/h (0 Bft) W-SW 238 ° 0 min 0 W/m² -0,2 °C 1,1 °C 0,0 km/h (0 Bft)
18.02.2026 06:32 21,6 °C 1,1 °C 48 % 91 % 1011,1 hPa 0,0 l/m² 0,0 km/h (0 Bft) W-SW 239 ° 0 min 0 W/m² -0,2 °C 1,1 °C 0,0 km/h (0 Bft)
18.02.2026 06:33 21,6 °C 1,1 °C 48 % 91 % 1011,1 hPa 0,0 l/m² 0,1 km/h (0 Bft) W-SW 239 ° 0 min 0 W/m² -0,2 °C 1,1 °C 1,6 km/h (1 Bft)
18.02.2026 06:34 21,5 °C 1,1 °C 48 % 91 % 1011,1 hPa 0,0 l/m² 0,4 km/h (0 Bft) W-SW 239 ° 0 min 0 W/m² -0,2 °C 1,1 °C 1,6 km/h (1 Bft)
18.02.2026 06:35 21,5 °C 1,1 °C 48 % 91 % 1011,2 hPa 0,0 l/m² 0,3 km/h (0 Bft) W-SW 239 ° 0 min 0 W/m² -0,2 °C 1,1 °C 1,6 km/h (1 Bft)
18.02.2026 06:36 21,5 °C 1,1 °C 48 % 91 % 1011,1 hPa 0,0 l/m² 0,8 km/h (0 Bft) W-SW 242 ° 0 min 0 W/m² -0,2 °C 1,1 °C 3,2 km/h (1 Bft)
18.02.2026 06:37 21,5 °C 1,2 °C 48 % 91 % 1011,1 hPa 0,0 l/m² 1,7 km/h (1 Bft) W-SW 244 ° 0 min 0 W/m² -0,1 °C 1,2 °C 3,2 km/h (1 Bft)
18.02.2026 06:38 21,5 °C 1,2 °C 48 % 91 % 1011,2 hPa 0,0 l/m² 2,2 km/h (1 Bft) W-SW 244 ° 0 min 0 W/m² -0,1 °C 1,2 °C 3,2 km/h (1 Bft)
18.02.2026 06:39 21,5 °C 1,2 °C 48 % 91 % 1011,2 hPa 0,0 l/m² 2,0 km/h (1 Bft) W-SW 244 ° 0 min 0 W/m² -0,1 °C 1,2 °C 3,2 km/h (1 Bft)
18.02.2026 06:40 21,6 °C 1,1 °C 48 % 91 % 1011,2 hPa 0,0 l/m² 2,6 km/h (1 Bft) W-SW 244 ° 0 min 0 W/m² -0,2 °C 1,1 °C 4,8 km/h (1 Bft)
18.02.2026 06:41 21,6 °C 1,2 °C 48 % 91 % 1011,3 hPa 0,0 l/m² 3,5 km/h (1 Bft) W-SW 247 ° 0 min 0 W/m² -0,1 °C 1,2 °C 4,8 km/h (1 Bft)
18.02.2026 06:42 21,6 °C 1,2 °C 48 % 91 % 1011,3 hPa 0,0 l/m² 3,7 km/h (1 Bft) W-SW 244 ° 0 min 0 W/m² -0,1 °C 1,2 °C 4,8 km/h (1 Bft)
18.02.2026 06:43 21,5 °C 1,2 °C 48 % 91 % 1011,3 hPa 0,0 l/m² 2,6 km/h (1 Bft) W-SW 244 ° 0 min 0 W/m² -0,1 °C 1,2 °C 4,8 km/h (1 Bft)
18.02.2026 06:44 21,5 °C 1,2 °C 48 % 91 % 1011,3 hPa 0,0 l/m² 3,6 km/h (1 Bft) W-SW 243 ° 0 min 0 W/m² -0,1 °C 1,2 °C 4,8 km/h (1 Bft)
18.02.2026 06:46 21,5 °C 1,2 °C 48 % 91 % 1011,3 hPa 0,0 l/m² 3,4 km/h (1 Bft) W-SW 244 ° 0 min 0 W/m² -0,1 °C 1,2 °C 4,8 km/h (1 Bft)
18.02.2026 06:47 21,5 °C 1,2 °C 48 % 91 % 1011,3 hPa 0,0 l/m² 3,4 km/h (1 Bft) W-SW 252 ° 0 min 0 W/m² -0,1 °C 1,2 °C 4,8 km/h (1 Bft)
18.02.2026 06:48 21,5 °C 1,2 °C 48 % 91 % 1011,3 hPa 0,0 l/m² 3,5 km/h (1 Bft) W 261 ° 0 min 0 W/m² -0,1 °C 1,2 °C 4,8 km/h (1 Bft)
18.02.2026 06:49 21,6 °C 1,2 °C 48 % 91 % 1011,3 hPa 0,0 l/m² 2,6 km/h (1 Bft) W-SW 255 ° 0 min 0 W/m² -0,1 °C 1,2 °C 4,8 km/h (1 Bft)
18.02.2026 06:50 21,6 °C 1,2 °C 48 % 91 % 1011,4 hPa 0,0 l/m² 3,6 km/h (1 Bft) W-SW 258 ° 0 min 0 W/m² -0,1 °C 1,2 °C 4,8 km/h (1 Bft)
18.02.2026 06:51 21,6 °C 1,2 °C 48 % 91 % 1011,5 hPa 0,0 l/m² 4,2 km/h (1 Bft) W-SW 257 ° 0 min 0 W/m² -0,1 °C 1,2 °C 6,4 km/h (2 Bft)
18.02.2026 06:52 21,6 °C 1,2 °C 48 % 91 % 1011,4 hPa 0,0 l/m² 2,3 km/h (1 Bft) W 259 ° 0 min 0 W/m² -0,1 °C 1,2 °C 4,8 km/h (1 Bft)
18.02.2026 06:53 21,5 °C 1,2 °C 48 % 91 % 1011,5 hPa 0,0 l/m² 2,4 km/h (1 Bft) W 269 ° 0 min 0 W/m² -0,1 °C 1,2 °C 4,8 km/h (1 Bft)
18.02.2026 06:54 21,5 °C 1,2 °C 48 % 91 % 1011,5 hPa 0,0 l/m² 3,0 km/h (1 Bft) W 269 ° 0 min 0 W/m² -0,1 °C 1,2 °C 4,8 km/h (1 Bft)
18.02.2026 06:55 21,6 °C 1,2 °C 48 % 91 % 1011,4 hPa 0,0 l/m² 0,8 km/h (0 Bft) W 265 ° 0 min 0 W/m² -0,1 °C 1,2 °C 1,6 km/h (1 Bft)
18.02.2026 06:56 21,6 °C 1,2 °C 48 % 91 % 1011,4 hPa 0,0 l/m² 1,0 km/h (0 Bft) W 264 ° 0 min 0 W/m² -0,1 °C 1,2 °C 3,2 km/h (1 Bft)
18.02.2026 06:57 21,6 °C 1,2 °C 48 % 91 % 1011,5 hPa 0,0 l/m² 1,1 km/h (1 Bft) W 259 ° 0 min 0 W/m² -0,1 °C 1,2 °C 3,2 km/h (1 Bft)
18.02.2026 06:58 21,6 °C 1,2 °C 48 % 91 % 1011,4 hPa 0,0 l/m² 2,3 km/h (1 Bft) W-SW 246 ° 0 min 0 W/m² -0,1 °C 1,2 °C 4,8 km/h (1 Bft)
18.02.2026 06:59 21,6 °C 1,3 °C 48 % 91 % 1011,5 hPa 0,0 l/m² 2,4 km/h (1 Bft) W-SW 249 ° 0 min 0 W/m² -0,0 °C 1,3 °C 4,8 km/h (1 Bft)
18.02.2026 07:00 21,5 °C 1,2 °C 48 % 91 % 1011,5 hPa 0,0 l/m² 2,9 km/h (1 Bft) W-SW 250 ° 0 min 0 W/m² -0,1 °C 1,2 °C 4,8 km/h (1 Bft)
18.02.2026 07:01 21,6 °C 1,3 °C 48 % 91 % 1011,5 hPa 0,0 l/m² 3,6 km/h (1 Bft) W-SW 240 ° 0 min 0 W/m² -0,0 °C 1,3 °C 4,8 km/h (1 Bft)
18.02.2026 07:02 21,6 °C 1,3 °C 48 % 91 % 1011,6 hPa 0,0 l/m² 4,3 km/h (1 Bft) W-SW 246 ° 0 min 0 W/m² -0,0 °C 1,3 °C 6,4 km/h (2 Bft)
18.02.2026 07:03 21,6 °C 1,3 °C 48 % 91 % 1011,5 hPa 0,0 l/m² 3,0 km/h (1 Bft) SW 229 ° 0 min 0 W/m² -0,0 °C 1,3 °C 4,8 km/h (1 Bft)
18.02.2026 07:04 21,6 °C 1,3 °C 48 % 91 % 1011,5 hPa 0,0 l/m² 3,4 km/h (1 Bft) W-SW 250 ° 0 min 0 W/m² -0,0 °C 1,3 °C 4,8 km/h (1 Bft)
18.02.2026 07:05 21,6 °C 1,3 °C 48 % 91 % 1011,5 hPa 0,0 l/m² 4,1 km/h (1 Bft) W 268 ° 0 min 0 W/m² -0,0 °C 1,3 °C 4,8 km/h (1 Bft)
18.02.2026 07:06 21,5 °C 1,3 °C 48 % 91 % 1011,6 hPa 0,0 l/m² 4,7 km/h (1 Bft) W-SW 254 ° 0 min 0 W/m² -0,0 °C 1,3 °C 6,4 km/h (2 Bft)
18.02.2026 07:07 21,6 °C 1,3 °C 48 % 91 % 1011,5 hPa 0,0 l/m² 3,1 km/h (1 Bft) W-SW 256 ° 0 min 0 W/m² -0,0 °C 1,3 °C 6,4 km/h (2 Bft)
18.02.2026 07:08 21,6 °C 1,3 °C 48 % 91 % 1011,6 hPa 0,0 l/m² 3,1 km/h (1 Bft) W 265 ° 0 min 0 W/m² -0,0 °C 1,3 °C 4,8 km/h (1 Bft)
18.02.2026 07:09 21,6 °C 1,3 °C 47 % 91 % 1011,5 hPa 0,0 l/m² 1,7 km/h (1 Bft) W 267 ° 0 min 0 W/m² -0,0 °C 1,3 °C 3,2 km/h (1 Bft)
18.02.2026 07:10 21,6 °C 1,3 °C 47 % 91 % 1011,5 hPa 0,0 l/m² 1,8 km/h (1 Bft) W 267 ° 0 min 0 W/m² -0,0 °C 1,3 °C 3,2 km/h (1 Bft)
18.02.2026 07:11 21,5 °C 1,3 °C 47 % 91 % 1011,5 hPa 0,0 l/m² 2,2 km/h (1 Bft) W 268 ° 0 min 0 W/m² -0,0 °C 1,3 °C 3,2 km/h (1 Bft)
18.02.2026 07:12 21,6 °C 1,3 °C 47 % 91 % 1011,6 hPa 0,0 l/m² 0,6 km/h (0 Bft) W 268 ° 0 min 0 W/m² -0,0 °C 1,3 °C 3,2 km/h (1 Bft)
18.02.2026 07:13 21,5 °C 1,3 °C 47 % 91 % 1011,6 hPa 0,0 l/m² 0,3 km/h (0 Bft) W 268 ° 0 min 0 W/m² -0,0 °C 1,3 °C 1,6 km/h (1 Bft)
18.02.2026 07:14 21,5 °C 1,3 °C 47 % 91 % 1011,6 hPa 0,0 l/m² 0,2 km/h (0 Bft) W 267 ° 0 min 0 W/m² -0,0 °C 1,3 °C 1,6 km/h (1 Bft)
18.02.2026 07:15 21,5 °C 1,3 °C 47 % 91 % 1011,6 hPa 0,0 l/m² 0,4 km/h (0 Bft) W 268 ° 0 min 0 W/m² -0,0 °C 1,3 °C 1,6 km/h (1 Bft)
18.02.2026 07:16 21,5 °C 1,3 °C 47 % 91 % 1011,6 hPa 0,0 l/m² 0,3 km/h (0 Bft) W 269 ° 0 min 0 W/m² -0,0 °C 1,3 °C 1,6 km/h (1 Bft)
18.02.2026 07:17 21,5 °C 1,3 °C 47 % 91 % 1011,6 hPa 0,0 l/m² 0,0 km/h (0 Bft) W 269 ° 0 min 0 W/m² -0,0 °C 1,3 °C 0,0 km/h (0 Bft)
18.02.2026 07:18 21,5 °C 1,3 °C 47 % 91 % 1011,6 hPa 0,0 l/m² 0,0 km/h (0 Bft) W 269 ° 0 min 0 W/m² -0,0 °C 1,3 °C 0,0 km/h (0 Bft)
18.02.2026 07:19 21,5 °C 1,3 °C 47 % 91 % 1011,6 hPa 0,0 l/m² 0,0 km/h (0 Bft) W 269 ° 0 min 0 W/m² -0,0 °C 1,3 °C 0,0 km/h (0 Bft)
18.02.2026 07:20 21,5 °C 1,3 °C 47 % 91 % 1011,6 hPa 0,0 l/m² 1,8 km/h (1 Bft) W 265 ° 0 min 0 W/m² -0,0 °C 1,3 °C 6,4 km/h (2 Bft)
18.02.2026 07:21 21,5 °C 1,3 °C 46 % 91 % 1011,6 hPa 0,0 l/m² 0,6 km/h (0 Bft) W 269 ° 0 min 0 W/m² -0,0 °C 1,3 °C 1,6 km/h (1 Bft)
18.02.2026 07:22 21,5 °C 1,3 °C 46 % 91 % 1011,6 hPa 0,0 l/m² 2,1 km/h (1 Bft) W 270 ° 0 min 0 W/m² -0,0 °C 1,3 °C 4,8 km/h (1 Bft)
18.02.2026 07:23 21,4 °C 1,3 °C 46 % 91 % 1011,6 hPa 0,0 l/m² 1,7 km/h (1 Bft) W 270 ° 0 min 0 W/m² -0,0 °C 1,3 °C 4,8 km/h (1 Bft)
18.02.2026 07:24 21,4 °C 1,3 °C 46 % 91 % 1011,6 hPa 0,0 l/m² 0,8 km/h (0 Bft) W 271 ° 0 min 0 W/m² -0,0 °C 1,3 °C 3,2 km/h (1 Bft)
18.02.2026 07:25 21,4 °C 1,3 °C 46 % 91 % 1011,6 hPa 0,0 l/m² 0,4 km/h (0 Bft) W 271 ° 0 min 0 W/m² -0,0 °C 1,3 °C 1,6 km/h (1 Bft)
18.02.2026 07:26 21,5 °C 1,3 °C 46 % 91 % 1011,6 hPa 0,0 l/m² 0,3 km/h (0 Bft) W 271 ° 0 min 0 W/m² -0,0 °C 1,3 °C 1,6 km/h (1 Bft)
18.02.2026 07:27 21,4 °C 1,3 °C 46 % 91 % 1011,7 hPa 0,0 l/m² 1,4 km/h (1 Bft) W 271 ° 0 min 0 W/m² -0,0 °C 1,3 °C 3,2 km/h (1 Bft)
18.02.2026 07:28 21,4 °C 1,3 °C 46 % 91 % 1011,6 hPa 0,0 l/m² 0,7 km/h (0 Bft) W 271 ° 0 min 0 W/m² -0,0 °C 1,3 °C 1,6 km/h (1 Bft)
18.02.2026 07:29 21,4 °C 1,3 °C 46 % 91 % 1011,7 hPa 0,0 l/m² 1,4 km/h (1 Bft) W 271 ° 0 min 0 W/m² -0,0 °C 1,3 °C 3,2 km/h (1 Bft)
18.02.2026 07:30 21,5 °C 1,3 °C 46 % 91 % 1011,7 hPa 0,0 l/m² 2,7 km/h (1 Bft) W 270 ° 0 min 0 W/m² -0,0 °C 1,3 °C 3,2 km/h (1 Bft)
18.02.2026 07:31 21,5 °C 1,3 °C 46 % 91 % 1011,7 hPa 0,0 l/m² 0,4 km/h (0 Bft) W 270 ° 0 min 0 W/m² -0,0 °C 1,3 °C 3,2 km/h (1 Bft)
18.02.2026 07:33 21,5 °C 1,3 °C 46 % 91 % 1011,7 hPa 0,0 l/m² 0,7 km/h (0 Bft) W 261 ° 0 min 0 W/m² -0,0 °C 1,3 °C 3,2 km/h (1 Bft)
18.02.2026 07:34 21,5 °C 1,3 °C 46 % 91 % 1011,7 hPa 0,0 l/m² 0,3 km/h (0 Bft) W 261 ° 0 min 0 W/m² -0,0 °C 1,3 °C 1,6 km/h (1 Bft)
18.02.2026 07:35 21,4 °C 1,3 °C 46 % 91 % 1011,8 hPa 0,0 l/m² 0,8 km/h (0 Bft) W 262 ° 0 min 0 W/m² -0,0 °C 1,3 °C 1,6 km/h (1 Bft)
18.02.2026 07:36 21,4 °C 1,3 °C 46 % 91 % 1011,8 hPa 0,0 l/m² 3,0 km/h (1 Bft) W 265 ° 0 min 0 W/m² -0,0 °C 1,3 °C 4,8 km/h (1 Bft)
18.02.2026 07:37 21,5 °C 1,3 °C 46 % 91 % 1011,7 hPa 0,0 l/m² 0,7 km/h (0 Bft) W 265 ° 0 min 0 W/m² -0,0 °C 1,3 °C 3,2 km/h (1 Bft)
18.02.2026 07:38 21,5 °C 1,3 °C 46 % 91 % 1011,8 hPa 0,0 l/m² 1,0 km/h (0 Bft) W 265 ° 0 min 0 W/m² -0,0 °C 1,3 °C 3,2 km/h (1 Bft)
18.02.2026 07:39 21,4 °C 1,3 °C 46 % 91 % 1011,8 hPa 0,0 l/m² 1,4 km/h (1 Bft) W 265 ° 0 min 0 W/m² -0,0 °C 1,3 °C 1,6 km/h (1 Bft)
18.02.2026 07:40 21,4 °C 1,3 °C 46 % 91 % 1011,8 hPa 0,0 l/m² 1,3 km/h (1 Bft) W 267 ° 0 min 0 W/m² -0,0 °C 1,3 °C 3,2 km/h (1 Bft)
18.02.2026 07:41 21,5 °C 1,3 °C 46 % 91 % 1011,8 hPa 0,0 l/m² 2,1 km/h (1 Bft) W 267 ° 0 min 0 W/m² -0,0 °C 1,3 °C 3,2 km/h (1 Bft)
18.02.2026 07:42 21,5 °C 1,3 °C 46 % 91 % 1011,8 hPa 0,0 l/m² 0,7 km/h (0 Bft) W 273 ° 0 min 0 W/m² -0,0 °C 1,3 °C 4,8 km/h (1 Bft)
18.02.2026 07:43 21,4 °C 1,3 °C 46 % 91 % 1011,8 hPa 0,0 l/m² 1,9 km/h (1 Bft) W 274 ° 0 min 0 W/m² -0,0 °C 1,3 °C 3,2 km/h (1 Bft)
18.02.2026 07:44 21,4 °C 1,3 °C 46 % 91 % 1011,9 hPa 0,0 l/m² 0,8 km/h (0 Bft) W 273 ° 0 min 0 W/m² -0,0 °C 1,3 °C 1,6 km/h (1 Bft)
18.02.2026 07:45 21,5 °C 1,3 °C 46 % 91 % 1011,9 hPa 0,0 l/m² 0,6 km/h (0 Bft) W 273 ° 0 min 0 W/m² -0,0 °C 1,3 °C 1,6 km/h (1 Bft)
18.02.2026 07:46 21,5 °C 1,3 °C 46 % 91 % 1011,9 hPa 0,0 l/m² 0,5 km/h (0 Bft) W-SW 254 ° 0 min 0 W/m² -0,0 °C 1,3 °C 4,8 km/h (1 Bft)
18.02.2026 07:47 21,5 °C 1,3 °C 46 % 91 % 1011,9 hPa 0,0 l/m² 2,6 km/h (1 Bft) W 271 ° 0 min 0 W/m² -0,0 °C 1,3 °C 6,4 km/h (2 Bft)
18.02.2026 07:48 21,5 °C 1,3 °C 46 % 91 % 1011,9 hPa 0,0 l/m² 1,0 km/h (0 Bft) W 271 ° 0 min 0 W/m² -0,0 °C 1,3 °C 3,2 km/h (1 Bft)
18.02.2026 07:49 21,5 °C 1,3 °C 46 % 91 % 1011,9 hPa 0,0 l/m² 1,9 km/h (1 Bft) W 269 ° 0 min 0 W/m² -0,0 °C 1,3 °C 4,8 km/h (1 Bft)
18.02.2026 07:50 21,5 °C 1,2 °C 46 % 91 % 1011,9 hPa 0,0 l/m² 0,5 km/h (0 Bft) W 269 ° 0 min 0 W/m² -0,1 °C 1,2 °C 3,2 km/h (1 Bft)
18.02.2026 07:51 21,5 °C 1,3 °C 46 % 91 % 1011,9 hPa 0,0 l/m² 2,0 km/h (1 Bft) W 270 ° 0 min 0 W/m² -0,0 °C 1,3 °C 3,2 km/h (1 Bft)
18.02.2026 07:52 21,5 °C 1,3 °C 46 % 91 % 1011,9 hPa 0,0 l/m² 2,0 km/h (1 Bft) W 270 ° 0 min 0 W/m² -0,0 °C 1,3 °C 4,8 km/h (1 Bft)
18.02.2026 07:53 21,5 °C 1,3 °C 46 % 91 % 1012,0 hPa 0,0 l/m² 1,8 km/h (1 Bft) W 272 ° 0 min 0 W/m² -0,0 °C 1,3 °C 3,2 km/h (1 Bft)
18.02.2026 07:54 21,4 °C 1,3 °C 46 % 91 % 1012,0 hPa 0,0 l/m² 2,5 km/h (1 Bft) W 269 ° 0 min 0 W/m² -0,0 °C 1,3 °C 4,8 km/h (1 Bft)
18.02.2026 07:55 21,5 °C 1,2 °C 46 % 91 % 1011,9 hPa 0,0 l/m² 2,5 km/h (1 Bft) W 268 ° 0 min 0 W/m² -0,1 °C 1,2 °C 4,8 km/h (1 Bft)
18.02.2026 07:56 21,4 °C 1,3 °C 46 % 91 % 1012,0 hPa 0,0 l/m² 1,0 km/h (0 Bft) W 268 ° 0 min 0 W/m² -0,0 °C 1,3 °C 1,6 km/h (1 Bft)
18.02.2026 07:57 21,5 °C 1,3 °C 46 % 91 % 1012,0 hPa 0,0 l/m² 0,9 km/h (0 Bft) W 267 ° 0 min 0 W/m² -0,0 °C 1,3 °C 1,6 km/h (1 Bft)
18.02.2026 07:58 21,5 °C 1,3 °C 46 % 91 % 1012,0 hPa 0,0 l/m² 1,4 km/h (1 Bft) W 266 ° 0 min 0 W/m² -0,0 °C 1,3 °C 3,2 km/h (1 Bft)
18.02.2026 07:59 21,5 °C 1,3 °C 46 % 91 % 1012,0 hPa 0,0 l/m² 1,7 km/h (1 Bft) W 265 ° 0 min 0 W/m² -0,0 °C 1,3 °C 4,8 km/h (1 Bft)
18.02.2026 08:00 21,5 °C 1,3 °C 46 % 91 % 1012,0 hPa 0,0 l/m² 0,7 km/h (0 Bft) W 267 ° 0 min 0 W/m² -0,0 °C 1,3 °C 3,2 km/h (1 Bft)
18.02.2026 08:01 21,5 °C 1,3 °C 46 % 91 % 1012,0 hPa 0,0 l/m² 3,1 km/h (1 Bft) W 267 ° 0 min 0 W/m² -0,0 °C 1,3 °C 4,8 km/h (1 Bft)
18.02.2026 08:03 21,5 °C 1,3 °C 46 % 91 % 1012,0 hPa 0,0 l/m² 1,4 km/h (1 Bft) W 267 ° 0 min 0 W/m² -0,0 °C 1,3 °C 4,8 km/h (1 Bft)
18.02.2026 08:04 21,5 °C 1,3 °C 46 % 91 % 1012,0 hPa 0,0 l/m² 0,9 km/h (0 Bft) W 271 ° 0 min 5 W/m² -0,0 °C 1,3 °C 3,2 km/h (1 Bft)
18.02.2026 08:05 21,5 °C 1,3 °C 46 % 91 % 1012,0 hPa 0,0 l/m² 2,2 km/h (1 Bft) W 276 ° 0 min 5 W/m² -0,0 °C 1,3 °C 4,8 km/h (1 Bft)
18.02.2026 08:06 21,5 °C 1,3 °C 46 % 91 % 1012,1 hPa 0,0 l/m² 3,9 km/h (1 Bft) W-NW 290 ° 0 min 5 W/m² -0,0 °C 1,3 °C 8,0 km/h (2 Bft)
18.02.2026 08:08 21,5 °C 1,3 °C 46 % 91 % 1012,1 hPa 0,0 l/m² 3,8 km/h (1 Bft) W-NW 282 ° 0 min 7 W/m² -0,0 °C 1,3 °C 6,4 km/h (2 Bft)
18.02.2026 08:09 21,5 °C 1,3 °C 47 % 91 % 1012,1 hPa 0,0 l/m² 4,7 km/h (1 Bft) W 276 ° 0 min 7 W/m² -0,0 °C 1,3 °C 6,4 km/h (2 Bft)
18.02.2026 08:10 21,5 °C 1,3 °C 47 % 91 % 1012,1 hPa 0,0 l/m² 3,8 km/h (1 Bft) W 276 ° 0 min 7 W/m² -0,0 °C 1,3 °C 6,4 km/h (2 Bft)
18.02.2026 08:11 21,5 °C 1,3 °C 46 % 91 % 1012,1 hPa 0,0 l/m² 4,1 km/h (1 Bft) W-NW 290 ° 0 min 9 W/m² -0,0 °C 1,3 °C 6,4 km/h (2 Bft)
18.02.2026 08:12 21,5 °C 1,3 °C 47 % 91 % 1012,0 hPa 0,0 l/m² 5,1 km/h (1 Bft) W 264 ° 0 min 9 W/m² -0,0 °C 1,3 °C 9,7 km/h (2 Bft)
18.02.2026 08:13 21,5 °C 1,3 °C 47 % 91 % 1012,1 hPa 0,0 l/m² 3,5 km/h (1 Bft) W-NW 289 ° 0 min 9 W/m² -0,0 °C 1,3 °C 6,4 km/h (2 Bft)
18.02.2026 08:14 21,4 °C 1,3 °C 47 % 91 % 1012,0 hPa 0,0 l/m² 7,4 km/h (2 Bft) W 279 ° 0 min 9 W/m² -0,0 °C 0,3 °C 9,7 km/h (2 Bft)
18.02.2026 08:15 21,5 °C 1,3 °C 47 % 91 % 1012,0 hPa 0,0 l/m² 6,7 km/h (2 Bft) W 271 ° 0 min 9 W/m² -0,0 °C 1,0 °C 9,7 km/h (2 Bft)
18.02.2026 08:16 21,5 °C 1,3 °C 47 % 91 % 1012,1 hPa 0,0 l/m² 7,5 km/h (2 Bft) W 265 ° 0 min 9 W/m² -0,0 °C 0,2 °C 11,3 km/h (2 Bft)
18.02.2026 08:17 21,5 °C 1,3 °C 47 % 91 % 1012,1 hPa 0,0 l/m² 8,6 km/h (2 Bft) W 273 ° 0 min 9 W/m² -0,0 °C -0,8 °C 11,3 km/h (2 Bft)
18.02.2026 08:18 21,4 °C 1,3 °C 47 % 91 % 1012,0 hPa 0,0 l/m² 6,8 km/h (2 Bft) W 276 ° 0 min 9 W/m² -0,0 °C 0,9 °C 11,3 km/h (2 Bft)
18.02.2026 08:19 21,5 °C 1,3 °C 47 % 91 % 1012,1 hPa 0,0 l/m² 8,3 km/h (2 Bft) W-NW 290 ° 0 min 9 W/m² -0,0 °C -0,6 °C 12,9 km/h (3 Bft)
18.02.2026 08:20 21,5 °C 1,4 °C 47 % 91 % 1012,1 hPa 0,0 l/m² 6,4 km/h (2 Bft) W 265 ° 0 min 9 W/m² 0,1 °C 1,4 °C 9,7 km/h (2 Bft)
18.02.2026 08:21 21,5 °C 1,4 °C 47 % 91 % 1012,1 hPa 0,0 l/m² 6,6 km/h (2 Bft) W 269 ° 0 min 11 W/m² 0,1 °C 1,2 °C 9,7 km/h (2 Bft)
18.02.2026 08:22 21,5 °C 1,4 °C 47 % 91 % 1012,0 hPa 0,0 l/m² 4,7 km/h (1 Bft) W 268 ° 0 min 12 W/m² 0,1 °C 1,4 °C 6,4 km/h (2 Bft)
18.02.2026 08:23 21,5 °C 1,4 °C 47 % 91 % 1012,1 hPa 0,0 l/m² 1,5 km/h (1 Bft) W 268 ° 0 min 14 W/m² 0,1 °C 1,4 °C 3,2 km/h (1 Bft)
18.02.2026 08:24 21,5 °C 1,4 °C 47 % 91 % 1012,1 hPa 0,0 l/m² 4,2 km/h (1 Bft) W 269 ° 0 min 16 W/m² 0,1 °C 1,4 °C 6,4 km/h (2 Bft)
18.02.2026 08:25 21,5 °C 1,4 °C 47 % 91 % 1012,1 hPa 0,0 l/m² 2,0 km/h (1 Bft) W-SW 252 ° 0 min 18 W/m² 0,1 °C 1,4 °C 4,8 km/h (1 Bft)
18.02.2026 08:26 21,5 °C 1,4 °C 47 % 91 % 1012,1 hPa 0,0 l/m² 2,2 km/h (1 Bft) W 271 ° 0 min 18 W/m² 0,1 °C 1,4 °C 4,8 km/h (1 Bft)
18.02.2026 08:27 21,5 °C 1,4 °C 47 % 91 % 1012,2 hPa 0,0 l/m² 3,4 km/h (1 Bft) W 277 ° 0 min 18 W/m² 0,1 °C 1,4 °C 6,4 km/h (2 Bft)
18.02.2026 08:28 21,4 °C 1,4 °C 47 % 91 % 1012,1 hPa 0,0 l/m² 1,5 km/h (1 Bft) W-NW 283 ° 0 min 18 W/m² 0,1 °C 1,4 °C 4,8 km/h (1 Bft)
18.02.2026 08:29 21,4 °C 1,4 °C 47 % 91 % 1012,1 hPa 0,0 l/m² 0,2 km/h (0 Bft) W-NW 284 ° 0 min 16 W/m² 0,1 °C 1,4 °C 1,6 km/h (1 Bft)
18.02.2026 08:30 21,5 °C 1,4 °C 47 % 91 % 1012,2 hPa 0,0 l/m² 0,0 km/h (0 Bft) W-NW 284 ° 0 min 16 W/m² 0,1 °C 1,4 °C 0,0 km/h (0 Bft)
18.02.2026 08:31 21,4 °C 1,4 °C 47 % 91 % 1012,1 hPa 0,0 l/m² 0,0 km/h (0 Bft) W-NW 284 ° 0 min 19 W/m² 0,1 °C 1,4 °C 0,0 km/h (0 Bft)
18.02.2026 08:32 21,5 °C 1,4 °C 47 % 91 % 1012,2 hPa 0,0 l/m² 0,0 km/h (0 Bft) W-NW 284 ° 0 min 21 W/m² 0,1 °C 1,4 °C 0,0 km/h (0 Bft)
18.02.2026 08:33 21,5 °C 1,4 °C 47 % 91 % 1012,2 hPa 0,0 l/m² 0,0 km/h (0 Bft) W-NW 284 ° 0 min 21 W/m² 0,1 °C 1,4 °C 0,0 km/h (0 Bft)
18.02.2026 08:34 21,5 °C 1,4 °C 47 % 91 % 1012,2 hPa 0,0 l/m² 0,0 km/h (0 Bft) W-NW 288 ° 0 min 23 W/m² 0,1 °C 1,4 °C 0,0 km/h (0 Bft)
18.02.2026 08:35 21,5 °C 1,4 °C 47 % 91 % 1012,2 hPa 0,0 l/m² 0,0 km/h (0 Bft) W-NW 286 ° 0 min 25 W/m² 0,1 °C 1,4 °C 0,0 km/h (0 Bft)
18.02.2026 08:36 21,5 °C 1,5 °C 47 % 91 % 1012,1 hPa 0,0 l/m² 0,5 km/h (0 Bft) W 270 ° 0 min 33 W/m² 0,2 °C 1,5 °C 3,2 km/h (1 Bft)
18.02.2026 08:37 21,5 °C 1,5 °C 47 % 91 % 1012,1 hPa 0,0 l/m² 0,4 km/h (0 Bft) W-NW 290 ° 0 min 33 W/m² 0,2 °C 1,5 °C 1,6 km/h (1 Bft)
18.02.2026 08:38 21,5 °C 1,5 °C 47 % 91 % 1012,2 hPa 0,0 l/m² 0,0 km/h (0 Bft) W-NW 290 ° 0 min 33 W/m² 0,2 °C 1,5 °C 0,0 km/h (0 Bft)
18.02.2026 08:39 21,4 °C 1,6 °C 47 % 91 % 1012,1 hPa 0,0 l/m² 0,4 km/h (0 Bft) W-NW 294 ° 0 min 32 W/m² 0,3 °C 1,6 °C 1,6 km/h (1 Bft)
18.02.2026 08:40 21,4 °C 1,5 °C 47 % 91 % 1012,1 hPa 0,0 l/m² 0,8 km/h (0 Bft) W 281 ° 0 min 32 W/m² 0,2 °C 1,5 °C 4,8 km/h (1 Bft)
18.02.2026 08:41 21,5 °C 1,6 °C 47 % 91 % 1012,1 hPa 0,0 l/m² 0,1 km/h (0 Bft) W-NW 282 ° 0 min 30 W/m² 0,3 °C 1,6 °C 1,6 km/h (1 Bft)
18.02.2026 08:42 21,5 °C 1,6 °C 47 % 91 % 1012,2 hPa 0,0 l/m² 0,0 km/h (0 Bft) W-NW 291 ° 0 min 25 W/m² 0,3 °C 1,6 °C 0,0 km/h (0 Bft)
18.02.2026 08:43 21,5 °C 1,6 °C 47 % 91 % 1012,2 hPa 0,0 l/m² 0,5 km/h (0 Bft) W-NW 284 ° 0 min 23 W/m² 0,3 °C 1,6 °C 3,2 km/h (1 Bft)
18.02.2026 08:44 21,4 °C 1,6 °C 47 % 91 % 1012,2 hPa 0,0 l/m² 0,5 km/h (0 Bft) W-NW 286 ° 0 min 21 W/m² 0,3 °C 1,6 °C 3,2 km/h (1 Bft)
18.02.2026 08:45 21,4 °C 1,6 °C 47 % 91 % 1012,2 hPa 0,0 l/m² 1,2 km/h (1 Bft) W 265 ° 0 min 19 W/m² 0,3 °C 1,6 °C 6,4 km/h (2 Bft)
18.02.2026 08:46 21,5 °C 1,6 °C 47 % 91 % 1012,2 hPa 0,0 l/m² 6,2 km/h (2 Bft) W-NW 290 ° 0 min 19 W/m² 0,3 °C 1,6 °C 11,3 km/h (2 Bft)
18.02.2026 08:47 21,5 °C 1,6 °C 47 % 91 % 1012,2 hPa 0,0 l/m² 10,0 km/h (2 Bft) W-NW 296 ° 0 min 18 W/m² 0,3 °C -1,7 °C 14,5 km/h (3 Bft)
18.02.2026 08:48 21,5 °C 1,6 °C 47 % 91 % 1012,3 hPa 0,0 l/m² 7,8 km/h (2 Bft) W 267 ° 0 min 16 W/m² 0,3 °C 0,2 °C 16,1 km/h (3 Bft)
18.02.2026 08:49 21,5 °C 1,6 °C 47 % 91 % 1012,2 hPa 0,0 l/m² 7,7 km/h (2 Bft) W-NW 287 ° 0 min 18 W/m² 0,3 °C 0,3 °C 14,5 km/h (3 Bft)
18.02.2026 08:50 21,5 °C 1,6 °C 47 % 91 % 1012,3 hPa 0,0 l/m² 2,8 km/h (1 Bft) W-SW 252 ° 0 min 18 W/m² 0,3 °C 1,6 °C 6,4 km/h (2 Bft)
18.02.2026 08:51 21,4 °C 1,6 °C 47 % 91 % 1012,2 hPa 0,0 l/m² 0,9 km/h (0 Bft) W 278 ° 0 min 19 W/m² 0,3 °C 1,6 °C 3,2 km/h (1 Bft)
18.02.2026 08:52 21,5 °C 1,6 °C 47 % 91 % 1012,3 hPa 0,0 l/m² 2,1 km/h (1 Bft) W 269 ° 0 min 23 W/m² 0,3 °C 1,6 °C 4,8 km/h (1 Bft)
18.02.2026 08:53 21,5 °C 1,5 °C 47 % 91 % 1012,2 hPa 0,0 l/m² 1,4 km/h (1 Bft) W-NW 284 ° 0 min 23 W/m² 0,2 °C 1,5 °C 4,8 km/h (1 Bft)
18.02.2026 08:54 21,5 °C 1,5 °C 47 % 91 % 1012,2 hPa 0,0 l/m² 0,7 km/h (0 Bft) W-NW 286 ° 0 min 25 W/m² 0,2 °C 1,5 °C 3,2 km/h (1 Bft)
18.02.2026 08:55 21,4 °C 1,5 °C 47 % 91 % 1012,3 hPa 0,0 l/m² 0,2 km/h (0 Bft) W-NW 286 ° 0 min 25 W/m² 0,2 °C 1,5 °C 1,6 km/h (1 Bft)
18.02.2026 08:56 21,5 °C 1,5 °C 47 % 91 % 1012,2 hPa 0,0 l/m² 2,1 km/h (1 Bft) W 269 ° 0 min 26 W/m² 0,2 °C 1,5 °C 4,8 km/h (1 Bft)
18.02.2026 08:57 21,5 °C 1,4 °C 47 % 91 % 1012,3 hPa 0,0 l/m² 6,0 km/h (2 Bft) W 272 ° 0 min 23 W/m² 0,1 °C 1,4 °C 9,7 km/h (2 Bft)
18.02.2026 08:58 21,4 °C 1,4 °C 47 % 91 % 1012,3 hPa 0,2 l/m² 6,7 km/h (2 Bft) W 279 ° 0 min 23 W/m² 0,1 °C 1,1 °C 11,3 km/h (2 Bft)
18.02.2026 08:59 21,5 °C 1,4 °C 47 % 91 % 1012,3 hPa 0,0 l/m² 5,1 km/h (1 Bft) W 279 ° 0 min 25 W/m² 0,1 °C 1,4 °C 6,4 km/h (2 Bft)
18.02.2026 09:00 21,4 °C 1,4 °C 47 % 91 % 1012,3 hPa 0,0 l/m² 6,2 km/h (2 Bft) W 271 ° 0 min 26 W/m² 0,1 °C 1,4 °C 9,7 km/h (2 Bft)
18.02.2026 09:01 21,5 °C 1,4 °C 47 % 91 % 1012,3 hPa 0,0 l/m² 5,0 km/h (1 Bft) W 273 ° 0 min 28 W/m² 0,1 °C 1,4 °C 6,4 km/h (2 Bft)
18.02.2026 09:02 21,4 °C 1,3 °C 47 % 91 % 1012,3 hPa 0,0 l/m² 5,0 km/h (1 Bft) W 275 ° 0 min 30 W/m² -0,0 °C 1,3 °C 6,4 km/h (2 Bft)
18.02.2026 09:03 21,4 °C 1,4 °C 47 % 91 % 1012,3 hPa 0,0 l/m² 4,6 km/h (1 Bft) W 279 ° 0 min 32 W/m² 0,1 °C 1,4 °C 6,4 km/h (2 Bft)
18.02.2026 09:04 21,4 °C 1,3 °C 47 % 91 % 1012,3 hPa 0,0 l/m² 3,7 km/h (1 Bft) W-NW 282 ° 0 min 32 W/m² -0,0 °C 1,3 °C 4,8 km/h (1 Bft)
18.02.2026 09:05 21,4 °C 1,3 °C 47 % 91 % 1012,4 hPa 0,0 l/m² 3,1 km/h (1 Bft) W 273 ° 0 min 33 W/m² -0,0 °C 1,3 °C 4,8 km/h (1 Bft)
18.02.2026 09:06 21,4 °C 1,3 °C 47 % 91 % 1012,3 hPa 0,0 l/m² 2,4 km/h (1 Bft) W 275 ° 0 min 33 W/m² -0,0 °C 1,3 °C 6,4 km/h (2 Bft)
18.02.2026 09:07 21,4 °C 1,3 °C 47 % 91 % 1012,3 hPa 0,0 l/m² 7,5 km/h (2 Bft) W 281 ° 0 min 33 W/m² -0,0 °C 0,2 °C 11,3 km/h (2 Bft)
18.02.2026 09:08 21,4 °C 1,2 °C 47 % 91 % 1012,3 hPa 0,0 l/m² 4,2 km/h (1 Bft) W 279 ° 0 min 37 W/m² -0,1 °C 1,2 °C 11,3 km/h (2 Bft)
18.02.2026 09:09 21,4 °C 1,3 °C 47 % 91 % 1012,4 hPa 0,0 l/m² 5,5 km/h (2 Bft) NW 325 ° 0 min 40 W/m² -0,0 °C 1,3 °C 8,0 km/h (2 Bft)
18.02.2026 09:10 21,4 °C 1,2 °C 47 % 91 % 1012,4 hPa 0,0 l/m² 5,8 km/h (2 Bft) W 277 ° 0 min 40 W/m² -0,1 °C 1,2 °C 9,7 km/h (2 Bft)
18.02.2026 09:11 21,4 °C 1,2 °C 47 % 91 % 1012,4 hPa 0,0 l/m² 6,0 km/h (2 Bft) W 280 ° 0 min 42 W/m² -0,1 °C 1,2 °C 12,9 km/h (3 Bft)
18.02.2026 09:12 21,5 °C 1,2 °C 47 % 91 % 1012,4 hPa 0,0 l/m² 7,3 km/h (2 Bft) W 273 ° 0 min 42 W/m² -0,1 °C 0,3 °C 12,9 km/h (3 Bft)
18.02.2026 09:13 21,5 °C 1,3 °C 47 % 91 % 1012,4 hPa 0,0 l/m² 3,4 km/h (1 Bft) W 277 ° 0 min 44 W/m² -0,0 °C 1,3 °C 6,4 km/h (2 Bft)
18.02.2026 09:14 21,5 °C 1,3 °C 47 % 91 % 1012,4 hPa 0,0 l/m² 3,0 km/h (1 Bft) W 274 ° 0 min 42 W/m² -0,0 °C 1,3 °C 9,7 km/h (2 Bft)
18.02.2026 09:15 21,4 °C 1,2 °C 47 % 91 % 1012,5 hPa 0,0 l/m² 0,3 km/h (0 Bft) W 279 ° 0 min 44 W/m² -0,1 °C 1,2 °C 1,6 km/h (1 Bft)
18.02.2026 09:16 21,5 °C 1,2 °C 47 % 91 % 1012,5 hPa 0,0 l/m² 4,7 km/h (1 Bft) N-NW 327 ° 0 min 44 W/m² -0,1 °C 1,2 °C 8,0 km/h (2 Bft)
18.02.2026 09:17 21,5 °C 1,2 °C 47 % 91 % 1012,4 hPa 0,2 l/m² 3,6 km/h (1 Bft) W-NW 300 ° 0 min 49 W/m² -0,1 °C 1,2 °C 6,4 km/h (2 Bft)
18.02.2026 09:18 21,4 °C 1,3 °C 47 % 91 % 1012,5 hPa 0,0 l/m² 5,1 km/h (1 Bft) NW 309 ° 0 min 42 W/m² -0,0 °C 1,3 °C 11,3 km/h (2 Bft)
18.02.2026 09:19 21,4 °C 1,3 °C 47 % 91 % 1012,5 hPa 0,0 l/m² 4,2 km/h (1 Bft) W-NW 301 ° 0 min 37 W/m² -0,0 °C 1,3 °C 9,7 km/h (2 Bft)
18.02.2026 09:20 21,4 °C 1,3 °C 47 % 91 % 1012,5 hPa 0,0 l/m² 5,5 km/h (2 Bft) NW 311 ° 0 min 39 W/m² -0,0 °C 1,3 °C 8,0 km/h (2 Bft)
18.02.2026 09:21 21,4 °C 1,3 °C 47 % 91 % 1012,5 hPa 0,0 l/m² 2,7 km/h (1 Bft) W-NW 300 ° 0 min 42 W/m² -0,0 °C 1,3 °C 4,8 km/h (1 Bft)
18.02.2026 09:22 21,4 °C 1,3 °C 47 % 91 % 1012,4 hPa 0,0 l/m² 4,4 km/h (1 Bft) W-NW 296 ° 0 min 44 W/m² -0,0 °C 1,3 °C 6,4 km/h (2 Bft)
18.02.2026 09:23 21,4 °C 1,3 °C 47 % 91 % 1012,5 hPa 0,0 l/m² 0,6 km/h (0 Bft) W-NW 290 ° 0 min 42 W/m² -0,0 °C 1,3 °C 3,2 km/h (1 Bft)
18.02.2026 09:24 21,4 °C 1,3 °C 47 % 91 % 1012,4 hPa 0,0 l/m² 2,2 km/h (1 Bft) W-NW 296 ° 0 min 39 W/m² -0,0 °C 1,3 °C 8,0 km/h (2 Bft)
18.02.2026 09:25 21,4 °C 1,3 °C 47 % 91 % 1012,4 hPa 0,0 l/m² 1,8 km/h (1 Bft) W-NW 300 ° 0 min 39 W/m² -0,0 °C 1,3 °C 4,8 km/h (1 Bft)
18.02.2026 09:26 21,4 °C 1,3 °C 47 % 91 % 1012,5 hPa 0,0 l/m² 0,9 km/h (0 Bft) W 267 ° 0 min 39 W/m² -0,0 °C 1,3 °C 4,8 km/h (1 Bft)
18.02.2026 09:27 21,4 °C 1,3 °C 47 % 91 % 1012,6 hPa 0,0 l/m² 1,1 km/h (1 Bft) W-NW 294 ° 0 min 39 W/m² -0,0 °C 1,3 °C 3,2 km/h (1 Bft)
18.02.2026 09:28 21,4 °C 1,3 °C 47 % 91 % 1012,6 hPa 0,0 l/m² 0,9 km/h (0 Bft) NW 306 ° 0 min 39 W/m² -0,0 °C 1,3 °C 4,8 km/h (1 Bft)
18.02.2026 09:29 21,4 °C 1,3 °C 47 % 91 % 1012,6 hPa 0,0 l/m² 1,1 km/h (1 Bft) NW 308 ° 0 min 39 W/m² -0,0 °C 1,3 °C 4,8 km/h (1 Bft)
18.02.2026 09:30 21,5 °C 1,3 °C 47 % 91 % 1012,5 hPa 0,0 l/m² 1,7 km/h (1 Bft) NW 313 ° 0 min 39 W/m² -0,0 °C 1,3 °C 6,4 km/h (2 Bft)
18.02.2026 09:31 21,5 °C 1,3 °C 47 % 91 % 1012,5 hPa 0,0 l/m² 0,0 km/h (0 Bft) W 275 ° 0 min 42 W/m² -0,0 °C 1,3 °C 0,0 km/h (0 Bft)
18.02.2026 09:32 21,4 °C 1,3 °C 47 % 91 % 1012,5 hPa 0,0 l/m² 0,0 km/h (0 Bft) W 275 ° 0 min 44 W/m² -0,0 °C 1,3 °C 0,0 km/h (0 Bft)
18.02.2026 09:33 21,4 °C 1,3 °C 47 % 92 % 1012,5 hPa 0,0 l/m² 0,1 km/h (0 Bft) W 278 ° 0 min 51 W/m² 0,1 °C 1,3 °C 1,6 km/h (1 Bft)
18.02.2026 09:34 21,4 °C 1,3 °C 47 % 92 % 1012,4 hPa 0,0 l/m² 0,5 km/h (0 Bft) NW 319 ° 1 min 53 W/m² 0,1 °C 1,3 °C 3,2 km/h (1 Bft)
18.02.2026 09:35 21,4 °C 1,3 °C 47 % 92 % 1012,5 hPa 0,0 l/m² 0,8 km/h (0 Bft) W-NW 302 ° 1 min 53 W/m² 0,1 °C 1,3 °C 3,2 km/h (1 Bft)
18.02.2026 09:36 21,4 °C 1,3 °C 47 % 92 % 1012,5 hPa 0,0 l/m² 1,4 km/h (1 Bft) N-NW 332 ° 1 min 58 W/m² 0,1 °C 1,3 °C 4,8 km/h (1 Bft)
18.02.2026 09:37 21,4 °C 1,3 °C 47 % 92 % 1012,6 hPa 0,0 l/m² 1,4 km/h (1 Bft) NW 317 ° 1 min 58 W/m² 0,1 °C 1,3 °C 3,2 km/h (1 Bft)
18.02.2026 09:38 21,4 °C 1,3 °C 47 % 92 % 1012,5 hPa 0,0 l/m² 5,3 km/h (1 Bft) W-NW 299 ° 1 min 56 W/m² 0,1 °C 1,3 °C 8,0 km/h (2 Bft)
18.02.2026 09:39 21,4 °C 1,3 °C 47 % 91 % 1012,5 hPa 0,0 l/m² 3,8 km/h (1 Bft) W-NW 295 ° 1 min 56 W/m² -0,0 °C 1,3 °C 8,0 km/h (2 Bft)
18.02.2026 09:40 21,4 °C 1,3 °C 47 % 92 % 1012,6 hPa 0,0 l/m² 7,6 km/h (2 Bft) NW 318 ° 1 min 53 W/m² 0,1 °C 0,1 °C 14,5 km/h (3 Bft)
18.02.2026 09:41 21,4 °C 1,3 °C 47 % 92 % 1012,6 hPa 0,0 l/m² 2,9 km/h (1 Bft) W 274 ° 0 min 46 W/m² 0,1 °C 1,3 °C 6,4 km/h (2 Bft)
18.02.2026 09:42 21,4 °C 1,3 °C 47 % 92 % 1012,5 hPa 0,0 l/m² 1,9 km/h (1 Bft) W-NW 293 ° 0 min 44 W/m² 0,1 °C 1,3 °C 6,4 km/h (2 Bft)
18.02.2026 09:43 21,4 °C 1,3 °C 47 % 92 % 1012,6 hPa 0,0 l/m² 8,1 km/h (2 Bft) NW 313 ° 0 min 40 W/m² 0,1 °C -0,4 °C 14,5 km/h (3 Bft)
18.02.2026 09:44 21,4 °C 1,3 °C 47 % 92 % 1012,6 hPa 0,0 l/m² 3,0 km/h (1 Bft) W 275 ° 0 min 39 W/m² 0,1 °C 1,3 °C 9,7 km/h (2 Bft)
18.02.2026 09:46 21,4 °C 1,3 °C 47 % 92 % 1012,6 hPa 0,0 l/m² 6,0 km/h (2 Bft) NW 305 ° 0 min 37 W/m² 0,1 °C 1,3 °C 14,5 km/h (3 Bft)
18.02.2026 09:47 21,4 °C 1,3 °C 47 % 92 % 1012,7 hPa 0,0 l/m² 12,5 km/h (2 Bft) NW 317 ° 0 min 35 W/m² 0,1 °C -3,8 °C 17,7 km/h (3 Bft)
18.02.2026 09:48 21,4 °C 1,3 °C 47 % 92 % 1012,6 hPa 0,0 l/m² 9,1 km/h (2 Bft) NW 321 ° 0 min 32 W/m² 0,1 °C -1,3 °C 14,5 km/h (3 Bft)
18.02.2026 09:49 21,4 °C 1,3 °C 47 % 92 % 1012,6 hPa 0,0 l/m² 12,3 km/h (2 Bft) NW 304 ° 0 min 30 W/m² 0,1 °C -3,7 °C 16,1 km/h (3 Bft)
18.02.2026 09:50 21,4 °C 1,3 °C 47 % 92 % 1012,7 hPa 0,0 l/m² 12,0 km/h (2 Bft) NW 304 ° 0 min 28 W/m² 0,1 °C -3,5 °C 17,7 km/h (3 Bft)
18.02.2026 09:51 21,4 °C 1,3 °C 47 % 92 % 1012,7 hPa 0,0 l/m² 13,1 km/h (3 Bft) N-NW 335 ° 0 min 30 W/m² 0,1 °C -4,2 °C 17,7 km/h (3 Bft)
18.02.2026 09:52 21,4 °C 1,3 °C 47 % 92 % 1012,6 hPa 0,0 l/m² 12,2 km/h (2 Bft) N-NW 340 ° 0 min 32 W/m² 0,1 °C -3,6 °C 17,7 km/h (3 Bft)
18.02.2026 09:53 21,4 °C 1,3 °C 47 % 92 % 1012,7 hPa 0,0 l/m² 9,6 km/h (2 Bft) NW 306 ° 0 min 37 W/m² 0,1 °C -1,7 °C 17,7 km/h (3 Bft)
18.02.2026 09:54 21,4 °C 1,3 °C 47 % 92 % 1012,7 hPa 0,0 l/m² 8,7 km/h (2 Bft) N-NW 329 ° 0 min 37 W/m² 0,1 °C -0,9 °C 16,1 km/h (3 Bft)
18.02.2026 09:55 21,4 °C 1,3 °C 47 % 92 % 1012,7 hPa 0,0 l/m² 7,8 km/h (2 Bft) NW 319 ° 0 min 39 W/m² 0,1 °C -0,1 °C 12,9 km/h (3 Bft)
18.02.2026 09:56 21,4 °C 1,3 °C 47 % 92 % 1012,7 hPa 0,0 l/m² 7,8 km/h (2 Bft) NW 312 ° 0 min 35 W/m² 0,1 °C -0,1 °C 14,5 km/h (3 Bft)
18.02.2026 09:57 21,4 °C 1,3 °C 47 % 92 % 1012,9 hPa 0,0 l/m² 13,9 km/h (3 Bft) N-NW 331 ° 0 min 32 W/m² 0,1 °C -4,7 °C 19,3 km/h (3 Bft)
18.02.2026 09:58 21,4 °C 1,3 °C 47 % 92 % 1012,8 hPa 0,0 l/m² 10,2 km/h (2 Bft) N-NW 346 ° 0 min 32 W/m² 0,1 °C -2,2 °C 17,7 km/h (3 Bft)
18.02.2026 09:59 21,4 °C 1,3 °C 47 % 92 % 1012,9 hPa 0,0 l/m² 7,3 km/h (2 Bft) N-NW 332 ° 0 min 32 W/m² 0,1 °C 0,4 °C 12,9 km/h (3 Bft)
18.02.2026 10:00 21,4 °C 1,3 °C 47 % 92 % 1012,8 hPa 0,0 l/m² 12,0 km/h (2 Bft) N-NW 344 ° 0 min 37 W/m² 0,1 °C -3,5 °C 16,1 km/h (3 Bft)
18.02.2026 10:01 21,4 °C 1,2 °C 47 % 92 % 1013,0 hPa 0,0 l/m² 12,5 km/h (2 Bft) N-NW 329 ° 0 min 40 W/m² 0,0 °C -4,0 °C 17,7 km/h (3 Bft)
18.02.2026 10:03 21,4 °C 1,2 °C 47 % 92 % 1012,9 hPa 0,0 l/m² 10,5 km/h (2 Bft) N-NW 346 ° 2 min 54 W/m² 0,0 °C -2,5 °C 17,7 km/h (3 Bft)
18.02.2026 10:04 21,4 °C 1,2 °C 47 % 92 % 1012,9 hPa 0,0 l/m² 5,8 km/h (2 Bft) N 355 ° 1 min 72 W/m² 0,0 °C 1,2 °C 8,0 km/h (2 Bft)
18.02.2026 10:05 21,4 °C 1,2 °C 47 % 92 % 1012,9 hPa 0,0 l/m² 7,0 km/h (2 Bft) N 355 ° 1 min 84 W/m² 0,0 °C 0,6 °C 9,7 km/h (2 Bft)
18.02.2026 10:06 21,4 °C 1,2 °C 47 % 91 % 1012,9 hPa 0,0 l/m² 8,2 km/h (2 Bft) N-NW 344 ° 1 min 98 W/m² -0,1 °C -0,6 °C 16,1 km/h (3 Bft)
18.02.2026 10:08 21,4 °C 1,1 °C 47 % 92 % 1013,1 hPa 0,0 l/m² 8,5 km/h (2 Bft) N-NW 331 ° 2 min 104 W/m² -0,1 °C -1,0 °C 14,5 km/h (3 Bft)
18.02.2026 10:09 21,4 °C 1,1 °C 47 % 92 % 1013,0 hPa 0,0 l/m² 9,7 km/h (2 Bft) N-NW 336 ° 1 min 91 W/m² -0,1 °C -2,0 °C 14,5 km/h (3 Bft)
18.02.2026 10:10 21,4 °C 1,1 °C 47 % 92 % 1013,0 hPa 0,0 l/m² 13,7 km/h (3 Bft) N-NW 336 ° 1 min 93 W/m² -0,1 °C -4,9 °C 16,1 km/h (3 Bft)
18.02.2026 10:11 21,4 °C 1,1 °C 47 % 92 % 1013,0 hPa 0,0 l/m² 12,9 km/h (3 Bft) N-NW 337 ° 1 min 97 W/m² -0,1 °C -4,3 °C 16,1 km/h (3 Bft)
18.02.2026 10:12 21,4 °C 1,1 °C 47 % 92 % 1013,0 hPa 0,0 l/m² 9,7 km/h (2 Bft) N-NW 337 ° 1 min 95 W/m² -0,1 °C -2,0 °C 14,5 km/h (3 Bft)
18.02.2026 10:17 21,4 °C 1,1 °C 47 % 92 % 1013,0 hPa 0,0 l/m² 8,9 km/h (2 Bft) N-NO 26 ° 5 min 158 W/m² -0,1 °C -1,3 °C 14,5 km/h (3 Bft)
18.02.2026 10:19 21,4 °C 1,1 °C 47 % 92 % 1012,9 hPa 0,0 l/m² 7,1 km/h (2 Bft) N-NW 337 ° 2 min 137 W/m² -0,1 °C 0,4 °C 14,5 km/h (3 Bft)
18.02.2026 10:20 21,4 °C 1,1 °C 47 % 92 % 1013,1 hPa 0,0 l/m² 8,3 km/h (2 Bft) N 360 ° 1 min 137 W/m² -0,1 °C -0,8 °C 14,5 km/h (3 Bft)
18.02.2026 10:22 21,4 °C 1,1 °C 47 % 92 % 1013,1 hPa 0,0 l/m² 7,9 km/h (2 Bft) NW 317 ° 2 min 121 W/m² -0,1 °C -0,4 °C 14,5 km/h (3 Bft)
18.02.2026 10:23 21,4 °C 1,0 °C 47 % 92 % 1013,1 hPa 0,0 l/m² 4,7 km/h (1 Bft) N-NW 340 ° 1 min 120 W/m² -0,2 °C 1,0 °C 12,9 km/h (3 Bft)
18.02.2026 10:25 21,4 °C 1,1 °C 47 % 92 % 1013,1 hPa 0,0 l/m² 12,2 km/h (2 Bft) N 5 ° 2 min 137 W/m² -0,1 °C -3,9 °C 16,1 km/h (3 Bft)
18.02.2026 10:26 21,4 °C 1,1 °C 47 % 92 % 1013,1 hPa 0,0 l/m² 10,6 km/h (2 Bft) N-NO 22 ° 1 min 142 W/m² -0,1 °C -2,7 °C 16,1 km/h (3 Bft)
18.02.2026 10:28 21,4 °C 1,0 °C 47 % 92 % 1013,1 hPa 0,0 l/m² 10,4 km/h (2 Bft) N 351 ° 2 min 153 W/m² -0,2 °C -2,7 °C 19,3 km/h (3 Bft)
18.02.2026 10:30 21,5 °C 1,0 °C 47 % 92 % 1013,2 hPa 0,0 l/m² 3,9 km/h (1 Bft) N 10 ° 2 min 151 W/m² -0,2 °C 1,0 °C 11,3 km/h (2 Bft)
18.02.2026 10:31 21,4 °C 1,0 °C 47 % 92 % 1013,1 hPa 0,0 l/m² 4,9 km/h (1 Bft) N-NO 32 ° 1 min 146 W/m² -0,2 °C 1,0 °C 6,4 km/h (2 Bft)
18.02.2026 10:32 21,5 °C 1,1 °C 47 % 92 % 1013,2 hPa 0,0 l/m² 9,8 km/h (2 Bft) N 360 ° 1 min 137 W/m² -0,1 °C -2,1 °C 14,5 km/h (3 Bft)
18.02.2026 10:34 21,5 °C 1,1 °C 47 % 92 % 1013,1 hPa 0,0 l/m² 6,1 km/h (2 Bft) NO 52 ° 2 min 134 W/m² -0,1 °C 1,1 °C 12,9 km/h (3 Bft)
18.02.2026 10:36 21,5 °C 1,1 °C 47 % 92 % 1013,1 hPa 0,0 l/m² 5,9 km/h (2 Bft) N-NW 346 ° 2 min 135 W/m² -0,1 °C 1,1 °C 9,7 km/h (2 Bft)
18.02.2026 10:38 21,5 °C 1,1 °C 47 % 92 % 1013,1 hPa 0,0 l/m² 6,5 km/h (2 Bft) N-NW 327 ° 2 min 118 W/m² -0,1 °C 1,0 °C 12,9 km/h (3 Bft)
18.02.2026 10:40 21,5 °C 1,1 °C 47 % 92 % 1013,2 hPa 0,0 l/m² 8,5 km/h (2 Bft) N 5 ° 2 min 121 W/m² -0,1 °C -1,0 °C 14,5 km/h (3 Bft)
18.02.2026 10:41 21,5 °C 1,1 °C 47 % 92 % 1013,2 hPa 0,0 l/m² 9,2 km/h (2 Bft) N-NW 333 ° 1 min 111 W/m² -0,1 °C -1,6 °C 16,1 km/h (3 Bft)
18.02.2026 10:42 21,5 °C 1,1 °C 47 % 92 % 1013,2 hPa 0,0 l/m² 11,1 km/h (2 Bft) N-NW 335 ° 1 min 104 W/m² -0,1 °C -3,1 °C 16,1 km/h (3 Bft)
18.02.2026 10:44 21,5 °C 1,1 °C 47 % 92 % 1013,2 hPa 0,0 l/m² 8,1 km/h (2 Bft) N-NW 347 ° 2 min 97 W/m² -0,1 °C -0,6 °C 17,7 km/h (3 Bft)
18.02.2026 10:46 21,5 °C 1,0 °C 47 % 92 % 1013,3 hPa 0,0 l/m² 7,3 km/h (2 Bft) N 360 ° 2 min 74 W/m² -0,2 °C 0,1 °C 14,5 km/h (3 Bft)
18.02.2026 10:48 21,5 °C 1,0 °C 47 % 92 % 1013,3 hPa 0,0 l/m² 11,8 km/h (2 Bft) N 360 ° 2 min 76 W/m² -0,2 °C -3,7 °C 19,3 km/h (3 Bft)
18.02.2026 10:50 21,5 °C 1,0 °C 47 % 92 % 1013,2 hPa 0,0 l/m² 7,3 km/h (2 Bft) N 360 ° 2 min 116 W/m² -0,2 °C 0,1 °C 14,5 km/h (3 Bft)
18.02.2026 10:51 21,5 °C 1,0 °C 47 % 92 % 1013,3 hPa 0,0 l/m² 11,5 km/h (2 Bft) N-NW 340 ° 1 min 220 W/m² -0,2 °C -3,5 °C 16,1 km/h (3 Bft)
18.02.2026 10:52 21,5 °C 0,9 °C 47 % 92 % 1013,3 hPa 0,0 l/m² 12,0 km/h (2 Bft) N 5 ° 1 min 227 W/m² -0,2 °C -4,0 °C 16,1 km/h (3 Bft)
18.02.2026 10:54 21,5 °C 1,0 °C 47 % 92 % 1013,3 hPa 0,0 l/m² 8,4 km/h (2 Bft) NW 326 ° 2 min 116 W/m² -0,2 °C -1,0 °C 16,1 km/h (3 Bft)
18.02.2026 10:56 21,5 °C 0,9 °C 47 % 92 % 1013,4 hPa 0,0 l/m² 6,6 km/h (2 Bft) N-NW 332 ° 2 min 88 W/m² -0,2 °C 0,7 °C 12,9 km/h (3 Bft)
18.02.2026 10:58 21,6 °C 0,9 °C 47 % 92 % 1013,4 hPa 0,0 l/m² 12,7 km/h (3 Bft) NW 325 ° 2 min 105 W/m² -0,2 °C -4,4 °C 17,7 km/h (3 Bft)
18.02.2026 11:00 21,5 °C 0,9 °C 47 % 92 % 1013,6 hPa 0,0 l/m² 10,4 km/h (2 Bft) N-NW 340 ° 2 min 70 W/m² -0,2 °C -2,8 °C 19,3 km/h (3 Bft)
18.02.2026 11:01 21,5 °C 0,9 °C 47 % 91 % 1013,5 hPa 0,0 l/m² 7,7 km/h (2 Bft) N-NW 327 ° 1 min 65 W/m² -0,4 °C -0,4 °C 12,9 km/h (3 Bft)
18.02.2026 11:02 21,5 °C 0,9 °C 47 % 91 % 1013,5 hPa 0,0 l/m² 11,0 km/h (2 Bft) N-NO 26 ° 1 min 79 W/m² -0,4 °C -3,2 °C 14,5 km/h (3 Bft)
18.02.2026 11:04 21,5 °C 0,9 °C 47 % 91 % 1013,6 hPa 0,0 l/m² 6,4 km/h (2 Bft) N-NW 342 ° 2 min 86 W/m² -0,4 °C 0,9 °C 12,9 km/h (3 Bft)
18.02.2026 11:05 21,5 °C 0,9 °C 47 % 91 % 1013,6 hPa 0,0 l/m² 5,3 km/h (1 Bft) NW 325 ° 1 min 81 W/m² -0,4 °C 0,9 °C 8,0 km/h (2 Bft)
18.02.2026 11:07 21,6 °C 0,8 °C 47 % 91 % 1013,6 hPa 0,0 l/m² 5,0 km/h (1 Bft) N-NW 347 ° 2 min 72 W/m² -0,5 °C 0,8 °C 12,9 km/h (3 Bft)
18.02.2026 11:09 21,6 °C 0,8 °C 47 % 91 % 1013,7 hPa 0,0 l/m² 7,9 km/h (2 Bft) N-NW 342 ° 0 min 49 W/m² -0,5 °C -0,7 °C 14,5 km/h (3 Bft)
18.02.2026 11:10 21,5 °C 0,9 °C 47 % 91 % 1013,6 hPa 0,0 l/m² 6,7 km/h (2 Bft) N-NW 327 ° 0 min 47 W/m² -0,4 °C 0,6 °C 12,9 km/h (3 Bft)
18.02.2026 11:12 21,5 °C 0,8 °C 47 % 91 % 1013,7 hPa 0,0 l/m² 7,3 km/h (2 Bft) N-NW 333 ° 2 min 54 W/m² -0,5 °C -0,1 °C 14,5 km/h (3 Bft)
18.02.2026 11:13 21,6 °C 0,8 °C 47 % 91 % 1013,7 hPa 0,0 l/m² 4,6 km/h (1 Bft) N 351 ° 1 min 65 W/m² -0,5 °C 0,8 °C 8,0 km/h (2 Bft)
18.02.2026 11:15 21,5 °C 0,8 °C 47 % 91 % 1013,7 hPa 0,0 l/m² 5,6 km/h (2 Bft) N-NO 19 ° 2 min 107 W/m² -0,5 °C 0,8 °C 9,7 km/h (2 Bft)
18.02.2026 11:17 21,5 °C 0,8 °C 47 % 91 % 1013,6 hPa 0,0 l/m² 3,4 km/h (1 Bft) N-NW 344 ° 2 min 121 W/m² -0,5 °C 0,8 °C 8,0 km/h (2 Bft)
18.02.2026 11:19 21,5 °C 0,8 °C 47 % 91 % 1013,7 hPa 0,0 l/m² 3,2 km/h (1 Bft) NW 325 ° 2 min 125 W/m² -0,5 °C 0,8 °C 6,4 km/h (2 Bft)
18.02.2026 11:20 21,6 °C 0,8 °C 47 % 91 % 1013,7 hPa 0,0 l/m² 1,1 km/h (1 Bft) W-NW 303 ° 1 min 132 W/m² -0,5 °C 0,8 °C 4,8 km/h (1 Bft)
18.02.2026 11:22 21,6 °C 0,8 °C 47 % 91 % 1013,7 hPa 0,0 l/m² 1,6 km/h (1 Bft) NW 319 ° 2 min 116 W/m² -0,5 °C 0,8 °C 6,4 km/h (2 Bft)
18.02.2026 11:23 21,6 °C 0,8 °C 47 % 91 % 1013,7 hPa 0,0 l/m² 6,2 km/h (2 Bft) N-NW 340 ° 1 min 109 W/m² -0,5 °C 0,8 °C 9,7 km/h (2 Bft)
18.02.2026 11:25 21,5 °C 0,8 °C 47 % 91 % 1013,7 hPa 0,0 l/m² 2,6 km/h (1 Bft) NW 315 ° 2 min 97 W/m² -0,5 °C 0,8 °C 8,0 km/h (2 Bft)
18.02.2026 11:27 21,5 °C 0,9 °C 47 % 91 % 1013,8 hPa 0,0 l/m² 2,5 km/h (1 Bft) N-NW 331 ° 2 min 83 W/m² -0,4 °C 0,9 °C 6,4 km/h (2 Bft)
18.02.2026 11:29 21,6 °C 0,9 °C 47 % 91 % 1013,8 hPa 0,0 l/m² 5,4 km/h (2 Bft) NW 323 ° 2 min 54 W/m² -0,4 °C 0,9 °C 8,0 km/h (2 Bft)
18.02.2026 11:30 21,6 °C 0,9 °C 47 % 91 % 1013,9 hPa 0,0 l/m² 5,8 km/h (2 Bft) N 355 ° 0 min 47 W/m² -0,4 °C 0,9 °C 9,7 km/h (2 Bft)
18.02.2026 11:32 21,5 °C 0,9 °C 47 % 91 % 1013,9 hPa 0,0 l/m² 4,0 km/h (1 Bft) N 355 ° 0 min 51 W/m² -0,4 °C 0,9 °C 8,0 km/h (2 Bft)
18.02.2026 11:33 21,6 °C 0,9 °C 47 % 91 % 1013,8 hPa 0,0 l/m² 2,1 km/h (1 Bft) N-NO 14 ° 1 min 60 W/m² -0,4 °C 0,9 °C 4,8 km/h (1 Bft)
18.02.2026 11:35 21,5 °C 0,9 °C 47 % 91 % 1013,9 hPa 0,0 l/m² 0,2 km/h (0 Bft) N 5 ° 2 min 79 W/m² -0,4 °C 0,9 °C 1,6 km/h (1 Bft)
18.02.2026 11:37 21,5 °C 0,9 °C 47 % 91 % 1013,9 hPa 0,0 l/m² 0,0 km/h (0 Bft) N 5 ° 2 min 83 W/m² -0,4 °C 0,9 °C 0,0 km/h (0 Bft)
18.02.2026 11:39 21,6 °C 0,9 °C 47 % 91 % 1013,9 hPa 0,0 l/m² 0,3 km/h (0 Bft) N-NW 334 ° 2 min 76 W/m² -0,4 °C 0,9 °C 3,2 km/h (1 Bft)
18.02.2026 11:40 21,5 °C 0,9 °C 47 % 91 % 1013,9 hPa 0,0 l/m² 1,3 km/h (1 Bft) N 5 ° 1 min 81 W/m² -0,4 °C 0,9 °C 4,8 km/h (1 Bft)
18.02.2026 11:41 21,5 °C 0,9 °C 47 % 91 % 1013,9 hPa 0,0 l/m² 0,0 km/h (0 Bft) N 5 ° 1 min 86 W/m² -0,4 °C 0,9 °C 0,0 km/h (0 Bft)
18.02.2026 11:42 21,5 °C 0,9 °C 47 % 91 % 1014,0 hPa 0,0 l/m² 0,0 km/h (0 Bft) N 5 ° 1 min 86 W/m² -0,4 °C 0,9 °C 0,0 km/h (0 Bft)
18.02.2026 11:45 21,5 °C 0,9 °C 47 % 91 % 1014,0 hPa 0,0 l/m² 0,9 km/h (0 Bft) NO 38 ° 3 min 58 W/m² -0,4 °C 0,9 °C 4,8 km/h (1 Bft)
18.02.2026 11:47 21,5 °C 0,9 °C 47 % 91 % 1014,0 hPa 0,0 l/m² 1,7 km/h (1 Bft) N-NO 20 ° 2 min 53 W/m² -0,4 °C 0,9 °C 4,8 km/h (1 Bft)
18.02.2026 11:49 21,6 °C 0,9 °C 47 % 91 % 1014,0 hPa 0,0 l/m² 1,6 km/h (1 Bft) N 11 ° 0 min 47 W/m² -0,4 °C 0,9 °C 6,4 km/h (2 Bft)
18.02.2026 11:50 21,5 °C 1,0 °C 47 % 91 % 1014,0 hPa 0,0 l/m² 1,6 km/h (1 Bft) N 5 ° 1 min 53 W/m² -0,3 °C 1,0 °C 4,8 km/h (1 Bft)
18.02.2026 11:52 21,5 °C 0,9 °C 47 % 91 % 1014,0 hPa 0,0 l/m² 1,3 km/h (1 Bft) N 355 ° 2 min 62 W/m² -0,4 °C 0,9 °C 4,8 km/h (1 Bft)
18.02.2026 11:53 21,5 °C 1,0 °C 47 % 91 % 1014,0 hPa 0,0 l/m² 2,4 km/h (1 Bft) N 355 ° 1 min 62 W/m² -0,3 °C 1,0 °C 4,8 km/h (1 Bft)
18.02.2026 11:55 21,5 °C 1,0 °C 47 % 91 % 1014,0 hPa 0,0 l/m² 4,2 km/h (1 Bft) N-NW 338 ° 2 min 53 W/m² -0,3 °C 1,0 °C 8,0 km/h (2 Bft)
18.02.2026 11:57 21,6 °C 1,0 °C 47 % 91 % 1014,0 hPa 0,0 l/m² 2,4 km/h (1 Bft) W-NW 289 ° 2 min 54 W/m² -0,3 °C 1,0 °C 4,8 km/h (1 Bft)
18.02.2026 11:59 21,6 °C 0,9 °C 47 % 90 % 1014,0 hPa 0,0 l/m² 1,4 km/h (1 Bft) N-NW 335 ° 0 min 49 W/m² -0,6 °C 0,9 °C 4,8 km/h (1 Bft)
18.02.2026 12:00 21,6 °C 1,0 °C 47 % 91 % 1014,1 hPa 0,0 l/m² 1,6 km/h (1 Bft) N-NW 337 ° 0 min 47 W/m² -0,3 °C 1,0 °C 3,2 km/h (1 Bft)
18.02.2026 12:01 21,4 °C 1,0 °C 47 % 90 % 1014,0 hPa 0,0 l/m² 0,0 km/h (0 Bft) N 360 ° 0 min 46 W/m² -0,5 °C 1,0 °C 1,6 km/h (1 Bft)
18.02.2026 12:06 21,5 °C 1,0 °C 47 % 91 % 1013,9 hPa 0,0 l/m² 1,3 km/h (1 Bft) NW 323 ° 0 min 49 W/m² -0,3 °C 1,0 °C 3,2 km/h (1 Bft)
18.02.2026 12:08 21,5 °C 1,0 °C 47 % 91 % 1014,0 hPa 0,0 l/m² 2,7 km/h (1 Bft) N-NW 340 ° 0 min 51 W/m² -0,3 °C 1,0 °C 6,4 km/h (2 Bft)
18.02.2026 12:09 21,4 °C 1,0 °C 47 % 91 % 1013,9 hPa 0,0 l/m² 4,7 km/h (1 Bft) N-NW 340 ° 0 min 51 W/m² -0,3 °C 1,0 °C 6,4 km/h (2 Bft)
18.02.2026 12:11 21,4 °C 1,0 °C 47 % 90 % 1014,0 hPa 0,0 l/m² 3,5 km/h (1 Bft) N-NW 347 ° 2 min 56 W/m² -0,5 °C 1,0 °C 8,0 km/h (2 Bft)
18.02.2026 12:13 21,5 °C 1,0 °C 47 % 90 % 1014,0 hPa 0,0 l/m² 5,2 km/h (1 Bft) N-NW 338 ° 2 min 65 W/m² -0,5 °C 1,0 °C 8,0 km/h (2 Bft)
18.02.2026 12:14 21,5 °C 1,0 °C 47 % 90 % 1013,9 hPa 0,0 l/m² 5,2 km/h (1 Bft) NW 317 ° 1 min 63 W/m² -0,5 °C 1,0 °C 6,4 km/h (2 Bft)
18.02.2026 12:16 21,5 °C 1,0 °C 47 % 90 % 1014,0 hPa 0,0 l/m² 4,6 km/h (1 Bft) NW 326 ° 2 min 60 W/m² -0,5 °C 1,0 °C 8,0 km/h (2 Bft)
18.02.2026 12:17 21,5 °C 1,0 °C 47 % 90 % 1014,0 hPa 0,0 l/m² 4,6 km/h (1 Bft) N-NW 332 ° 1 min 58 W/m² -0,5 °C 1,0 °C 6,4 km/h (2 Bft)
18.02.2026 12:19 21,4 °C 1,0 °C 47 % 90 % 1014,0 hPa 0,0 l/m² 8,7 km/h (2 Bft) N-NW 336 ° 2 min 63 W/m² -0,5 °C -1,2 °C 14,5 km/h (3 Bft)
18.02.2026 12:21 21,5 °C 1,0 °C 47 % 90 % 1014,0 hPa 0,0 l/m² 9,7 km/h (2 Bft) N-NW 329 ° 2 min 63 W/m² -0,5 °C -2,1 °C 14,5 km/h (3 Bft)
18.02.2026 12:22 21,4 °C 0,9 °C 47 % 90 % 1014,0 hPa 0,0 l/m² 9,8 km/h (2 Bft) N-NW 337 ° 1 min 60 W/m² -0,6 °C -2,3 °C 14,5 km/h (3 Bft)
18.02.2026 12:23 21,4 °C 0,9 °C 47 % 90 % 1014,0 hPa 0,0 l/m² 5,6 km/h (2 Bft) N 5 ° 1 min 56 W/m² -0,6 °C 0,9 °C 8,0 km/h (2 Bft)
18.02.2026 12:25 21,4 °C 0,9 °C 47 % 90 % 1014,0 hPa 0,0 l/m² 7,3 km/h (2 Bft) N-NW 330 ° 2 min 56 W/m² -0,6 °C -0,0 °C 12,9 km/h (3 Bft)
18.02.2026 12:26 21,5 °C 0,9 °C 47 % 90 % 1014,0 hPa 0,0 l/m² 7,6 km/h (2 Bft) N-NW 337 ° 1 min 60 W/m² -0,6 °C -0,3 °C 12,9 km/h (3 Bft)
18.02.2026 12:27 21,4 °C 0,9 °C 47 % 90 % 1013,9 hPa 0,0 l/m² 11,7 km/h (2 Bft) N 5 ° 1 min 62 W/m² -0,6 °C -3,8 °C 16,1 km/h (3 Bft)
18.02.2026 12:28 21,4 °C 0,9 °C 47 % 90 % 1013,9 hPa 0,0 l/m² 11,3 km/h (2 Bft) N 355 ° 1 min 58 W/m² -0,6 °C -3,5 °C 14,5 km/h (3 Bft)
18.02.2026 12:30 21,5 °C 0,9 °C 47 % 90 % 1014,0 hPa 0,0 l/m² 9,4 km/h (2 Bft) N-NW 338 ° 2 min 56 W/m² -0,6 °C -2,0 °C 16,1 km/h (3 Bft)
18.02.2026 12:33 21,5 °C 0,8 °C 47 % 90 % 1014,0 hPa 0,0 l/m² 6,0 km/h (2 Bft) N-NW 335 ° 0 min 47 W/m² -0,6 °C 0,8 °C 12,9 km/h (3 Bft)
18.02.2026 12:35 21,4 °C 0,8 °C 47 % 90 % 1014,0 hPa 0,0 l/m² 6,0 km/h (2 Bft) N-NW 342 ° 0 min 39 W/m² -0,6 °C 0,8 °C 11,3 km/h (2 Bft)
18.02.2026 12:37 21,4 °C 0,8 °C 47 % 90 % 1014,0 hPa 0,0 l/m² 9,5 km/h (2 Bft) N-NW 339 ° 0 min 35 W/m² -0,6 °C -2,2 °C 16,1 km/h (3 Bft)
18.02.2026 12:39 21,4 °C 0,8 °C 47 % 90 % 1014,0 hPa 0,0 l/m² 8,8 km/h (2 Bft) N-NW 340 ° 0 min 39 W/m² -0,6 °C -1,5 °C 14,5 km/h (3 Bft)
18.02.2026 12:41 21,4 °C 0,8 °C 47 % 90 % 1014,1 hPa 0,0 l/m² 9,8 km/h (2 Bft) N 355 ° 0 min 35 W/m² -0,6 °C -2,4 °C 16,1 km/h (3 Bft)
18.02.2026 12:42 21,4 °C 0,8 °C 47 % 90 % 1014,1 hPa 0,0 l/m² 6,7 km/h (2 Bft) N-NW 348 ° 0 min 33 W/m² -0,6 °C 0,5 °C 12,9 km/h (3 Bft)
18.02.2026 12:43 21,4 °C 0,8 °C 47 % 90 % 1014,1 hPa 0,0 l/m² 8,8 km/h (2 Bft) N-NW 344 ° 0 min 33 W/m² -0,6 °C -1,5 °C 14,5 km/h (3 Bft)
18.02.2026 12:46 21,4 °C 0,7 °C 47 % 90 % 1014,1 hPa 0,0 l/m² 9,4 km/h (2 Bft) NW 315 ° 0 min 33 W/m² -0,7 °C -2,2 °C 14,5 km/h (3 Bft)
18.02.2026 12:48 21,4 °C 0,7 °C 47 % 89 % 1014,1 hPa 0,0 l/m² 7,7 km/h (2 Bft) N-NO 12 ° 0 min 37 W/m² -0,9 °C -0,6 °C 14,5 km/h (3 Bft)
18.02.2026 12:50 21,4 °C 0,7 °C 47 % 90 % 1014,1 hPa 0,0 l/m² 8,2 km/h (2 Bft) N 5 ° 0 min 44 W/m² -0,7 °C -1,1 °C 17,7 km/h (3 Bft)
18.02.2026 12:53 21,4 °C 0,6 °C 47 % 89 % 1014,1 hPa 0,0 l/m² 8,6 km/h (2 Bft) N 5 ° 0 min 40 W/m² -1,0 °C -1,6 °C 19,3 km/h (3 Bft)
18.02.2026 12:55 21,4 °C 0,6 °C 47 % 89 % 1014,1 hPa 0,0 l/m² 11,8 km/h (2 Bft) N-NW 342 ° 0 min 40 W/m² -1,0 °C -4,2 °C 17,7 km/h (3 Bft)
18.02.2026 12:57 21,4 °C 0,6 °C 47 % 89 % 1014,2 hPa 0,0 l/m² 11,9 km/h (2 Bft) N-NO 16 ° 0 min 44 W/m² -1,0 °C -4,2 °C 17,7 km/h (3 Bft)
18.02.2026 12:59 21,4 °C 0,5 °C 47 % 89 % 1014,2 hPa 0,0 l/m² 9,4 km/h (2 Bft) N-NO 18 ° 0 min 51 W/m² -1,1 °C -2,4 °C 14,5 km/h (3 Bft)
18.02.2026 13:01 21,4 °C 0,4 °C 47 % 89 % 1014,2 hPa 0,0 l/m² 7,0 km/h (2 Bft) N-NW 344 ° 0 min 47 W/m² -1,2 °C -0,2 °C 12,9 km/h (3 Bft)
18.02.2026 13:02 21,4 °C 0,4 °C 47 % 89 % 1014,2 hPa 0,0 l/m² 9,1 km/h (2 Bft) NW 325 ° 0 min 49 W/m² -1,2 °C -2,2 °C 14,5 km/h (3 Bft)
18.02.2026 13:03 21,4 °C 0,4 °C 47 % 89 % 1014,2 hPa 0,0 l/m² 8,6 km/h (2 Bft) N 350 ° 1 min 53 W/m² -1,2 °C -1,8 °C 14,5 km/h (3 Bft)
18.02.2026 13:05 21,4 °C 0,4 °C 47 % 89 % 1014,2 hPa 0,0 l/m² 7,9 km/h (2 Bft) N 351 ° 0 min 47 W/m² -1,2 °C -1,1 °C 14,5 km/h (3 Bft)
18.02.2026 13:07 21,4 °C 0,4 °C 47 % 89 % 1014,2 hPa 0,0 l/m² 6,0 km/h (2 Bft) N-NW 337 ° 0 min 37 W/m² -1,2 °C 0,4 °C 12,9 km/h (3 Bft)
18.02.2026 13:09 21,4 °C 0,3 °C 47 % 89 % 1014,2 hPa 0,0 l/m² 4,6 km/h (1 Bft) N-NW 335 ° 0 min 33 W/m² -1,3 °C 0,3 °C 6,4 km/h (2 Bft)
18.02.2026 13:11 21,4 °C 0,3 °C 47 % 89 % 1014,3 hPa 0,0 l/m² 3,9 km/h (1 Bft) N-NW 338 ° 0 min 42 W/m² -1,3 °C 0,3 °C 16,1 km/h (3 Bft)
18.02.2026 13:12 21,4 °C 0,3 °C 47 % 89 % 1014,3 hPa 0,0 l/m² 12,1 km/h (2 Bft) N 5 ° 0 min 42 W/m² -1,3 °C -4,7 °C 16,1 km/h (3 Bft)
18.02.2026 13:13 21,4 °C 0,3 °C 47 % 89 % 1014,3 hPa 0,0 l/m² 6,6 km/h (2 Bft) NW 317 ° 0 min 42 W/m² -1,3 °C 0,1 °C 12,9 km/h (3 Bft)
18.02.2026 13:15 21,4 °C 0,3 °C 47 % 89 % 1014,3 hPa 0,0 l/m² 6,5 km/h (2 Bft) N-NW 347 ° 0 min 42 W/m² -1,3 °C 0,2 °C 12,9 km/h (3 Bft)
18.02.2026 13:16 21,4 °C 0,3 °C 47 % 89 % 1014,4 hPa 0,0 l/m² 6,8 km/h (2 Bft) N 355 ° 0 min 42 W/m² -1,3 °C -0,1 °C 12,9 km/h (3 Bft)
18.02.2026 13:17 21,4 °C 0,3 °C 47 % 89 % 1014,3 hPa 0,0 l/m² 4,9 km/h (1 Bft) N-NW 340 ° 0 min 47 W/m² -1,3 °C 0,3 °C 8,0 km/h (2 Bft)
18.02.2026 13:18 21,4 °C 0,3 °C 47 % 90 % 1014,3 hPa 0,0 l/m² 5,7 km/h (2 Bft) N-NW 337 ° 1 min 53 W/m² -1,1 °C 0,3 °C 8,0 km/h (2 Bft)
18.02.2026 13:20 21,4 °C 0,3 °C 47 % 90 % 1014,4 hPa 0,0 l/m² 6,8 km/h (2 Bft) N 355 ° 2 min 60 W/m² -1,1 °C -0,1 °C 9,7 km/h (2 Bft)
18.02.2026 13:22 21,4 °C 0,3 °C 47 % 90 % 1014,3 hPa 0,0 l/m² 6,5 km/h (2 Bft) N 355 ° 2 min 54 W/m² -1,1 °C 0,2 °C 14,5 km/h (3 Bft)
18.02.2026 13:23 21,4 °C 0,2 °C 47 % 89 % 1014,3 hPa 0,0 l/m² 9,9 km/h (2 Bft) NW 315 ° 1 min 60 W/m² -1,4 °C -3,1 °C 12,9 km/h (3 Bft)
18.02.2026 13:24 21,4 °C 0,2 °C 47 % 89 % 1014,3 hPa 0,0 l/m² 5,4 km/h (2 Bft) N-NW 334 ° 1 min 58 W/m² -1,4 °C 0,2 °C 9,7 km/h (2 Bft)
18.02.2026 13:26 21,4 °C 0,2 °C 47 % 89 % 1014,3 hPa 0,0 l/m² 8,0 km/h (2 Bft) N-NW 329 ° 2 min 53 W/m² -1,4 °C -1,4 °C 14,5 km/h (3 Bft)
18.02.2026 13:28 21,4 °C 0,2 °C 47 % 89 % 1014,4 hPa 0,0 l/m² 6,7 km/h (2 Bft) N 349 ° 2 min 54 W/m² -1,4 °C -0,1 °C 12,9 km/h (3 Bft)
18.02.2026 13:30 21,4 °C 0,2 °C 47 % 89 % 1014,3 hPa 0,0 l/m² 8,6 km/h (2 Bft) N-NW 348 ° 2 min 54 W/m² -1,4 °C -2,0 °C 16,1 km/h (3 Bft)
18.02.2026 13:33 21,4 °C 0,1 °C 47 % 89 % 1014,3 hPa 0,0 l/m² 6,7 km/h (2 Bft) N 5 ° 3 min 53 W/m² -1,5 °C -0,2 °C 16,1 km/h (3 Bft)
18.02.2026 13:35 21,4 °C 0,1 °C 47 % 89 % 1014,3 hPa 0,0 l/m² 9,9 km/h (2 Bft) N-NW 332 ° 0 min 51 W/m² -1,5 °C -3,3 °C 16,1 km/h (3 Bft)
18.02.2026 13:37 21,4 °C 0,1 °C 47 % 89 % 1014,3 hPa 0,0 l/m² 9,8 km/h (2 Bft) N-NW 328 ° 2 min 56 W/m² -1,5 °C -3,2 °C 16,1 km/h (3 Bft)
18.02.2026 13:39 21,4 °C 0,1 °C 47 % 90 % 1014,3 hPa 0,0 l/m² 7,6 km/h (2 Bft) N-NW 336 ° 2 min 53 W/m² -1,3 °C -1,1 °C 14,5 km/h (3 Bft)
18.02.2026 13:41 21,4 °C 0,1 °C 47 % 90 % 1014,3 hPa 0,0 l/m² 5,0 km/h (1 Bft) N 10 ° 2 min 53 W/m² -1,3 °C 0,1 °C 8,0 km/h (2 Bft)
18.02.2026 13:42 21,4 °C 0,1 °C 47 % 90 % 1014,2 hPa 0,0 l/m² 4,8 km/h (1 Bft) NW 322 ° 1 min 54 W/m² -1,3 °C 0,1 °C 12,9 km/h (3 Bft)
18.02.2026 13:43 21,4 °C 0,1 °C 47 % 90 % 1014,2 hPa 0,0 l/m² 8,9 km/h (2 Bft) N-NW 345 ° 1 min 53 W/m² -1,3 °C -2,4 °C 12,9 km/h (3 Bft)
18.02.2026 13:45 21,4 °C 0,1 °C 47 % 90 % 1014,2 hPa 0,0 l/m² 10,5 km/h (2 Bft) N-NW 342 ° 2 min 56 W/m² -1,3 °C -3,7 °C 17,7 km/h (3 Bft)
18.02.2026 13:46 21,4 °C 0,1 °C 47 % 90 % 1014,2 hPa 0,0 l/m² 8,0 km/h (2 Bft) N-NW 336 ° 1 min 53 W/m² -1,3 °C -1,5 °C 12,9 km/h (3 Bft)
18.02.2026 13:47 21,4 °C 0,1 °C 47 % 90 % 1014,2 hPa 0,0 l/m² 11,4 km/h (2 Bft) N 349 ° 0 min 51 W/m² -1,3 °C -4,4 °C 14,5 km/h (3 Bft)
18.02.2026 13:49 21,4 °C 0,1 °C 47 % 90 % 1014,2 hPa 0,0 l/m² 7,7 km/h (2 Bft) NW 321 ° 2 min 56 W/m² -1,3 °C -1,2 °C 12,9 km/h (3 Bft)
18.02.2026 13:50 21,4 °C 0,1 °C 47 % 90 % 1014,2 hPa 0,0 l/m² 6,3 km/h (2 Bft) N 5 ° 1 min 56 W/m² -1,3 °C 0,1 °C 8,0 km/h (2 Bft)
18.02.2026 13:51 21,4 °C 0,0 °C 47 % 90 % 1014,2 hPa 0,0 l/m² 7,8 km/h (2 Bft) N-NO 15 ° 1 min 53 W/m² -1,4 °C -1,4 °C 12,9 km/h (3 Bft)
18.02.2026 13:52 21,4 °C 0,1 °C 47 % 90 % 1014,2 hPa 0,0 l/m² 5,4 km/h (2 Bft) N-NW 341 ° 0 min 49 W/m² -1,3 °C 0,1 °C 8,0 km/h (2 Bft)
18.02.2026 13:54 21,4 °C 0,0 °C 47 % 90 % 1014,2 hPa 0,0 l/m² 8,4 km/h (2 Bft) N 355 ° 2 min 56 W/m² -1,4 °C -2,0 °C 12,9 km/h (3 Bft)
18.02.2026 13:56 21,4 °C 0,0 °C 47 % 90 % 1014,2 hPa 0,0 l/m² 9,1 km/h (2 Bft) N-NW 334 ° 2 min 58 W/m² -1,4 °C -2,7 °C 16,1 km/h (3 Bft)
18.02.2026 13:58 21,4 °C 0,0 °C 47 % 90 % 1014,2 hPa 0,0 l/m² 6,7 km/h (2 Bft) N 5 ° 0 min 51 W/m² -1,4 °C -0,3 °C 16,1 km/h (3 Bft)
18.02.2026 14:00 21,4 °C 0,0 °C 47 % 90 % 1014,2 hPa 0,0 l/m² 6,9 km/h (2 Bft) N-NO 33 ° 0 min 51 W/m² -1,4 °C -0,5 °C 12,9 km/h (3 Bft)
18.02.2026 14:02 21,4 °C -0,1 °C 47 % 90 % 1014,2 hPa 0,0 l/m² 6,4 km/h (2 Bft) N-NO 26 ° 0 min 47 W/m² -1,5 °C -0,1 °C 14,5 km/h (3 Bft)
18.02.2026 14:03 21,4 °C 0,0 °C 47 % 90 % 1014,2 hPa 0,0 l/m² 4,1 km/h (1 Bft) N-NW 343 ° 0 min 46 W/m² -1,4 °C 0,0 °C 8,0 km/h (2 Bft)
18.02.2026 14:05 21,4 °C -0,1 °C 47 % 90 % 1014,3 hPa 0,0 l/m² 6,1 km/h (2 Bft) N-NW 336 ° 0 min 51 W/m² -1,5 °C -0,1 °C 12,9 km/h (3 Bft)
18.02.2026 14:06 21,4 °C -0,1 °C 47 % 90 % 1014,2 hPa 0,0 l/m² 6,5 km/h (2 Bft) N-NW 347 ° 0 min 51 W/m² -1,5 °C -0,2 °C 8,0 km/h (2 Bft)
18.02.2026 14:07 21,4 °C -0,1 °C 47 % 90 % 1014,2 hPa 0,0 l/m² 5,5 km/h (2 Bft) NW 313 ° 0 min 49 W/m² -1,5 °C -0,1 °C 8,0 km/h (2 Bft)
18.02.2026 14:09 21,4 °C -0,1 °C 47 % 90 % 1014,3 hPa 0,0 l/m² 8,0 km/h (2 Bft) N-NW 332 ° 0 min 47 W/m² -1,5 °C -1,8 °C 12,9 km/h (3 Bft)
18.02.2026 14:10 21,4 °C -0,1 °C 47 % 90 % 1014,3 hPa 0,0 l/m² 8,5 km/h (2 Bft) N-NW 341 ° 1 min 53 W/m² -1,5 °C -2,2 °C 12,9 km/h (3 Bft)
18.02.2026 14:11 21,4 °C -0,1 °C 47 % 90 % 1014,3 hPa 0,0 l/m² 6,7 km/h (2 Bft) N 360 ° 1 min 58 W/m² -1,5 °C -0,4 °C 9,7 km/h (2 Bft)
18.02.2026 14:12 21,4 °C -0,1 °C 47 % 90 % 1014,4 hPa 0,0 l/m² 3,2 km/h (1 Bft) N-NO 13 ° 1 min 63 W/m² -1,5 °C -0,1 °C 4,8 km/h (1 Bft)
18.02.2026 14:14 21,4 °C -0,1 °C 47 % 90 % 1014,3 hPa 0,0 l/m² 5,9 km/h (2 Bft) N-NW 333 ° 2 min 76 W/m² -1,5 °C -0,1 °C 14,5 km/h (3 Bft)
18.02.2026 14:16 21,5 °C -0,1 °C 47 % 90 % 1014,3 hPa 0,0 l/m² 9,8 km/h (2 Bft) N-NW 348 ° 2 min 70 W/m² -1,5 °C -3,4 °C 14,5 km/h (3 Bft)
18.02.2026 14:18 21,4 °C -0,1 °C 47 % 90 % 1014,3 hPa 0,0 l/m² 5,1 km/h (1 Bft) N-NW 342 ° 2 min 70 W/m² -1,5 °C -0,1 °C 9,7 km/h (2 Bft)
18.02.2026 14:20 21,4 °C -0,1 °C 47 % 90 % 1014,3 hPa 0,0 l/m² 4,8 km/h (1 Bft) N-NW 327 ° 2 min 79 W/m² -1,5 °C -0,1 °C 8,0 km/h (2 Bft)
18.02.2026 14:23 21,5 °C -0,1 °C 47 % 90 % 1014,3 hPa 0,0 l/m² 5,7 km/h (2 Bft) NW 326 ° 3 min 70 W/m² -1,5 °C -0,1 °C 12,9 km/h (3 Bft)
18.02.2026 14:25 21,4 °C -0,1 °C 47 % 90 % 1014,3 hPa 0,0 l/m² 6,0 km/h (2 Bft) NW 325 ° 2 min 60 W/m² -1,5 °C -0,1 °C 14,5 km/h (3 Bft)
18.02.2026 14:27 21,5 °C -0,1 °C 47 % 90 % 1014,4 hPa 0,0 l/m² 3,8 km/h (1 Bft) N-NW 342 ° 0 min 49 W/m² -1,5 °C -0,1 °C 8,0 km/h (2 Bft)
18.02.2026 14:29 21,5 °C -0,1 °C 47 % 90 % 1014,4 hPa 0,0 l/m² 2,3 km/h (1 Bft) N-NW 342 ° 0 min 46 W/m² -1,5 °C -0,1 °C 4,8 km/h (1 Bft)
18.02.2026 14:31 21,5 °C -0,1 °C 47 % 90 % 1014,4 hPa 0,0 l/m² 2,2 km/h (1 Bft) N-NW 342 ° 2 min 58 W/m² -1,5 °C -0,1 °C 4,8 km/h (1 Bft)
18.02.2026 14:32 21,5 °C -0,1 °C 47 % 90 % 1014,4 hPa 0,0 l/m² 2,3 km/h (1 Bft) N-NW 342 ° 1 min 65 W/m² -1,5 °C -0,1 °C 4,8 km/h (1 Bft)
18.02.2026 14:33 21,5 °C -0,1 °C 47 % 90 % 1014,4 hPa 0,0 l/m² 3,0 km/h (1 Bft) N-NW 342 ° 1 min 70 W/m² -1,5 °C -0,1 °C 4,8 km/h (1 Bft)
18.02.2026 14:35 21,4 °C -0,1 °C 47 % 90 % 1014,4 hPa 0,0 l/m² 4,0 km/h (1 Bft) NW 311 ° 2 min 67 W/m² -1,5 °C -0,1 °C 6,4 km/h (2 Bft)
18.02.2026 14:36 21,5 °C -0,1 °C 47 % 90 % 1014,4 hPa 0,0 l/m² 3,1 km/h (1 Bft) N-NW 335 ° 1 min 67 W/m² -1,5 °C -0,1 °C 4,8 km/h (1 Bft)
18.02.2026 14:37 21,5 °C -0,1 °C 47 % 90 % 1014,4 hPa 0,0 l/m² 2,4 km/h (1 Bft) N-NW 334 ° 1 min 65 W/m² -1,5 °C -0,1 °C 4,8 km/h (1 Bft)
18.02.2026 14:38 21,5 °C -0,1 °C 47 % 90 % 1014,4 hPa 0,0 l/m² 4,8 km/h (1 Bft) N-NW 336 ° 1 min 63 W/m² -1,5 °C -0,1 °C 6,4 km/h (2 Bft)
18.02.2026 14:40 21,4 °C -0,1 °C 47 % 90 % 1014,4 hPa 0,0 l/m² 4,1 km/h (1 Bft) NW 314 ° 2 min 62 W/m² -1,5 °C -0,1 °C 6,4 km/h (2 Bft)
18.02.2026 14:43 21,5 °C -0,1 °C 47 % 90 % 1014,4 hPa 0,0 l/m² 4,1 km/h (1 Bft) NW 325 ° 3 min 54 W/m² -1,5 °C -0,1 °C 6,4 km/h (2 Bft)
18.02.2026 14:45 21,4 °C -0,1 °C 46 % 90 % 1014,4 hPa 0,0 l/m² 3,4 km/h (1 Bft) N-NW 336 ° 0 min 51 W/m² -1,5 °C -0,1 °C 6,4 km/h (2 Bft)
18.02.2026 14:47 21,4 °C -0,1 °C 45 % 90 % 1014,4 hPa 0,0 l/m² 4,4 km/h (1 Bft) NW 313 ° 0 min 51 W/m² -1,5 °C -0,1 °C 9,7 km/h (2 Bft)
18.02.2026 14:49 21,4 °C -0,1 °C 46 % 90 % 1014,3 hPa 0,0 l/m² 5,1 km/h (1 Bft) NW 321 ° 0 min 49 W/m² -1,5 °C -0,1 °C 8,0 km/h (2 Bft)
18.02.2026 14:51 21,4 °C -0,1 °C 46 % 90 % 1014,5 hPa 0,0 l/m² 6,3 km/h (2 Bft) N 355 ° 0 min 46 W/m² -1,5 °C -0,1 °C 12,9 km/h (3 Bft)
18.02.2026 14:52 21,4 °C -0,1 °C 46 % 90 % 1014,5 hPa 0,0 l/m² 6,1 km/h (2 Bft) N-NW 340 ° 0 min 42 W/m² -1,5 °C -0,1 °C 9,7 km/h (2 Bft)
18.02.2026 14:53 21,4 °C -0,1 °C 46 % 90 % 1014,5 hPa 0,0 l/m² 4,3 km/h (1 Bft) N-NW 346 ° 0 min 40 W/m² -1,5 °C -0,1 °C 9,7 km/h (2 Bft)
18.02.2026 14:55 21,4 °C -0,1 °C 46 % 89 % 1014,5 hPa 0,0 l/m² 4,2 km/h (1 Bft) N-NW 333 ° 0 min 40 W/m² -1,7 °C -0,1 °C 9,7 km/h (2 Bft)
18.02.2026 14:57 21,4 °C -0,1 °C 46 % 90 % 1014,5 hPa 0,0 l/m² 4,9 km/h (1 Bft) N-NW 338 ° 0 min 40 W/m² -1,5 °C -0,1 °C 8,0 km/h (2 Bft)
18.02.2026 14:59 21,4 °C -0,1 °C 46 % 90 % 1014,6 hPa 0,0 l/m² 4,0 km/h (1 Bft) N-NW 333 ° 0 min 39 W/m² -1,5 °C -0,1 °C 6,4 km/h (2 Bft)
18.02.2026 15:01 21,5 °C -0,1 °C 46 % 90 % 1014,5 hPa 0,0 l/m² 1,1 km/h (1 Bft) W-NW 292 ° 0 min 39 W/m² -1,5 °C -0,1 °C 4,8 km/h (1 Bft)
18.02.2026 15:02 21,5 °C -0,1 °C 46 % 90 % 1014,5 hPa 0,0 l/m² 2,9 km/h (1 Bft) N-NW 331 ° 0 min 42 W/m² -1,5 °C -0,1 °C 8,0 km/h (2 Bft)
18.02.2026 15:03 21,4 °C -0,1 °C 46 % 90 % 1014,5 hPa 0,0 l/m² 2,8 km/h (1 Bft) N-NW 331 ° 0 min 42 W/m² -1,5 °C -0,1 °C 4,8 km/h (1 Bft)
18.02.2026 15:05 21,5 °C -0,1 °C 46 % 89 % 1014,5 hPa 0,0 l/m² 2,2 km/h (1 Bft) NW 314 ° 0 min 37 W/m² -1,7 °C -0,1 °C 6,4 km/h (2 Bft)
18.02.2026 15:07 21,5 °C 0,0 °C 46 % 89 % 1014,6 hPa 0,0 l/m² 1,4 km/h (1 Bft) NW 322 ° 0 min 32 W/m² -1,6 °C 0,0 °C 4,8 km/h (1 Bft)
18.02.2026 15:09 21,4 °C 0,0 °C 46 % 89 % 1014,5 hPa 0,0 l/m² 1,2 km/h (1 Bft) N-NW 329 ° 0 min 33 W/m² -1,6 °C 0,0 °C 3,2 km/h (1 Bft)
18.02.2026 15:11 21,5 °C 0,0 °C 46 % 89 % 1014,5 hPa 0,0 l/m² 0,9 km/h (0 Bft) N-NO 29 ° 0 min 39 W/m² -1,6 °C 0,0 °C 3,2 km/h (1 Bft)
18.02.2026 15:12 21,4 °C 0,1 °C 46 % 89 % 1014,5 hPa 0,0 l/m² 0,1 km/h (0 Bft) N-NO 17 ° 0 min 42 W/m² -1,5 °C 0,1 °C 1,6 km/h (1 Bft)
18.02.2026 15:13 21,4 °C 0,1 °C 46 % 89 % 1014,5 hPa 0,0 l/m² 1,1 km/h (1 Bft) NW 326 ° 0 min 44 W/m² -1,5 °C 0,1 °C 8,0 km/h (2 Bft)
18.02.2026 15:15 21,5 °C 0,1 °C 46 % 89 % 1014,5 hPa 0,0 l/m² 4,8 km/h (1 Bft) N-NW 342 ° 0 min 44 W/m² -1,5 °C 0,1 °C 8,0 km/h (2 Bft)
18.02.2026 15:17 21,5 °C 0,1 °C 46 % 89 % 1014,5 hPa 0,0 l/m² 4,1 km/h (1 Bft) N-NW 345 ° 0 min 51 W/m² -1,5 °C 0,1 °C 9,7 km/h (2 Bft)
18.02.2026 15:19 21,5 °C 0,1 °C 46 % 89 % 1014,5 hPa 0,0 l/m² 5,3 km/h (1 Bft) N-NW 339 ° 2 min 56 W/m² -1,5 °C 0,1 °C 9,7 km/h (2 Bft)
18.02.2026 15:21 21,6 °C 0,0 °C 46 % 89 % 1014,4 hPa 0,0 l/m² 4,6 km/h (1 Bft) N 350 ° 2 min 54 W/m² -1,6 °C 0,0 °C 8,0 km/h (2 Bft)
18.02.2026 15:22 21,5 °C 0,0 °C 46 % 89 % 1014,3 hPa 0,0 l/m² 6,8 km/h (2 Bft) N 355 ° 0 min 51 W/m² -1,6 °C -0,4 °C 9,7 km/h (2 Bft)
18.02.2026 15:23 21,5 °C 0,0 °C 46 % 89 % 1014,3 hPa 0,0 l/m² 4,7 km/h (1 Bft) N 355 ° 0 min 51 W/m² -1,6 °C 0,0 °C 9,7 km/h (2 Bft)
18.02.2026 15:25 21,6 °C 0,0 °C 46 % 89 % 1014,4 hPa 0,0 l/m² 6,0 km/h (2 Bft) N 355 ° 2 min 63 W/m² -1,6 °C 0,0 °C 9,7 km/h (2 Bft)
18.02.2026 15:27 21,5 °C 0,0 °C 46 % 89 % 1014,4 hPa 0,0 l/m² 6,7 km/h (2 Bft) N-NW 344 ° 2 min 79 W/m² -1,6 °C -0,3 °C 9,7 km/h (2 Bft)
18.02.2026 15:29 21,6 °C 0,0 °C 46 % 89 % 1014,3 hPa 0,0 l/m² 4,3 km/h (1 Bft) N-NO 15 ° 2 min 79 W/m² -1,6 °C 0,0 °C 8,0 km/h (2 Bft)
18.02.2026 15:31 21,6 °C 0,0 °C 46 % 89 % 1014,4 hPa 0,0 l/m² 7,9 km/h (2 Bft) N-NW 332 ° 2 min 76 W/m² -1,6 °C -1,5 °C 12,9 km/h (3 Bft)
18.02.2026 15:32 21,6 °C 0,0 °C 46 % 89 % 1014,3 hPa 0,0 l/m² 6,4 km/h (2 Bft) N 360 ° 1 min 74 W/m² -1,6 °C 0,0 °C 9,7 km/h (2 Bft)
18.02.2026 15:33 21,6 °C 0,0 °C 46 % 89 % 1014,3 hPa 0,0 l/m² 4,9 km/h (1 Bft) N-NW 344 ° 1 min 72 W/m² -1,6 °C 0,0 °C 8,0 km/h (2 Bft)
18.02.2026 15:35 21,6 °C 0,0 °C 46 % 89 % 1014,3 hPa 0,0 l/m² 7,2 km/h (2 Bft) N 360 ° 2 min 74 W/m² -1,6 °C -0,8 °C 12,9 km/h (3 Bft)
18.02.2026 15:36 21,6 °C 0,0 °C 46 % 89 % 1014,3 hPa 0,0 l/m² 8,6 km/h (2 Bft) N-NW 343 ° 1 min 72 W/m² -1,6 °C -2,2 °C 9,7 km/h (2 Bft)
18.02.2026 15:37 21,6 °C 0,0 °C 46 % 89 % 1014,3 hPa 0,0 l/m² 8,8 km/h (2 Bft) N 5 ° 1 min 69 W/m² -1,6 °C -2,4 °C 12,9 km/h (3 Bft)
18.02.2026 15:38 21,6 °C 0,0 °C 46 % 89 % 1014,3 hPa 0,0 l/m² 7,8 km/h (2 Bft) N 355 ° 1 min 62 W/m² -1,6 °C -1,4 °C 9,7 km/h (2 Bft)
18.02.2026 15:40 21,6 °C 0,1 °C 46 % 89 % 1014,3 hPa 0,0 l/m² 4,6 km/h (1 Bft) N 355 ° 2 min 54 W/m² -1,5 °C 0,1 °C 8,0 km/h (2 Bft)
18.02.2026 15:43 21,6 °C 0,0 °C 46 % 88 % 1014,3 hPa 0,0 l/m² 6,4 km/h (2 Bft) N 349 ° 3 min 56 W/m² -1,7 °C 0,0 °C 16,1 km/h (3 Bft)
18.02.2026 15:46 21,6 °C 0,0 °C 46 % 88 % 1014,2 hPa 0,0 l/m² 6,5 km/h (2 Bft) N 355 ° 0 min 47 W/m² -1,7 °C -0,1 °C 12,9 km/h (3 Bft)
18.02.2026 15:48 21,6 °C 0,0 °C 46 % 88 % 1014,2 hPa 0,0 l/m² 5,4 km/h (2 Bft) N-NW 348 ° 0 min 42 W/m² -1,7 °C 0,0 °C 11,3 km/h (2 Bft)
18.02.2026 15:50 21,6 °C 0,0 °C 46 % 88 % 1014,2 hPa 0,0 l/m² 10,2 km/h (2 Bft) N 5 ° 0 min 49 W/m² -1,7 °C -3,6 °C 16,1 km/h (3 Bft)
18.02.2026 15:53 21,6 °C 0,0 °C 46 % 88 % 1014,1 hPa 0,0 l/m² 10,1 km/h (2 Bft) N 5 ° 3 min 53 W/m² -1,7 °C -3,5 °C 16,1 km/h (3 Bft)
18.02.2026 15:55 21,6 °C -0,1 °C 46 % 88 % 1014,2 hPa 0,0 l/m² 7,9 km/h (2 Bft) N-NO 20 ° 2 min 53 W/m² -1,8 °C -1,7 °C 14,5 km/h (3 Bft)
18.02.2026 15:57 21,6 °C 0,0 °C 46 % 88 % 1014,2 hPa 0,0 l/m² 7,0 km/h (2 Bft) N 355 ° 0 min 47 W/m² -1,7 °C -0,6 °C 12,9 km/h (3 Bft)
18.02.2026 15:59 21,6 °C -0,1 °C 46 % 88 % 1014,2 hPa 0,0 l/m² 7,3 km/h (2 Bft) N-NO 20 ° 0 min 42 W/m² -1,8 °C -1,0 °C 14,5 km/h (3 Bft)
18.02.2026 16:01 21,6 °C -0,1 °C 46 % 88 % 1014,2 hPa 0,0 l/m² 11,1 km/h (2 Bft) N-NO 26 ° 0 min 40 W/m² -1,8 °C -4,4 °C 19,3 km/h (3 Bft)
18.02.2026 16:02 21,6 °C -0,1 °C 46 % 88 % 1014,2 hPa 0,0 l/m² 8,4 km/h (2 Bft) N 360 ° 0 min 39 W/m² -1,8 °C -2,1 °C 12,9 km/h (3 Bft)
18.02.2026 16:03 21,6 °C -0,1 °C 46 % 88 % 1014,2 hPa 0,0 l/m² 6,9 km/h (2 Bft) N-NO 17 ° 0 min 37 W/m² -1,8 °C -0,6 °C 12,9 km/h (3 Bft)
18.02.2026 16:05 21,6 °C -0,1 °C 46 % 88 % 1014,3 hPa 0,0 l/m² 8,4 km/h (2 Bft) NO 39 ° 0 min 32 W/m² -1,8 °C -2,1 °C 16,1 km/h (3 Bft)
18.02.2026 16:07 21,6 °C -0,1 °C 46 % 88 % 1014,2 hPa 0,0 l/m² 9,6 km/h (2 Bft) N-NW 346 ° 0 min 30 W/m² -1,8 °C -3,2 °C 14,5 km/h (3 Bft)
18.02.2026 16:09 21,5 °C -0,1 °C 45 % 88 % 1014,2 hPa 0,0 l/m² 4,5 km/h (1 Bft) N 10 ° 0 min 28 W/m² -1,8 °C -0,1 °C 8,0 km/h (2 Bft)
18.02.2026 16:11 21,5 °C -0,1 °C 45 % 88 % 1014,2 hPa 0,0 l/m² 5,1 km/h (1 Bft) NW 320 ° 0 min 26 W/m² -1,8 °C -0,1 °C 11,3 km/h (2 Bft)
18.02.2026 16:12 21,5 °C -0,1 °C 45 % 88 % 1014,2 hPa 0,0 l/m² 12,0 km/h (2 Bft) N 350 ° 0 min 25 W/m² -1,8 °C -5,1 °C 14,5 km/h (3 Bft)
18.02.2026 16:13 21,5 °C -0,2 °C 45 % 88 % 1014,2 hPa 0,0 l/m² 11,5 km/h (2 Bft) N-NW 329 ° 0 min 23 W/m² -1,9 °C -4,9 °C 16,1 km/h (3 Bft)
18.02.2026 16:15 21,5 °C -0,2 °C 45 % 88 % 1014,2 hPa 0,0 l/m² 8,4 km/h (2 Bft) N 349 ° 0 min 21 W/m² -1,9 °C -2,2 °C 16,1 km/h (3 Bft)
18.02.2026 16:17 21,5 °C -0,2 °C 45 % 88 % 1014,2 hPa 0,0 l/m² 2,4 km/h (1 Bft) N 351 ° 0 min 19 W/m² -1,9 °C -0,2 °C 4,8 km/h (1 Bft)
18.02.2026 16:19 21,4 °C -0,2 °C 45 % 88 % 1014,2 hPa 0,0 l/m² 7,4 km/h (2 Bft) N 355 ° 0 min 14 W/m² -1,9 °C -1,2 °C 14,5 km/h (3 Bft)
18.02.2026 16:21 21,5 °C -0,2 °C 45 % 88 % 1014,3 hPa 0,0 l/m² 3,7 km/h (1 Bft) N-NW 337 ° 0 min 12 W/m² -1,9 °C -0,2 °C 8,0 km/h (2 Bft)
18.02.2026 16:22 21,5 °C -0,2 °C 45 % 88 % 1014,3 hPa 0,0 l/m² 4,9 km/h (1 Bft) N-NW 343 ° 0 min 12 W/m² -1,9 °C -0,2 °C 6,4 km/h (2 Bft)
18.02.2026 16:23 21,5 °C -0,2 °C 45 % 88 % 1014,3 hPa 0,0 l/m² 3,4 km/h (1 Bft) NW 321 ° 0 min 12 W/m² -1,9 °C -0,2 °C 6,4 km/h (2 Bft)
18.02.2026 16:24 21,4 °C -0,2 °C 45 % 88 % 1014,3 hPa 0,0 l/m² 6,7 km/h (2 Bft) N-NO 33 ° 0 min 14 W/m² -1,9 °C -0,5 °C 12,9 km/h (3 Bft)
18.02.2026 16:25 21,5 °C -0,2 °C 45 % 88 % 1014,3 hPa 0,0 l/m² 4,8 km/h (1 Bft) N-NO 30 ° 0 min 16 W/m² -1,9 °C -0,2 °C 6,4 km/h (2 Bft)
18.02.2026 16:26 21,4 °C -0,3 °C 45 % 88 % 1014,3 hPa 0,0 l/m² 5,6 km/h (2 Bft) N 5 ° 0 min 14 W/m² -2,0 °C -0,3 °C 9,7 km/h (2 Bft)
18.02.2026 16:27 21,5 °C -0,3 °C 45 % 88 % 1014,3 hPa 0,0 l/m² 7,8 km/h (2 Bft) N 351 ° 0 min 14 W/m² -2,0 °C -1,8 °C 11,3 km/h (2 Bft)
18.02.2026 16:28 21,5 °C -0,3 °C 45 % 88 % 1014,3 hPa 0,0 l/m² 6,2 km/h (2 Bft) N 360 ° 0 min 14 W/m² -2,0 °C -0,3 °C 12,9 km/h (3 Bft)
18.02.2026 16:29 21,4 °C -0,3 °C 45 % 88 % 1014,3 hPa 0,0 l/m² 6,7 km/h (2 Bft) N 5 ° 0 min 14 W/m² -2,0 °C -0,6 °C 12,9 km/h (3 Bft)
18.02.2026 16:31 21,5 °C -0,3 °C 45 % 88 % 1014,3 hPa 0,0 l/m² 5,3 km/h (1 Bft) NO 36 ° 0 min 12 W/m² -2,0 °C -0,3 °C 11,3 km/h (2 Bft)
18.02.2026 16:33 21,4 °C -0,3 °C 45 % 88 % 1014,3 hPa 0,0 l/m² 8,0 km/h (2 Bft) N-NO 27 ° 0 min 11 W/m² -2,0 °C -2,0 °C 12,9 km/h (3 Bft)
18.02.2026 16:34 21,4 °C -0,4 °C 45 % 88 % 1014,3 hPa 0,0 l/m² 5,5 km/h (2 Bft) NO 34 ° 0 min 9 W/m² -2,1 °C -0,4 °C 9,7 km/h (2 Bft)
18.02.2026 16:35 21,4 °C -0,4 °C 45 % 88 % 1014,3 hPa 0,0 l/m² 5,9 km/h (2 Bft) N-NO 25 ° 0 min 9 W/m² -2,1 °C -0,4 °C 8,0 km/h (2 Bft)
18.02.2026 16:36 21,4 °C -0,4 °C 45 % 88 % 1014,4 hPa 0,0 l/m² 4,2 km/h (1 Bft) N 355 ° 0 min 9 W/m² -2,1 °C -0,4 °C 4,8 km/h (1 Bft)
18.02.2026 16:37 21,4 °C -0,4 °C 45 % 88 % 1014,3 hPa 0,0 l/m² 4,0 km/h (1 Bft) N-NO 26 ° 0 min 12 W/m² -2,1 °C -0,4 °C 6,4 km/h (2 Bft)
18.02.2026 16:38 21,4 °C -0,4 °C 45 % 88 % 1014,3 hPa 0,0 l/m² 3,0 km/h (1 Bft) N-NO 32 ° 0 min 12 W/m² -2,1 °C -0,4 °C 6,4 km/h (2 Bft)
18.02.2026 16:39 21,4 °C -0,4 °C 45 % 88 % 1014,3 hPa 0,0 l/m² 4,2 km/h (1 Bft) N-NO 17 ° 0 min 12 W/m² -2,1 °C -0,4 °C 9,7 km/h (2 Bft)
18.02.2026 16:41 21,5 °C -0,4 °C 45 % 88 % 1014,3 hPa 0,0 l/m² 5,9 km/h (2 Bft) N 5 ° 0 min 14 W/m² -2,1 °C -0,4 °C 11,3 km/h (2 Bft)
18.02.2026 16:42 21,5 °C -0,4 °C 45 % 88 % 1014,2 hPa 0,0 l/m² 6,0 km/h (2 Bft) N-NO 31 ° 0 min 14 W/m² -2,1 °C -0,4 °C 12,9 km/h (3 Bft)
18.02.2026 16:43 21,5 °C -0,5 °C 45 % 88 % 1014,2 hPa 0,0 l/m² 2,8 km/h (1 Bft) N 350 ° 0 min 12 W/m² -2,2 °C -0,5 °C 4,8 km/h (1 Bft)
18.02.2026 16:44 21,4 °C -0,5 °C 45 % 88 % 1014,2 hPa 0,0 l/m² 5,8 km/h (2 Bft) N 360 ° 0 min 12 W/m² -2,2 °C -0,5 °C 9,7 km/h (2 Bft)
18.02.2026 16:45 21,5 °C -0,5 °C 45 % 88 % 1014,2 hPa 0,0 l/m² 6,4 km/h (2 Bft) NO 37 ° 0 min 12 W/m² -2,2 °C -0,5 °C 11,3 km/h (2 Bft)
18.02.2026 16:46 21,5 °C -0,5 °C 45 % 88 % 1014,2 hPa 0,0 l/m² 5,2 km/h (1 Bft) N-NW 342 ° 0 min 12 W/m² -2,2 °C -0,5 °C 8,0 km/h (2 Bft)
18.02.2026 16:47 21,5 °C -0,5 °C 45 % 88 % 1014,1 hPa 0,0 l/m² 3,6 km/h (1 Bft) N 355 ° 0 min 12 W/m² -2,2 °C -0,5 °C 6,4 km/h (2 Bft)
18.02.2026 16:48 21,5 °C -0,5 °C 45 % 88 % 1014,2 hPa 0,0 l/m² 11,4 km/h (2 Bft) N-NW 344 ° 0 min 12 W/m² -2,2 °C -5,1 °C 14,5 km/h (3 Bft)
18.02.2026 16:49 21,5 °C -0,6 °C 45 % 88 % 1014,1 hPa 0,0 l/m² 10,6 km/h (2 Bft) N-NW 345 ° 0 min 11 W/m² -2,3 °C -4,6 °C 12,9 km/h (3 Bft)
18.02.2026 16:51 21,5 °C -0,6 °C 45 % 88 % 1014,1 hPa 0,0 l/m² 7,3 km/h (2 Bft) N 5 ° 0 min 9 W/m² -2,3 °C -1,6 °C 12,9 km/h (3 Bft)
18.02.2026 16:53 21,4 °C -0,6 °C 45 % 88 % 1014,1 hPa 0,0 l/m² 5,7 km/h (2 Bft) N-NW 340 ° 0 min 9 W/m² -2,3 °C -0,6 °C 12,9 km/h (3 Bft)
18.02.2026 16:54 21,5 °C -0,6 °C 46 % 88 % 1014,1 hPa 0,0 l/m² 5,4 km/h (2 Bft) N 355 ° 0 min 7 W/m² -2,3 °C -0,6 °C 8,0 km/h (2 Bft)
18.02.2026 16:55 21,5 °C -0,6 °C 45 % 88 % 1014,1 hPa 0,0 l/m² 4,4 km/h (1 Bft) N 5 ° 0 min 7 W/m² -2,3 °C -0,6 °C 8,0 km/h (2 Bft)
18.02.2026 16:56 21,5 °C -0,6 °C 45 % 88 % 1014,1 hPa 0,0 l/m² 1,5 km/h (1 Bft) N-NO 17 ° 0 min 7 W/m² -2,3 °C -0,6 °C 4,8 km/h (1 Bft)
18.02.2026 16:57 21,5 °C -0,6 °C 46 % 88 % 1014,2 hPa 0,0 l/m² 4,4 km/h (1 Bft) NO 39 ° 0 min 7 W/m² -2,3 °C -0,6 °C 8,0 km/h (2 Bft)
18.02.2026 16:58 21,6 °C -0,6 °C 45 % 88 % 1014,2 hPa 0,0 l/m² 2,5 km/h (1 Bft) N 5 ° 0 min 7 W/m² -2,3 °C -0,6 °C 4,8 km/h (1 Bft)
18.02.2026 16:59 21,5 °C -0,7 °C 46 % 88 % 1014,2 hPa 0,0 l/m² 1,4 km/h (1 Bft) N-NW 344 ° 0 min 7 W/m² -2,4 °C -0,7 °C 3,2 km/h (1 Bft)
18.02.2026 17:01 21,6 °C -0,7 °C 46 % 88 % 1014,2 hPa 0,0 l/m² 3,2 km/h (1 Bft) N-NW 342 ° 0 min 7 W/m² -2,4 °C -0,7 °C 6,4 km/h (2 Bft)
18.02.2026 17:03 21,5 °C -0,7 °C 46 % 88 % 1014,2 hPa 0,0 l/m² 4,5 km/h (1 Bft) N-NW 345 ° 0 min 7 W/m² -2,4 °C -0,7 °C 8,0 km/h (2 Bft)
18.02.2026 17:04 21,5 °C -0,7 °C 46 % 88 % 1014,1 hPa 0,0 l/m² 3,1 km/h (1 Bft) N 349 ° 0 min 7 W/m² -2,4 °C -0,7 °C 6,4 km/h (2 Bft)
18.02.2026 17:05 21,6 °C -0,7 °C 46 % 88 % 1014,1 hPa 0,0 l/m² 5,6 km/h (2 Bft) N 9 ° 0 min 7 W/m² -2,4 °C -0,7 °C 11,3 km/h (2 Bft)
18.02.2026 17:06 21,6 °C -0,7 °C 46 % 88 % 1014,2 hPa 0,0 l/m² 3,1 km/h (1 Bft) NW 317 ° 0 min 7 W/m² -2,4 °C -0,7 °C 6,4 km/h (2 Bft)
18.02.2026 17:07 21,5 °C -0,7 °C 46 % 88 % 1014,2 hPa 0,0 l/m² 4,4 km/h (1 Bft) N-NW 344 ° 0 min 7 W/m² -2,4 °C -0,7 °C 6,4 km/h (2 Bft)
18.02.2026 17:08 21,6 °C -0,7 °C 46 % 88 % 1014,2 hPa 0,0 l/m² 3,3 km/h (1 Bft) NO 36 ° 0 min 5 W/m² -2,4 °C -0,7 °C 6,4 km/h (2 Bft)
18.02.2026 17:09 21,6 °C -0,7 °C 46 % 88 % 1014,1 hPa 0,0 l/m² 4,6 km/h (1 Bft) N-NW 332 ° 0 min 5 W/m² -2,4 °C -0,7 °C 6,4 km/h (2 Bft)
18.02.2026 17:11 21,5 °C -0,7 °C 46 % 88 % 1014,3 hPa 0,0 l/m² 4,7 km/h (1 Bft) N-NO 26 ° 0 min 5 W/m² -2,4 °C -0,7 °C 8,0 km/h (2 Bft)
18.02.2026 17:13 21,6 °C -0,8 °C 46 % 88 % 1014,2 hPa 0,0 l/m² 1,8 km/h (1 Bft) N-NO 29 ° 0 min 5 W/m² -2,5 °C -0,8 °C 8,0 km/h (2 Bft)
18.02.2026 17:14 21,6 °C -0,8 °C 46 % 88 % 1014,2 hPa 0,0 l/m² 0,3 km/h (0 Bft) N-NO 30 ° 0 min 5 W/m² -2,5 °C -0,8 °C 1,6 km/h (1 Bft)
18.02.2026 17:15 21,5 °C -0,8 °C 46 % 88 % 1014,3 hPa 0,0 l/m² 0,5 km/h (0 Bft) N-NO 32 ° 0 min 5 W/m² -2,5 °C -0,8 °C 1,6 km/h (1 Bft)
18.02.2026 17:16 21,6 °C -0,8 °C 46 % 87 % 1014,3 hPa 0,0 l/m² 0,5 km/h (0 Bft) N-NO 28 ° 0 min 0 W/m² -2,7 °C -0,8 °C 1,6 km/h (1 Bft)
18.02.2026 17:17 21,6 °C -0,8 °C 46 % 87 % 1014,3 hPa 0,0 l/m² 0,3 km/h (0 Bft) N-NW 341 ° 0 min 0 W/m² -2,7 °C -0,8 °C 1,6 km/h (1 Bft)
18.02.2026 17:18 21,6 °C -0,8 °C 46 % 87 % 1014,3 hPa 0,0 l/m² 2,6 km/h (1 Bft) N-NO 14 ° 0 min 0 W/m² -2,7 °C -0,8 °C 6,4 km/h (2 Bft)
18.02.2026 17:19 21,6 °C -0,8 °C 46 % 87 % 1014,3 hPa 0,0 l/m² 3,6 km/h (1 Bft) N 350 ° 0 min 0 W/m² -2,7 °C -0,8 °C 4,8 km/h (1 Bft)
18.02.2026 17:21 21,6 °C -0,8 °C 46 % 87 % 1014,3 hPa 0,0 l/m² 4,1 km/h (1 Bft) N 5 ° 0 min 0 W/m² -2,7 °C -0,8 °C 8,0 km/h (2 Bft)
18.02.2026 17:23 21,6 °C -0,8 °C 46 % 87 % 1014,2 hPa 0,0 l/m² 4,2 km/h (1 Bft) N-NW 339 ° 0 min 0 W/m² -2,7 °C -0,8 °C 8,0 km/h (2 Bft)
18.02.2026 17:24 21,6 °C -0,8 °C 46 % 88 % 1014,2 hPa 0,0 l/m² 3,5 km/h (1 Bft) N-NW 342 ° 0 min 0 W/m² -2,5 °C -0,8 °C 4,8 km/h (1 Bft)
18.02.2026 17:25 21,6 °C -0,8 °C 46 % 88 % 1014,2 hPa 0,0 l/m² 3,6 km/h (1 Bft) N 360 ° 0 min 0 W/m² -2,5 °C -0,8 °C 4,8 km/h (1 Bft)
18.02.2026 17:26 21,6 °C -0,8 °C 46 % 87 % 1014,2 hPa 0,0 l/m² 3,3 km/h (1 Bft) N-NW 327 ° 0 min 0 W/m² -2,7 °C -0,8 °C 4,8 km/h (1 Bft)
18.02.2026 17:27 21,6 °C -0,8 °C 46 % 87 % 1014,2 hPa 0,0 l/m² 4,2 km/h (1 Bft) N 5 ° 0 min 0 W/m² -2,7 °C -0,8 °C 8,0 km/h (2 Bft)
18.02.2026 17:28 21,6 °C -0,8 °C 46 % 87 % 1014,2 hPa 0,0 l/m² 3,0 km/h (1 Bft) N-NO 22 ° 0 min 0 W/m² -2,7 °C -0,8 °C 6,4 km/h (2 Bft)
18.02.2026 17:29 21,5 °C -0,8 °C 46 % 87 % 1014,2 hPa 0,0 l/m² 2,9 km/h (1 Bft) NO 42 ° 0 min 0 W/m² -2,7 °C -0,8 °C 8,0 km/h (2 Bft)
18.02.2026 17:31 21,6 °C -0,9 °C 46 % 87 % 1014,2 hPa 0,0 l/m² 3,6 km/h (1 Bft) NO 44 ° 0 min 0 W/m² -2,8 °C -0,9 °C 8,0 km/h (2 Bft)
18.02.2026 17:33 21,6 °C -0,9 °C 46 % 87 % 1014,2 hPa 0,0 l/m² 5,8 km/h (2 Bft) NO 41 ° 0 min 0 W/m² -2,8 °C -0,9 °C 11,3 km/h (2 Bft)
18.02.2026 17:34 21,6 °C -0,9 °C 46 % 87 % 1014,3 hPa 0,0 l/m² 5,3 km/h (1 Bft) N-NO 32 ° 0 min 0 W/m² -2,8 °C -0,9 °C 8,0 km/h (2 Bft)
18.02.2026 17:35 21,6 °C -0,9 °C 46 % 87 % 1014,2 hPa 0,0 l/m² 3,1 km/h (1 Bft) NO 45 ° 0 min 0 W/m² -2,8 °C -0,9 °C 8,0 km/h (2 Bft)
18.02.2026 17:36 21,6 °C -0,9 °C 46 % 87 % 1014,3 hPa 0,0 l/m² 1,3 km/h (1 Bft) NO 40 ° 0 min 0 W/m² -2,8 °C -0,9 °C 4,8 km/h (1 Bft)
18.02.2026 17:37 21,6 °C -0,9 °C 46 % 87 % 1014,3 hPa 0,0 l/m² 5,5 km/h (2 Bft) NO 37 ° 0 min 0 W/m² -2,8 °C -0,9 °C 9,7 km/h (2 Bft)
18.02.2026 17:38 21,6 °C -0,9 °C 46 % 87 % 1014,3 hPa 0,0 l/m² 2,0 km/h (1 Bft) NO 35 ° 0 min 0 W/m² -2,8 °C -0,9 °C 4,8 km/h (1 Bft)
18.02.2026 17:39 21,6 °C -0,9 °C 46 % 87 % 1014,3 hPa 0,0 l/m² 3,4 km/h (1 Bft) N-NO 32 ° 0 min 0 W/m² -2,8 °C -0,9 °C 9,7 km/h (2 Bft)
18.02.2026 17:41 21,6 °C -1,0 °C 46 % 87 % 1014,4 hPa 0,0 l/m² 4,3 km/h (1 Bft) N-NO 30 ° 0 min 0 W/m² -2,9 °C -1,0 °C 8,0 km/h (2 Bft)
18.02.2026 17:43 21,6 °C -0,9 °C 46 % 87 % 1014,4 hPa 0,0 l/m² 2,4 km/h (1 Bft) N-NO 30 ° 0 min 0 W/m² -2,8 °C -0,9 °C 8,0 km/h (2 Bft)
18.02.2026 17:44 21,6 °C -1,0 °C 46 % 87 % 1014,3 hPa 0,0 l/m² 3,5 km/h (1 Bft) N-NO 27 ° 0 min 0 W/m² -2,9 °C -1,0 °C 6,4 km/h (2 Bft)
18.02.2026 17:45 21,6 °C -1,0 °C 46 % 87 % 1014,4 hPa 0,0 l/m² 3,8 km/h (1 Bft) NO 36 ° 0 min 0 W/m² -2,9 °C -1,0 °C 4,8 km/h (1 Bft)
18.02.2026 17:46 21,6 °C -1,0 °C 46 % 87 % 1014,4 hPa 0,0 l/m² 1,7 km/h (1 Bft) NO 36 ° 0 min 0 W/m² -2,9 °C -1,0 °C 3,2 km/h (1 Bft)
18.02.2026 17:47 21,6 °C -1,0 °C 46 % 87 % 1014,4 hPa 0,0 l/m² 1,5 km/h (1 Bft) NO 38 ° 0 min 0 W/m² -2,9 °C -1,0 °C 3,2 km/h (1 Bft)
18.02.2026 17:48 21,6 °C -1,0 °C 46 % 87 % 1014,3 hPa 0,0 l/m² 1,0 km/h (0 Bft) NO 38 ° 0 min 0 W/m² -2,9 °C -1,0 °C 3,2 km/h (1 Bft)
18.02.2026 17:49 21,6 °C -1,0 °C 46 % 87 % 1014,4 hPa 0,0 l/m² 2,1 km/h (1 Bft) N-NO 30 ° 0 min 0 W/m² -2,9 °C -1,0 °C 4,8 km/h (1 Bft)
18.02.2026 17:51 21,6 °C -1,0 °C 46 % 87 % 1014,4 hPa 0,0 l/m² 1,2 km/h (1 Bft) N-NO 18 ° 0 min 0 W/m² -2,9 °C -1,0 °C 8,0 km/h (2 Bft)
18.02.2026 17:53 21,6 °C -1,1 °C 46 % 87 % 1014,4 hPa 0,0 l/m² 4,5 km/h (1 Bft) N-NO 27 ° 0 min 0 W/m² -3,0 °C -1,1 °C 8,0 km/h (2 Bft)
18.02.2026 17:54 21,6 °C -1,1 °C 46 % 87 % 1014,4 hPa 0,0 l/m² 4,0 km/h (1 Bft) N-NO 29 ° 0 min 0 W/m² -3,0 °C -1,1 °C 6,4 km/h (2 Bft)
18.02.2026 17:55 21,6 °C -1,1 °C 46 % 87 % 1014,4 hPa 0,0 l/m² 2,1 km/h (1 Bft) N-NO 25 ° 0 min 0 W/m² -3,0 °C -1,1 °C 4,8 km/h (1 Bft)
18.02.2026 17:56 21,6 °C -1,1 °C 46 % 87 % 1014,4 hPa 0,0 l/m² 3,1 km/h (1 Bft) NO 51 ° 0 min 0 W/m² -3,0 °C -1,1 °C 6,4 km/h (2 Bft)
18.02.2026 17:57 21,6 °C -1,1 °C 46 % 87 % 1014,4 hPa 0,0 l/m² 6,5 km/h (2 Bft) NO 35 ° 0 min 0 W/m² -3,0 °C -1,2 °C 12,9 km/h (3 Bft)
18.02.2026 17:58 21,6 °C -1,1 °C 46 % 87 % 1014,5 hPa 0,0 l/m² 5,8 km/h (2 Bft) N 355 ° 0 min 0 W/m² -3,0 °C -1,1 °C 8,0 km/h (2 Bft)
18.02.2026 17:59 21,6 °C -1,1 °C 46 % 86 % 1014,5 hPa 0,0 l/m² 3,8 km/h (1 Bft) N-NO 24 ° 0 min 0 W/m² -3,1 °C -1,1 °C 8,0 km/h (2 Bft)
18.02.2026 18:01 21,6 °C -1,1 °C 46 % 86 % 1014,4 hPa 0,0 l/m² 2,8 km/h (1 Bft) NO 34 ° 0 min 0 W/m² -3,1 °C -1,1 °C 6,4 km/h (2 Bft)
18.02.2026 18:03 21,6 °C -1,1 °C 46 % 86 % 1014,4 hPa 0,0 l/m² 3,9 km/h (1 Bft) N-NO 31 ° 0 min 0 W/m² -3,1 °C -1,1 °C 6,4 km/h (2 Bft)
18.02.2026 18:04 21,6 °C -1,2 °C 46 % 86 % 1014,4 hPa 0,0 l/m² 3,4 km/h (1 Bft) NO 35 ° 0 min 0 W/m² -3,2 °C -1,2 °C 4,8 km/h (1 Bft)
18.02.2026 18:05 21,6 °C -1,2 °C 46 % 86 % 1014,4 hPa 0,0 l/m² 4,3 km/h (1 Bft) N-NO 15 ° 0 min 0 W/m² -3,2 °C -1,2 °C 8,0 km/h (2 Bft)
18.02.2026 18:06 21,6 °C -1,2 °C 46 % 86 % 1014,4 hPa 0,0 l/m² 5,3 km/h (1 Bft) N-NW 337 ° 0 min 0 W/m² -3,2 °C -1,2 °C 6,4 km/h (2 Bft)
18.02.2026 18:08 21,6 °C -1,2 °C 46 % 86 % 1014,4 hPa 0,0 l/m² 4,3 km/h (1 Bft) N 355 ° 0 min 0 W/m² -3,2 °C -1,2 °C 6,4 km/h (2 Bft)
18.02.2026 18:09 21,6 °C -1,2 °C 46 % 86 % 1014,4 hPa 0,0 l/m² 1,1 km/h (1 Bft) N-NO 13 ° 0 min 0 W/m² -3,2 °C -1,2 °C 3,2 km/h (1 Bft)
18.02.2026 18:11 21,6 °C -1,2 °C 46 % 86 % 1014,4 hPa 0,0 l/m² 3,4 km/h (1 Bft) N-NO 15 ° 0 min 0 W/m² -3,2 °C -1,2 °C 6,4 km/h (2 Bft)
18.02.2026 18:12 21,6 °C -1,3 °C 47 % 85 % 1014,5 hPa 0,0 l/m² 5,8 km/h (2 Bft) N-NO 32 ° 0 min 0 W/m² -3,5 °C -1,3 °C 12,9 km/h (3 Bft)
18.02.2026 18:13 21,6 °C -1,3 °C 47 % 85 % 1014,4 hPa 0,0 l/m² 6,1 km/h (2 Bft) N-NO 24 ° 0 min 0 W/m² -3,5 °C -1,3 °C 12,9 km/h (3 Bft)
18.02.2026 18:14 21,6 °C -1,2 °C 47 % 85 % 1014,4 hPa 0,0 l/m² 4,6 km/h (1 Bft) N-NW 340 ° 0 min 0 W/m² -3,4 °C -1,2 °C 9,7 km/h (2 Bft)
18.02.2026 18:15 21,6 °C -1,3 °C 47 % 85 % 1014,4 hPa 0,0 l/m² 3,8 km/h (1 Bft) N 350 ° 0 min 0 W/m² -3,5 °C -1,3 °C 6,4 km/h (2 Bft)
18.02.2026 18:16 21,6 °C -1,3 °C 47 % 85 % 1014,5 hPa 0,0 l/m² 3,3 km/h (1 Bft) NW 320 ° 0 min 0 W/m² -3,5 °C -1,3 °C 6,4 km/h (2 Bft)
18.02.2026 18:17 21,6 °C -1,3 °C 47 % 85 % 1014,4 hPa 0,0 l/m² 0,2 km/h (0 Bft) NW 320 ° 0 min 0 W/m² -3,5 °C -1,3 °C 1,6 km/h (1 Bft)
18.02.2026 18:18 21,6 °C -1,3 °C 47 % 85 % 1014,4 hPa 0,0 l/m² 1,5 km/h (1 Bft) N 355 ° 0 min 0 W/m² -3,5 °C -1,3 °C 3,2 km/h (1 Bft)
18.02.2026 18:19 21,6 °C -1,3 °C 47 % 85 % 1014,4 hPa 0,0 l/m² 2,8 km/h (1 Bft) N 355 ° 0 min 0 W/m² -3,5 °C -1,3 °C 3,2 km/h (1 Bft)
18.02.2026 18:21 21,6 °C -1,3 °C 47 % 85 % 1014,4 hPa 0,0 l/m² 4,6 km/h (1 Bft) N 355 ° 0 min 0 W/m² -3,5 °C -1,3 °C 6,4 km/h (2 Bft)
18.02.2026 18:23 21,6 °C -1,3 °C 47 % 85 % 1014,5 hPa 0,0 l/m² 2,2 km/h (1 Bft) N-NW 346 ° 0 min 0 W/m² -3,5 °C -1,3 °C 6,4 km/h (2 Bft)
18.02.2026 18:24 21,6 °C -1,3 °C 47 % 85 % 1014,5 hPa 0,0 l/m² 4,0 km/h (1 Bft) N 355 ° 0 min 0 W/m² -3,5 °C -1,3 °C 6,4 km/h (2 Bft)
18.02.2026 18:25 21,6 °C -1,3 °C 47 % 85 % 1014,5 hPa 0,0 l/m² 4,0 km/h (1 Bft) N-NW 339 ° 0 min 0 W/m² -3,5 °C -1,3 °C 6,4 km/h (2 Bft)
18.02.2026 18:26 21,6 °C -1,3 °C 47 % 85 % 1014,5 hPa 0,0 l/m² 1,3 km/h (1 Bft) N-NW 340 ° 0 min 0 W/m² -3,5 °C -1,3 °C 3,2 km/h (1 Bft)
18.02.2026 18:27 21,6 °C -1,3 °C 47 % 85 % 1014,5 hPa 0,0 l/m² 3,0 km/h (1 Bft) N 350 ° 0 min 0 W/m² -3,5 °C -1,3 °C 4,8 km/h (1 Bft)
18.02.2026 18:28 21,6 °C -1,3 °C 47 % 85 % 1014,5 hPa 0,0 l/m² 3,3 km/h (1 Bft) NO 34 ° 0 min 0 W/m² -3,5 °C -1,3 °C 6,4 km/h (2 Bft)
18.02.2026 18:29 21,6 °C -1,3 °C 47 % 85 % 1014,5 hPa 0,0 l/m² 3,2 km/h (1 Bft) N-NO 18 ° 0 min 0 W/m² -3,5 °C -1,3 °C 6,4 km/h (2 Bft)
18.02.2026 18:31 21,6 °C -1,3 °C 47 % 85 % 1014,5 hPa 0,0 l/m² 3,2 km/h (1 Bft) NO 35 ° 0 min 0 W/m² -3,5 °C -1,3 °C 6,4 km/h (2 Bft)
18.02.2026 18:33 21,6 °C -1,3 °C 47 % 84 % 1014,4 hPa 0,0 l/m² 2,6 km/h (1 Bft) NO 53 ° 0 min 0 W/m² -3,6 °C -1,3 °C 4,8 km/h (1 Bft)
18.02.2026 18:34 21,7 °C -1,3 °C 47 % 84 % 1014,5 hPa 0,0 l/m² 2,5 km/h (1 Bft) NO 51 ° 0 min 0 W/m² -3,6 °C -1,3 °C 4,8 km/h (1 Bft)
18.02.2026 18:35 21,6 °C -1,3 °C 47 % 84 % 1014,5 hPa 0,0 l/m² 4,1 km/h (1 Bft) NO 51 ° 0 min 0 W/m² -3,6 °C -1,3 °C 6,4 km/h (2 Bft)
18.02.2026 18:36 21,7 °C -1,3 °C 47 % 84 % 1014,5 hPa 0,0 l/m² 1,2 km/h (1 Bft) NO 51 ° 0 min 0 W/m² -3,6 °C -1,3 °C 3,2 km/h (1 Bft)
18.02.2026 18:37 21,6 °C -1,3 °C 47 % 84 % 1014,5 hPa 0,0 l/m² 1,7 km/h (1 Bft) NO 46 ° 0 min 0 W/m² -3,6 °C -1,3 °C 4,8 km/h (1 Bft)
18.02.2026 18:38 21,7 °C -1,3 °C 47 % 84 % 1014,5 hPa 0,0 l/m² 0,3 km/h (0 Bft) NO 46 ° 0 min 0 W/m² -3,6 °C -1,3 °C 1,6 km/h (1 Bft)
18.02.2026 18:39 21,7 °C -1,3 °C 47 % 84 % 1014,5 hPa 0,0 l/m² 1,1 km/h (1 Bft) NO 40 ° 0 min 0 W/m² -3,6 °C -1,3 °C 4,8 km/h (1 Bft)
18.02.2026 18:41 21,6 °C -1,3 °C 47 % 84 % 1014,5 hPa 0,0 l/m² 2,6 km/h (1 Bft) N-NO 32 ° 0 min 0 W/m² -3,6 °C -1,3 °C 6,4 km/h (2 Bft)
18.02.2026 18:43 21,7 °C -1,3 °C 47 % 84 % 1014,5 hPa 0,0 l/m² 3,4 km/h (1 Bft) N 355 ° 0 min 0 W/m² -3,6 °C -1,3 °C 8,0 km/h (2 Bft)
18.02.2026 18:45 21,6 °C -1,3 °C 47 % 84 % 1014,5 hPa 0,0 l/m² 4,6 km/h (1 Bft) N 360 ° 0 min 0 W/m² -3,6 °C -1,3 °C 8,0 km/h (2 Bft)
18.02.2026 18:46 21,6 °C -1,3 °C 47 % 84 % 1014,5 hPa 0,0 l/m² 3,6 km/h (1 Bft) N 355 ° 0 min 0 W/m² -3,6 °C -1,3 °C 6,4 km/h (2 Bft)
18.02.2026 18:47 21,6 °C -1,3 °C 47 % 84 % 1014,5 hPa 0,0 l/m² 6,7 km/h (2 Bft) N-NW 336 ° 0 min 0 W/m² -3,6 °C -1,6 °C 8,0 km/h (2 Bft)
18.02.2026 18:48 21,6 °C -1,3 °C 47 % 84 % 1014,5 hPa 0,0 l/m² 4,2 km/h (1 Bft) N 11 ° 0 min 0 W/m² -3,6 °C -1,3 °C 8,0 km/h (2 Bft)
18.02.2026 18:49 21,6 °C -1,3 °C 47 % 84 % 1014,4 hPa 0,0 l/m² 0,2 km/h (0 Bft) N 11 ° 0 min 0 W/m² -3,6 °C -1,3 °C 1,6 km/h (1 Bft)
18.02.2026 18:51 21,6 °C -1,3 °C 47 % 84 % 1014,4 hPa 0,0 l/m² 0,7 km/h (0 Bft) N 5 ° 0 min 0 W/m² -3,6 °C -1,3 °C 4,8 km/h (1 Bft)
18.02.2026 18:53 21,6 °C -1,3 °C 47 % 84 % 1014,3 hPa 0,0 l/m² 3,1 km/h (1 Bft) N-NO 19 ° 0 min 0 W/m² -3,6 °C -1,3 °C 6,4 km/h (2 Bft)
18.02.2026 18:54 21,6 °C -1,3 °C 47 % 85 % 1014,4 hPa 0,0 l/m² 0,8 km/h (0 Bft) N-NO 17 ° 0 min 0 W/m² -3,5 °C -1,3 °C 1,6 km/h (1 Bft)
18.02.2026 18:55 21,6 °C -1,3 °C 47 % 85 % 1014,3 hPa 0,0 l/m² 1,6 km/h (1 Bft) NO 42 ° 0 min 0 W/m² -3,5 °C -1,3 °C 4,8 km/h (1 Bft)
18.02.2026 18:56 21,6 °C -1,3 °C 47 % 85 % 1014,2 hPa 0,0 l/m² 2,6 km/h (1 Bft) N-NO 28 ° 0 min 0 W/m² -3,5 °C -1,3 °C 4,8 km/h (1 Bft)
18.02.2026 18:57 21,6 °C -1,3 °C 47 % 85 % 1014,2 hPa 0,0 l/m² 3,0 km/h (1 Bft) N 5 ° 0 min 0 W/m² -3,5 °C -1,3 °C 6,4 km/h (2 Bft)
18.02.2026 18:58 21,6 °C -1,3 °C 47 % 85 % 1014,2 hPa 0,0 l/m² 2,0 km/h (1 Bft) N-NO 27 ° 0 min 0 W/m² -3,5 °C -1,3 °C 4,8 km/h (1 Bft)
18.02.2026 18:59 21,6 °C -1,3 °C 47 % 85 % 1014,1 hPa 0,0 l/m² 3,8 km/h (1 Bft) N-NO 26 ° 0 min 0 W/m² -3,5 °C -1,3 °C 8,0 km/h (2 Bft)
18.02.2026 19:01 21,6 °C -1,3 °C 47 % 85 % 1014,2 hPa 0,0 l/m² 3,8 km/h (1 Bft) NO 44 ° 0 min 0 W/m² -3,5 °C -1,3 °C 8,0 km/h (2 Bft)
18.02.2026 19:03 21,6 °C -1,3 °C 47 % 85 % 1014,2 hPa 0,0 l/m² 3,1 km/h (1 Bft) NO 53 ° 0 min 0 W/m² -3,5 °C -1,3 °C 6,4 km/h (2 Bft)
18.02.2026 19:04 21,7 °C -1,3 °C 47 % 85 % 1014,2 hPa 0,0 l/m² 0,3 km/h (0 Bft) NO 53 ° 0 min 0 W/m² -3,5 °C -1,3 °C 1,6 km/h (1 Bft)
18.02.2026 19:05 21,7 °C -1,3 °C 48 % 85 % 1014,3 hPa 0,0 l/m² 9,7 km/h (2 Bft) O-NO 72 ° 0 min 0 W/m² -3,5 °C -4,6 °C 16,1 km/h (3 Bft)
18.02.2026 19:06 21,7 °C -1,3 °C 48 % 85 % 1014,3 hPa 0,0 l/m² 6,9 km/h (2 Bft) O-NO 57 ° 0 min 0 W/m² -3,5 °C -1,8 °C 11,3 km/h (2 Bft)
18.02.2026 19:07 21,7 °C -1,3 °C 48 % 85 % 1014,3 hPa 0,0 l/m² 5,3 km/h (1 Bft) NO 53 ° 0 min 0 W/m² -3,5 °C -1,3 °C 6,4 km/h (2 Bft)
18.02.2026 19:08 21,6 °C -1,3 °C 48 % 85 % 1014,4 hPa 0,0 l/m² 3,4 km/h (1 Bft) NO 40 ° 0 min 0 W/m² -3,5 °C -1,3 °C 8,0 km/h (2 Bft)
18.02.2026 19:09 21,7 °C -1,3 °C 48 % 85 % 1014,4 hPa 0,0 l/m² 0,6 km/h (0 Bft) NO 40 ° 0 min 0 W/m² -3,5 °C -1,3 °C 1,6 km/h (1 Bft)
18.02.2026 19:11 21,7 °C -1,3 °C 48 % 85 % 1014,3 hPa 0,0 l/m² 1,8 km/h (1 Bft) NO 39 ° 0 min 0 W/m² -3,5 °C -1,3 °C 4,8 km/h (1 Bft)
18.02.2026 19:13 21,7 °C -1,3 °C 48 % 85 % 1014,4 hPa 0,0 l/m² 1,3 km/h (1 Bft) NO 38 ° 0 min 0 W/m² -3,5 °C -1,3 °C 4,8 km/h (1 Bft)
18.02.2026 19:14 21,7 °C -1,3 °C 47 % 85 % 1014,4 hPa 0,0 l/m² 0,9 km/h (0 Bft) NO 38 ° 0 min 0 W/m² -3,5 °C -1,3 °C 3,2 km/h (1 Bft)
18.02.2026 19:15 21,6 °C -1,3 °C 47 % 85 % 1014,4 hPa 0,0 l/m² 3,3 km/h (1 Bft) NO 38 ° 0 min 0 W/m² -3,5 °C -1,3 °C 4,8 km/h (1 Bft)
18.02.2026 19:16 21,7 °C -1,3 °C 47 % 85 % 1014,4 hPa 0,0 l/m² 0,5 km/h (0 Bft) NO 39 ° 0 min 0 W/m² -3,5 °C -1,3 °C 3,2 km/h (1 Bft)
18.02.2026 19:17 21,7 °C -1,3 °C 47 % 85 % 1014,4 hPa 0,0 l/m² 3,1 km/h (1 Bft) O 96 ° 0 min 0 W/m² -3,5 °C -1,3 °C 4,8 km/h (1 Bft)
18.02.2026 19:18 21,6 °C -1,3 °C 47 % 85 % 1014,4 hPa 0,0 l/m² 2,5 km/h (1 Bft) O 96 ° 0 min 0 W/m² -3,5 °C -1,3 °C 4,8 km/h (1 Bft)
18.02.2026 19:19 21,6 °C -1,3 °C 47 % 85 % 1014,3 hPa 0,0 l/m² 5,7 km/h (2 Bft) O 94 ° 0 min 0 W/m² -3,5 °C -1,3 °C 9,7 km/h (2 Bft)
18.02.2026 19:21 21,6 °C -1,3 °C 47 % 85 % 1014,4 hPa 0,0 l/m² 8,1 km/h (2 Bft) O 83 ° 0 min 0 W/m² -3,5 °C -3,1 °C 12,9 km/h (3 Bft)
18.02.2026 19:23 21,6 °C -1,3 °C 47 % 85 % 1014,4 hPa 0,0 l/m² 8,6 km/h (2 Bft) O 88 ° 0 min 0 W/m² -3,5 °C -3,6 °C 12,9 km/h (3 Bft)
18.02.2026 19:24 21,6 °C -1,3 °C 47 % 85 % 1014,4 hPa 0,0 l/m² 8,0 km/h (2 Bft) O 80 ° 0 min 0 W/m² -3,5 °C -3,0 °C 12,9 km/h (3 Bft)
18.02.2026 19:25 21,7 °C -1,3 °C 47 % 85 % 1014,3 hPa 0,0 l/m² 7,9 km/h (2 Bft) O 82 ° 0 min 0 W/m² -3,5 °C -2,9 °C 11,3 km/h (2 Bft)
18.02.2026 19:26 21,6 °C -1,3 °C 47 % 85 % 1014,4 hPa 0,0 l/m² 9,1 km/h (2 Bft) O 80 ° 0 min 0 W/m² -3,5 °C -4,1 °C 14,5 km/h (3 Bft)
18.02.2026 19:27 21,6 °C -1,3 °C 47 % 85 % 1014,4 hPa 0,0 l/m² 3,2 km/h (1 Bft) O 80 ° 0 min 0 W/m² -3,5 °C -1,3 °C 4,8 km/h (1 Bft)
18.02.2026 19:28 21,7 °C -1,3 °C 47 % 85 % 1014,4 hPa 0,0 l/m² 3,1 km/h (1 Bft) O-NO 78 ° 0 min 0 W/m² -3,5 °C -1,3 °C 4,8 km/h (1 Bft)
18.02.2026 19:29 21,6 °C -1,3 °C 48 % 85 % 1014,3 hPa 0,0 l/m² 1,9 km/h (1 Bft) O-NO 78 ° 0 min 0 W/m² -3,5 °C -1,3 °C 3,2 km/h (1 Bft)
18.02.2026 19:31 21,6 °C -1,3 °C 48 % 85 % 1014,4 hPa 0,0 l/m² 1,9 km/h (1 Bft) O-NO 77 ° 0 min 0 W/m² -3,5 °C -1,3 °C 3,2 km/h (1 Bft)
18.02.2026 19:33 21,6 °C -1,3 °C 48 % 85 % 1014,4 hPa 0,0 l/m² 1,2 km/h (1 Bft) O-NO 77 ° 0 min 0 W/m² -3,5 °C -1,3 °C 3,2 km/h (1 Bft)
18.02.2026 19:34 21,7 °C -1,3 °C 48 % 85 % 1014,4 hPa 0,0 l/m² 0,3 km/h (0 Bft) O-NO 77 ° 0 min 0 W/m² -3,5 °C -1,3 °C 1,6 km/h (1 Bft)
18.02.2026 19:35 21,7 °C -1,3 °C 48 % 85 % 1014,4 hPa 0,0 l/m² 0,1 km/h (0 Bft) O-NO 77 ° 0 min 0 W/m² -3,5 °C -1,3 °C 1,6 km/h (1 Bft)
18.02.2026 19:36 21,7 °C -1,3 °C 48 % 85 % 1014,4 hPa 0,0 l/m² 2,1 km/h (1 Bft) O-NO 76 ° 0 min 0 W/m² -3,5 °C -1,3 °C 3,2 km/h (1 Bft)
18.02.2026 19:37 21,7 °C -1,3 °C 48 % 85 % 1014,3 hPa 0,0 l/m² 1,0 km/h (0 Bft) O-NO 76 ° 0 min 0 W/m² -3,5 °C -1,3 °C 3,2 km/h (1 Bft)
18.02.2026 19:38 21,7 °C -1,3 °C 48 % 85 % 1014,3 hPa 0,0 l/m² 1,9 km/h (1 Bft) O-NO 76 ° 0 min 0 W/m² -3,5 °C -1,3 °C 3,2 km/h (1 Bft)
18.02.2026 19:39 21,7 °C -1,3 °C 48 % 85 % 1014,3 hPa 0,0 l/m² 2,3 km/h (1 Bft) O-NO 75 ° 0 min 0 W/m² -3,5 °C -1,3 °C 4,8 km/h (1 Bft)
18.02.2026 19:41 21,7 °C -1,3 °C 48 % 85 % 1014,3 hPa 0,0 l/m² 2,9 km/h (1 Bft) O-NO 69 ° 0 min 0 W/m² -3,5 °C -1,3 °C 6,4 km/h (2 Bft)
18.02.2026 19:43 21,7 °C -1,3 °C 48 % 85 % 1014,3 hPa 0,0 l/m² 2,8 km/h (1 Bft) O-NO 69 ° 0 min 0 W/m² -3,5 °C -1,3 °C 4,8 km/h (1 Bft)
18.02.2026 19:44 21,7 °C -1,3 °C 48 % 85 % 1014,3 hPa 0,0 l/m² 4,0 km/h (1 Bft) O-NO 69 ° 0 min 0 W/m² -3,5 °C -1,3 °C 6,4 km/h (2 Bft)
18.02.2026 19:45 21,7 °C -1,3 °C 48 % 85 % 1014,4 hPa 0,0 l/m² 1,9 km/h (1 Bft) O-NO 69 ° 0 min 0 W/m² -3,5 °C -1,3 °C 4,8 km/h (1 Bft)
18.02.2026 19:46 21,7 °C -1,3 °C 48 % 85 % 1014,3 hPa 0,0 l/m² 6,4 km/h (2 Bft) N-NO 33 ° 0 min 0 W/m² -3,5 °C -1,3 °C 9,7 km/h (2 Bft)
18.02.2026 19:47 21,7 °C -1,3 °C 48 % 85 % 1014,4 hPa 0,0 l/m² 4,2 km/h (1 Bft) O-NO 76 ° 0 min 0 W/m² -3,5 °C -1,3 °C 6,4 km/h (2 Bft)
18.02.2026 19:48 21,7 °C -1,3 °C 48 % 85 % 1014,4 hPa 0,0 l/m² 4,1 km/h (1 Bft) O-NO 57 ° 0 min 0 W/m² -3,5 °C -1,3 °C 4,8 km/h (1 Bft)
18.02.2026 19:49 21,7 °C -1,3 °C 48 % 85 % 1014,5 hPa 0,0 l/m² 2,2 km/h (1 Bft) O-NO 57 ° 0 min 0 W/m² -3,5 °C -1,3 °C 6,4 km/h (2 Bft)
18.02.2026 19:51 21,7 °C -1,3 °C 48 % 85 % 1014,4 hPa 0,0 l/m² 3,5 km/h (1 Bft) NO 55 ° 0 min 0 W/m² -3,5 °C -1,3 °C 6,4 km/h (2 Bft)
18.02.2026 19:53 21,7 °C -1,3 °C 48 % 85 % 1014,4 hPa 0,0 l/m² 4,3 km/h (1 Bft) NO 53 ° 0 min 0 W/m² -3,5 °C -1,3 °C 8,0 km/h (2 Bft)
18.02.2026 19:54 21,7 °C -1,3 °C 48 % 85 % 1014,4 hPa 0,0 l/m² 7,1 km/h (2 Bft) O-NO 71 ° 0 min 0 W/m² -3,5 °C -2,1 °C 12,9 km/h (3 Bft)
18.02.2026 19:55 21,7 °C -1,3 °C 48 % 85 % 1014,4 hPa 0,0 l/m² 6,9 km/h (2 Bft) O-NO 72 ° 0 min 0 W/m² -3,5 °C -1,8 °C 9,7 km/h (2 Bft)
18.02.2026 19:56 21,7 °C -1,3 °C 48 % 85 % 1014,5 hPa 0,0 l/m² 4,2 km/h (1 Bft) O-NO 70 ° 0 min 0 W/m² -3,5 °C -1,3 °C 9,7 km/h (2 Bft)
18.02.2026 19:57 21,7 °C -1,3 °C 48 % 85 % 1014,5 hPa 0,0 l/m² 5,5 km/h (2 Bft) O-NO 72 ° 0 min 0 W/m² -3,5 °C -1,3 °C 12,9 km/h (3 Bft)
18.02.2026 19:58 21,7 °C -1,3 °C 48 % 85 % 1014,4 hPa 0,0 l/m² 5,8 km/h (2 Bft) NO 54 ° 0 min 0 W/m² -3,5 °C -1,3 °C 11,3 km/h (2 Bft)
18.02.2026 19:59 21,7 °C -1,3 °C 48 % 85 % 1014,4 hPa 0,0 l/m² 6,0 km/h (2 Bft) O-NO 58 ° 0 min 0 W/m² -3,5 °C -1,3 °C 8,0 km/h (2 Bft)
18.02.2026 20:01 21,7 °C -1,3 °C 48 % 85 % 1014,5 hPa 0,0 l/m² 3,6 km/h (1 Bft) O-NO 59 ° 0 min 0 W/m² -3,5 °C -1,3 °C 8,0 km/h (2 Bft)
18.02.2026 20:03 21,7 °C -1,3 °C 48 % 85 % 1014,5 hPa 0,0 l/m² 4,7 km/h (1 Bft) O-NO 60 ° 0 min 0 W/m² -3,5 °C -1,3 °C 9,7 km/h (2 Bft)
18.02.2026 20:04 21,7 °C -1,3 °C 48 % 85 % 1014,5 hPa 0,0 l/m² 6,3 km/h (2 Bft) N-NO 27 ° 0 min 0 W/m² -3,5 °C -1,3 °C 11,3 km/h (2 Bft)
18.02.2026 20:05 21,7 °C -1,3 °C 48 % 85 % 1014,5 hPa 0,0 l/m² 2,8 km/h (1 Bft) NO 40 ° 0 min 0 W/m² -3,5 °C -1,3 °C 6,4 km/h (2 Bft)
18.02.2026 20:06 21,7 °C -1,3 °C 48 % 85 % 1014,5 hPa 0,0 l/m² 4,0 km/h (1 Bft) NO 35 ° 0 min 0 W/m² -3,5 °C -1,3 °C 8,0 km/h (2 Bft)
18.02.2026 20:08 21,7 °C -1,3 °C 48 % 85 % 1014,6 hPa 0,0 l/m² 3,5 km/h (1 Bft) NO 41 ° 0 min 0 W/m² -3,5 °C -1,3 °C 6,4 km/h (2 Bft)
18.02.2026 20:09 21,7 °C -1,3 °C 48 % 85 % 1014,6 hPa 0,0 l/m² 2,0 km/h (1 Bft) NO 36 ° 0 min 0 W/m² -3,5 °C -1,3 °C 4,8 km/h (1 Bft)
18.02.2026 20:11 21,7 °C -1,3 °C 48 % 85 % 1014,5 hPa 0,0 l/m² 2,5 km/h (1 Bft) O-NO 59 ° 0 min 0 W/m² -3,5 °C -1,3 °C 6,4 km/h (2 Bft)
18.02.2026 20:13 21,7 °C -1,3 °C 48 % 85 % 1014,6 hPa 0,0 l/m² 4,5 km/h (1 Bft) NO 45 ° 0 min 0 W/m² -3,5 °C -1,3 °C 6,4 km/h (2 Bft)
18.02.2026 20:14 21,7 °C -1,3 °C 48 % 85 % 1014,5 hPa 0,0 l/m² 3,6 km/h (1 Bft) NO 46 ° 0 min 0 W/m² -3,5 °C -1,3 °C 4,8 km/h (1 Bft)
18.02.2026 20:15 21,7 °C -1,3 °C 48 % 85 % 1014,5 hPa 0,0 l/m² 0,8 km/h (0 Bft) NO 46 ° 0 min 0 W/m² -3,5 °C -1,3 °C 1,6 km/h (1 Bft)
18.02.2026 20:16 21,7 °C -1,3 °C 48 % 85 % 1014,6 hPa 0,0 l/m² 0,0 km/h (0 Bft) NO 46 ° 0 min 0 W/m² -3,5 °C -1,3 °C 0,0 km/h (0 Bft)
18.02.2026 20:17 21,7 °C -1,3 °C 48 % 85 % 1014,6 hPa 0,0 l/m² 0,5 km/h (0 Bft) NO 46 ° 0 min 0 W/m² -3,5 °C -1,3 °C 1,6 km/h (1 Bft)
18.02.2026 20:18 21,7 °C -1,3 °C 48 % 85 % 1014,6 hPa 0,0 l/m² 0,0 km/h (0 Bft) NO 46 ° 0 min 0 W/m² -3,5 °C -1,3 °C 0,0 km/h (0 Bft)
18.02.2026 20:19 21,7 °C -1,3 °C 48 % 85 % 1014,6 hPa 0,0 l/m² 1,7 km/h (1 Bft) NO 46 ° 0 min 0 W/m² -3,5 °C -1,3 °C 4,8 km/h (1 Bft)
18.02.2026 20:21 21,7 °C -1,3 °C 48 % 85 % 1014,6 hPa 0,0 l/m² 3,9 km/h (1 Bft) NO 46 ° 0 min 0 W/m² -3,5 °C -1,3 °C 6,4 km/h (2 Bft)
18.02.2026 20:23 21,7 °C -1,3 °C 48 % 85 % 1014,6 hPa 0,0 l/m² 4,2 km/h (1 Bft) NO 46 ° 0 min 0 W/m² -3,5 °C -1,3 °C 6,4 km/h (2 Bft)
18.02.2026 20:24 21,7 °C -1,3 °C 48 % 85 % 1014,5 hPa 0,0 l/m² 4,9 km/h (1 Bft) NO 47 ° 0 min 0 W/m² -3,5 °C -1,3 °C 6,4 km/h (2 Bft)
18.02.2026 20:25 21,7 °C -1,3 °C 48 % 85 % 1014,6 hPa 0,0 l/m² 4,2 km/h (1 Bft) O-NO 59 ° 0 min 0 W/m² -3,5 °C -1,3 °C 6,4 km/h (2 Bft)
18.02.2026 20:26 21,7 °C -1,3 °C 48 % 85 % 1014,5 hPa 0,0 l/m² 5,1 km/h (1 Bft) O-NO 69 ° 0 min 0 W/m² -3,5 °C -1,3 °C 8,0 km/h (2 Bft)
18.02.2026 20:27 21,7 °C -1,3 °C 48 % 85 % 1014,5 hPa 0,0 l/m² 3,4 km/h (1 Bft) NO 49 ° 0 min 0 W/m² -3,5 °C -1,3 °C 4,8 km/h (1 Bft)
18.02.2026 20:28 21,7 °C -1,3 °C 48 % 85 % 1014,5 hPa 0,0 l/m² 0,4 km/h (0 Bft) NO 49 ° 0 min 0 W/m² -3,5 °C -1,3 °C 1,6 km/h (1 Bft)
18.02.2026 20:29 21,7 °C -1,3 °C 48 % 85 % 1014,5 hPa 0,0 l/m² 3,5 km/h (1 Bft) NO 49 ° 0 min 0 W/m² -3,5 °C -1,3 °C 6,4 km/h (2 Bft)
18.02.2026 20:31 21,8 °C -1,3 °C 48 % 85 % 1014,5 hPa 0,0 l/m² 4,5 km/h (1 Bft) NO 49 ° 0 min 0 W/m² -3,5 °C -1,3 °C 8,0 km/h (2 Bft)
18.02.2026 20:33 21,7 °C -1,3 °C 48 % 85 % 1014,5 hPa 0,0 l/m² 4,6 km/h (1 Bft) NO 37 ° 0 min 0 W/m² -3,5 °C -1,3 °C 8,0 km/h (2 Bft)
18.02.2026 20:34 21,7 °C -1,3 °C 48 % 85 % 1014,5 hPa 0,0 l/m² 3,0 km/h (1 Bft) NO 52 ° 0 min 0 W/m² -3,5 °C -1,3 °C 6,4 km/h (2 Bft)
18.02.2026 20:35 21,7 °C -1,3 °C 48 % 85 % 1014,4 hPa 0,0 l/m² 2,6 km/h (1 Bft) O-NO 57 ° 0 min 0 W/m² -3,5 °C -1,3 °C 6,4 km/h (2 Bft)
18.02.2026 20:36 21,7 °C -1,3 °C 48 % 85 % 1014,4 hPa 0,0 l/m² 4,0 km/h (1 Bft) NO 47 ° 0 min 0 W/m² -3,5 °C -1,3 °C 6,4 km/h (2 Bft)
18.02.2026 20:37 21,8 °C -1,3 °C 48 % 85 % 1014,5 hPa 0,0 l/m² 5,9 km/h (2 Bft) O-NO 72 ° 0 min 0 W/m² -3,5 °C -1,3 °C 12,9 km/h (3 Bft)
18.02.2026 20:38 21,7 °C -1,3 °C 48 % 85 % 1014,5 hPa 0,0 l/m² 6,4 km/h (2 Bft) NO 54 ° 0 min 0 W/m² -3,5 °C -1,3 °C 12,9 km/h (3 Bft)
18.02.2026 20:39 21,7 °C -1,3 °C 48 % 85 % 1014,4 hPa 0,0 l/m² 6,9 km/h (2 Bft) NO 53 ° 0 min 0 W/m² -3,5 °C -1,8 °C 8,0 km/h (2 Bft)
18.02.2026 20:41 21,8 °C -1,3 °C 48 % 85 % 1014,5 hPa 0,0 l/m² 6,4 km/h (2 Bft) O-NO 78 ° 0 min 0 W/m² -3,5 °C -1,3 °C 11,3 km/h (2 Bft)
18.02.2026 20:43 21,8 °C -1,3 °C 48 % 85 % 1014,4 hPa 0,0 l/m² 5,9 km/h (2 Bft) NO 45 ° 0 min 0 W/m² -3,5 °C -1,3 °C 11,3 km/h (2 Bft)
18.02.2026 20:44 21,8 °C -1,3 °C 48 % 85 % 1014,4 hPa 0,0 l/m² 3,8 km/h (1 Bft) O-NO 74 ° 0 min 0 W/m² -3,5 °C -1,3 °C 6,4 km/h (2 Bft)
18.02.2026 20:45 21,8 °C -1,3 °C 48 % 85 % 1014,5 hPa 0,0 l/m² 6,1 km/h (2 Bft) O-NO 64 ° 0 min 0 W/m² -3,5 °C -1,3 °C 11,3 km/h (2 Bft)
18.02.2026 20:46 21,8 °C -1,3 °C 48 % 85 % 1014,4 hPa 0,0 l/m² 4,6 km/h (1 Bft) O-NO 64 ° 0 min 0 W/m² -3,5 °C -1,3 °C 8,0 km/h (2 Bft)
18.02.2026 20:47 21,8 °C -1,3 °C 48 % 85 % 1014,5 hPa 0,0 l/m² 3,4 km/h (1 Bft) O-NO 57 ° 0 min 0 W/m² -3,5 °C -1,3 °C 8,0 km/h (2 Bft)
18.02.2026 20:48 21,8 °C -1,3 °C 48 % 85 % 1014,4 hPa 0,0 l/m² 7,1 km/h (2 Bft) O-NO 57 ° 0 min 0 W/m² -3,5 °C -2,1 °C 8,0 km/h (2 Bft)
18.02.2026 20:49 21,8 °C -1,3 °C 48 % 85 % 1014,4 hPa 0,0 l/m² 3,8 km/h (1 Bft) O-NO 58 ° 0 min 0 W/m² -3,5 °C -1,3 °C 8,0 km/h (2 Bft)
18.02.2026 20:51 21,8 °C -1,3 °C 48 % 85 % 1014,4 hPa 0,0 l/m² 4,0 km/h (1 Bft) NO 36 ° 0 min 0 W/m² -3,5 °C -1,3 °C 8,0 km/h (2 Bft)
18.02.2026 20:53 21,7 °C -1,3 °C 48 % 85 % 1014,4 hPa 0,0 l/m² 4,5 km/h (1 Bft) NO 48 ° 0 min 0 W/m² -3,5 °C -1,3 °C 8,0 km/h (2 Bft)
18.02.2026 20:54 21,7 °C -1,3 °C 48 % 85 % 1014,4 hPa 0,0 l/m² 4,6 km/h (1 Bft) NO 49 ° 0 min 0 W/m² -3,5 °C -1,3 °C 8,0 km/h (2 Bft)
18.02.2026 20:55 21,8 °C -1,3 °C 48 % 85 % 1014,4 hPa 0,0 l/m² 6,1 km/h (2 Bft) O 82 ° 0 min 0 W/m² -3,5 °C -1,3 °C 8,0 km/h (2 Bft)
18.02.2026 20:56 21,8 °C -1,3 °C 48 % 85 % 1014,4 hPa 0,0 l/m² 7,6 km/h (2 Bft) O-NO 69 ° 0 min 0 W/m² -3,5 °C -2,6 °C 9,7 km/h (2 Bft)
18.02.2026 20:57 21,8 °C -1,3 °C 48 % 85 % 1014,4 hPa 0,0 l/m² 6,2 km/h (2 Bft) O-NO 70 ° 0 min 0 W/m² -3,5 °C -1,3 °C 6,4 km/h (2 Bft)
18.02.2026 20:58 21,7 °C -1,3 °C 48 % 85 % 1014,4 hPa 0,0 l/m² 6,1 km/h (2 Bft) O-NO 70 ° 0 min 0 W/m² -3,5 °C -1,3 °C 8,0 km/h (2 Bft)
18.02.2026 20:59 21,8 °C -1,3 °C 48 % 85 % 1014,4 hPa 0,0 l/m² 6,5 km/h (2 Bft) O 80 ° 0 min 0 W/m² -3,5 °C -1,4 °C 8,0 km/h (2 Bft)
18.02.2026 21:01 21,7 °C -1,3 °C 48 % 85 % 1014,3 hPa 0,0 l/m² 7,4 km/h (2 Bft) O-NO 78 ° 0 min 0 W/m² -3,5 °C -2,4 °C 12,9 km/h (3 Bft)
18.02.2026 21:03 21,8 °C -1,3 °C 48 % 85 % 1014,3 hPa 0,0 l/m² 9,8 km/h (2 Bft) O-NO 67 ° 0 min 0 W/m² -3,5 °C -4,7 °C 16,1 km/h (3 Bft)
18.02.2026 21:04 21,7 °C -1,3 °C 48 % 85 % 1014,3 hPa 0,0 l/m² 8,9 km/h (2 Bft) O-NO 74 ° 0 min 0 W/m² -3,5 °C -3,9 °C 12,9 km/h (3 Bft)
18.02.2026 21:05 21,8 °C -1,3 °C 48 % 85 % 1014,3 hPa 0,0 l/m² 6,9 km/h (2 Bft) O-NO 59 ° 0 min 0 W/m² -3,5 °C -1,8 °C 8,0 km/h (2 Bft)
18.02.2026 21:06 21,7 °C -1,3 °C 48 % 85 % 1014,4 hPa 0,0 l/m² 3,1 km/h (1 Bft) O-NO 59 ° 0 min 0 W/m² -3,5 °C -1,3 °C 4,8 km/h (1 Bft)
18.02.2026 21:07 21,8 °C -1,3 °C 48 % 85 % 1014,3 hPa 0,0 l/m² 3,8 km/h (1 Bft) O-NO 61 ° 0 min 0 W/m² -3,5 °C -1,3 °C 6,4 km/h (2 Bft)
18.02.2026 21:08 21,8 °C -1,3 °C 48 % 85 % 1014,3 hPa 0,0 l/m² 6,8 km/h (2 Bft) O 85 ° 0 min 0 W/m² -3,5 °C -1,7 °C 11,3 km/h (2 Bft)
18.02.2026 21:09 21,8 °C -1,3 °C 48 % 85 % 1014,3 hPa 0,0 l/m² 5,6 km/h (2 Bft) O-NO 64 ° 0 min 0 W/m² -3,5 °C -1,3 °C 8,0 km/h (2 Bft)
18.02.2026 21:11 21,8 °C -1,4 °C 48 % 85 % 1014,3 hPa 0,0 l/m² 7,9 km/h (2 Bft) NO 55 ° 0 min 0 W/m² -3,6 °C -3,0 °C 14,5 km/h (3 Bft)
18.02.2026 21:13 21,8 °C -1,4 °C 48 % 85 % 1014,3 hPa 0,0 l/m² 5,7 km/h (2 Bft) NO 56 ° 0 min 0 W/m² -3,6 °C -1,4 °C 9,7 km/h (2 Bft)
18.02.2026 21:14 21,7 °C -1,4 °C 47 % 85 % 1014,2 hPa 0,0 l/m² 4,7 km/h (1 Bft) O-NO 65 ° 0 min 0 W/m² -3,6 °C -1,4 °C 6,4 km/h (2 Bft)
18.02.2026 21:15 21,8 °C -1,4 °C 47 % 85 % 1014,3 hPa 0,0 l/m² 2,0 km/h (1 Bft) O-NO 63 ° 0 min 0 W/m² -3,6 °C -1,4 °C 4,8 km/h (1 Bft)
18.02.2026 21:16 21,7 °C -1,4 °C 47 % 85 % 1014,2 hPa 0,0 l/m² 5,5 km/h (2 Bft) O-NO 59 ° 0 min 0 W/m² -3,6 °C -1,4 °C 6,4 km/h (2 Bft)
18.02.2026 21:18 21,8 °C -1,4 °C 48 % 85 % 1014,2 hPa 0,0 l/m² 4,5 km/h (1 Bft) O-NO 61 ° 0 min 0 W/m² -3,6 °C -1,4 °C 8,0 km/h (2 Bft)
18.02.2026 21:19 21,8 °C -1,4 °C 48 % 85 % 1014,2 hPa 0,0 l/m² 3,8 km/h (1 Bft) O-NO 59 ° 0 min 0 W/m² -3,6 °C -1,4 °C 6,4 km/h (2 Bft)
18.02.2026 21:21 21,8 °C -1,4 °C 47 % 85 % 1014,1 hPa 0,0 l/m² 4,6 km/h (1 Bft) O-NO 69 ° 0 min 0 W/m² -3,6 °C -1,4 °C 8,0 km/h (2 Bft)
18.02.2026 21:23 21,7 °C -1,4 °C 47 % 85 % 1014,1 hPa 0,0 l/m² 4,8 km/h (1 Bft) O-NO 69 ° 0 min 0 W/m² -3,6 °C -1,4 °C 6,4 km/h (2 Bft)
18.02.2026 21:24 21,8 °C -1,4 °C 47 % 85 % 1014,0 hPa 0,0 l/m² 5,0 km/h (1 Bft) N-NO 30 ° 0 min 0 W/m² -3,6 °C -1,4 °C 8,0 km/h (2 Bft)
18.02.2026 21:25 21,8 °C -1,4 °C 47 % 85 % 1014,0 hPa 0,0 l/m² 1,8 km/h (1 Bft) O-NO 64 ° 0 min 0 W/m² -3,6 °C -1,4 °C 6,4 km/h (2 Bft)
18.02.2026 21:26 21,8 °C -1,4 °C 47 % 85 % 1014,0 hPa 0,0 l/m² 6,3 km/h (2 Bft) O-NO 67 ° 0 min 0 W/m² -3,6 °C -1,4 °C 8,0 km/h (2 Bft)
18.02.2026 21:27 21,8 °C -1,4 °C 47 % 85 % 1014,0 hPa 0,0 l/m² 4,7 km/h (1 Bft) NO 52 ° 0 min 0 W/m² -3,6 °C -1,4 °C 8,0 km/h (2 Bft)
18.02.2026 21:28 21,8 °C -1,4 °C 47 % 85 % 1013,9 hPa 0,0 l/m² 8,3 km/h (2 Bft) O-NO 76 ° 0 min 0 W/m² -3,6 °C -3,4 °C 9,7 km/h (2 Bft)
18.02.2026 21:29 21,8 °C -1,4 °C 47 % 85 % 1013,9 hPa 0,0 l/m² 8,6 km/h (2 Bft) O-NO 61 ° 0 min 0 W/m² -3,6 °C -3,7 °C 12,9 km/h (3 Bft)
18.02.2026 21:31 21,8 °C -1,4 °C 47 % 85 % 1014,0 hPa 0,0 l/m² 7,2 km/h (2 Bft) NO 47 ° 0 min 0 W/m² -3,6 °C -2,3 °C 12,9 km/h (3 Bft)
18.02.2026 21:33 21,8 °C -1,4 °C 47 % 85 % 1013,9 hPa 0,0 l/m² 4,4 km/h (1 Bft) NO 49 ° 0 min 0 W/m² -3,6 °C -1,4 °C 8,0 km/h (2 Bft)
18.02.2026 21:34 21,8 °C -1,4 °C 47 % 85 % 1013,9 hPa 0,0 l/m² 5,5 km/h (2 Bft) NO 49 ° 0 min 0 W/m² -3,6 °C -1,4 °C 6,4 km/h (2 Bft)
18.02.2026 21:35 21,8 °C -1,4 °C 47 % 85 % 1013,9 hPa 0,0 l/m² 6,6 km/h (2 Bft) O 88 ° 0 min 0 W/m² -3,6 °C -1,6 °C 11,3 km/h (2 Bft)
18.02.2026 21:36 21,8 °C -1,4 °C 47 % 85 % 1013,9 hPa 0,0 l/m² 7,6 km/h (2 Bft) O-NO 74 ° 0 min 0 W/m² -3,6 °C -2,7 °C 11,3 km/h (2 Bft)
18.02.2026 21:37 21,8 °C -1,4 °C 47 % 85 % 1013,9 hPa 0,0 l/m² 8,5 km/h (2 Bft) O-NO 77 ° 0 min 0 W/m² -3,6 °C -3,6 °C 11,3 km/h (2 Bft)
18.02.2026 21:38 21,8 °C -1,4 °C 47 % 85 % 1014,0 hPa 0,0 l/m² 6,2 km/h (2 Bft) O 97 ° 0 min 0 W/m² -3,6 °C -1,4 °C 9,7 km/h (2 Bft)
18.02.2026 21:39 21,8 °C -1,4 °C 47 % 85 % 1013,9 hPa 0,0 l/m² 7,3 km/h (2 Bft) O 83 ° 0 min 0 W/m² -3,6 °C -2,4 °C 11,3 km/h (2 Bft)
18.02.2026 21:41 21,8 °C -1,4 °C 47 % 85 % 1013,8 hPa 0,0 l/m² 5,0 km/h (1 Bft) NO 55 ° 0 min 0 W/m² -3,6 °C -1,4 °C 9,7 km/h (2 Bft)
18.02.2026 21:43 21,8 °C -1,4 °C 47 % 85 % 1013,8 hPa 0,0 l/m² 6,7 km/h (2 Bft) O 80 ° 0 min 0 W/m² -3,6 °C -1,7 °C 11,3 km/h (2 Bft)
18.02.2026 21:44 21,8 °C -1,4 °C 47 % 85 % 1013,8 hPa 0,0 l/m² 6,3 km/h (2 Bft) O-NO 69 ° 0 min 0 W/m² -3,6 °C -1,4 °C 8,0 km/h (2 Bft)
18.02.2026 21:46 21,8 °C -1,4 °C 47 % 85 % 1013,7 hPa 0,0 l/m² 5,9 km/h (2 Bft) O-NO 65 ° 0 min 0 W/m² -3,6 °C -1,4 °C 14,5 km/h (3 Bft)
18.02.2026 21:47 21,8 °C -1,4 °C 47 % 85 % 1013,7 hPa 0,0 l/m² 8,4 km/h (2 Bft) O 80 ° 0 min 0 W/m² -3,6 °C -3,5 °C 12,9 km/h (3 Bft)
18.02.2026 21:48 21,8 °C -1,4 °C 47 % 85 % 1013,8 hPa 0,0 l/m² 9,4 km/h (2 Bft) O-NO 73 ° 0 min 0 W/m² -3,6 °C -4,5 °C 12,9 km/h (3 Bft)
18.02.2026 21:49 21,8 °C -1,4 °C 47 % 85 % 1013,7 hPa 0,0 l/m² 8,3 km/h (2 Bft) O-NO 74 ° 0 min 0 W/m² -3,6 °C -3,4 °C 12,9 km/h (3 Bft)
18.02.2026 21:51 21,8 °C -1,4 °C 47 % 85 % 1013,8 hPa 0,0 l/m² 6,1 km/h (2 Bft) O 96 ° 0 min 0 W/m² -3,6 °C -1,4 °C 9,7 km/h (2 Bft)
18.02.2026 21:53 21,8 °C -1,4 °C 47 % 85 % 1013,8 hPa 0,0 l/m² 5,9 km/h (2 Bft) O-NO 62 ° 0 min 0 W/m² -3,6 °C -1,4 °C 11,3 km/h (2 Bft)
18.02.2026 21:54 21,8 °C -1,4 °C 47 % 85 % 1013,8 hPa 0,0 l/m² 6,4 km/h (2 Bft) O 94 ° 0 min 0 W/m² -3,6 °C -1,4 °C 8,0 km/h (2 Bft)
18.02.2026 21:55 21,8 °C -1,4 °C 47 % 85 % 1013,8 hPa 0,0 l/m² 8,0 km/h (2 Bft) NO 56 ° 0 min 0 W/m² -3,6 °C -3,1 °C 12,9 km/h (3 Bft)
18.02.2026 21:56 21,8 °C -1,4 °C 47 % 85 % 1013,8 hPa 0,0 l/m² 4,7 km/h (1 Bft) O-NO 58 ° 0 min 0 W/m² -3,6 °C -1,4 °C 6,4 km/h (2 Bft)
18.02.2026 21:57 21,8 °C -1,4 °C 47 % 85 % 1013,8 hPa 0,0 l/m² 8,6 km/h (2 Bft) O 96 ° 0 min 0 W/m² -3,6 °C -3,7 °C 11,3 km/h (2 Bft)
18.02.2026 21:58 21,8 °C -1,5 °C 47 % 85 % 1013,7 hPa 0,0 l/m² 8,0 km/h (2 Bft) O 84 ° 0 min 0 W/m² -3,7 °C -3,2 °C 12,9 km/h (3 Bft)
18.02.2026 21:59 21,8 °C -1,5 °C 47 % 85 % 1013,8 hPa 0,0 l/m² 3,6 km/h (1 Bft) O 82 ° 0 min 0 W/m² -3,7 °C -1,5 °C 4,8 km/h (1 Bft)
18.02.2026 22:01 21,8 °C -1,5 °C 48 % 85 % 1013,7 hPa 0,0 l/m² 3,4 km/h (1 Bft) O-NO 68 ° 0 min 0 W/m² -3,7 °C -1,5 °C 4,8 km/h (1 Bft)
18.02.2026 22:03 21,9 °C -1,5 °C 48 % 85 % 1013,7 hPa 0,0 l/m² 8,8 km/h (2 Bft) O-NO 65 ° 0 min 0 W/m² -3,7 °C -4,0 °C 16,1 km/h (3 Bft)
18.02.2026 22:04 21,9 °C -1,5 °C 48 % 85 % 1013,7 hPa 0,0 l/m² 5,0 km/h (1 Bft) O-NO 72 ° 0 min 0 W/m² -3,7 °C -1,5 °C 11,3 km/h (2 Bft)
18.02.2026 22:05 21,9 °C -1,5 °C 48 % 85 % 1013,7 hPa 0,0 l/m² 7,0 km/h (2 Bft) O-NO 76 ° 0 min 0 W/m² -3,7 °C -2,1 °C 11,3 km/h (2 Bft)
18.02.2026 22:06 21,9 °C -1,5 °C 48 % 85 % 1013,6 hPa 0,0 l/m² 5,1 km/h (1 Bft) O-NO 71 ° 0 min 0 W/m² -3,7 °C -1,5 °C 8,0 km/h (2 Bft)
18.02.2026 22:08 21,9 °C -1,5 °C 48 % 85 % 1013,5 hPa 0,0 l/m² 2,1 km/h (1 Bft) O-NO 59 ° 0 min 0 W/m² -3,7 °C -1,5 °C 6,4 km/h (2 Bft)
18.02.2026 22:09 21,9 °C -1,5 °C 48 % 86 % 1013,5 hPa 0,0 l/m² 8,9 km/h (2 Bft) O-NO 78 ° 0 min 0 W/m² -3,5 °C -4,1 °C 12,9 km/h (3 Bft)
18.02.2026 22:10 21,9 °C -1,5 °C 48 % 86 % 1013,6 hPa 0,0 l/m² 4,2 km/h (1 Bft) NO 55 ° 0 min 0 W/m² -3,5 °C -1,5 °C 6,4 km/h (2 Bft)
18.02.2026 22:11 21,9 °C -1,5 °C 48 % 85 % 1013,6 hPa 0,0 l/m² 4,5 km/h (1 Bft) NO 53 ° 0 min 0 W/m² -3,7 °C -1,5 °C 6,4 km/h (2 Bft)
18.02.2026 22:12 21,9 °C -1,5 °C 48 % 86 % 1013,6 hPa 0,0 l/m² 2,0 km/h (1 Bft) NO 53 ° 0 min 0 W/m² -3,5 °C -1,5 °C 4,8 km/h (1 Bft)
18.02.2026 22:13 21,9 °C -1,5 °C 48 % 86 % 1013,6 hPa 0,0 l/m² 4,1 km/h (1 Bft) O-NO 65 ° 0 min 0 W/m² -3,5 °C -1,5 °C 8,0 km/h (2 Bft)
18.02.2026 22:14 21,9 °C -1,5 °C 48 % 86 % 1013,6 hPa 0,0 l/m² 3,2 km/h (1 Bft) O-NO 59 ° 0 min 0 W/m² -3,5 °C -1,5 °C 6,4 km/h (2 Bft)
18.02.2026 22:15 21,9 °C -1,5 °C 48 % 86 % 1013,6 hPa 0,0 l/m² 1,9 km/h (1 Bft) O-NO 58 ° 0 min 0 W/m² -3,5 °C -1,5 °C 3,2 km/h (1 Bft)
18.02.2026 22:16 21,9 °C -1,5 °C 48 % 86 % 1013,6 hPa 0,0 l/m² 3,7 km/h (1 Bft) O-NO 78 ° 0 min 0 W/m² -3,5 °C -1,5 °C 6,4 km/h (2 Bft)
18.02.2026 22:17 21,9 °C -1,5 °C 48 % 86 % 1013,6 hPa 0,0 l/m² 7,4 km/h (2 Bft) O-NO 70 ° 0 min 0 W/m² -3,5 °C -2,6 °C 11,3 km/h (2 Bft)
18.02.2026 22:18 21,9 °C -1,5 °C 48 % 85 % 1013,6 hPa 0,0 l/m² 6,9 km/h (2 Bft) O-NO 66 ° 0 min 0 W/m² -3,7 °C -2,0 °C 9,7 km/h (2 Bft)
18.02.2026 22:19 21,9 °C -1,6 °C 48 % 85 % 1013,6 hPa 0,0 l/m² 7,3 km/h (2 Bft) NO 53 ° 0 min 0 W/m² -3,8 °C -2,6 °C 11,3 km/h (2 Bft)
18.02.2026 22:21 21,9 °C -1,5 °C 48 % 85 % 1013,6 hPa 0,0 l/m² 6,5 km/h (2 Bft) NO 50 ° 0 min 0 W/m² -3,7 °C -1,6 °C 14,5 km/h (3 Bft)
18.02.2026 22:23 21,9 °C -1,6 °C 48 % 86 % 1013,5 hPa 0,0 l/m² 4,5 km/h (1 Bft) NO 53 ° 0 min 0 W/m² -3,6 °C -1,6 °C 9,7 km/h (2 Bft)
18.02.2026 22:24 21,9 °C -1,6 °C 48 % 86 % 1013,5 hPa 0,0 l/m² 7,4 km/h (2 Bft) O-NO 57 ° 0 min 0 W/m² -3,6 °C -2,7 °C 9,7 km/h (2 Bft)
18.02.2026 22:25 21,9 °C -1,5 °C 48 % 86 % 1013,5 hPa 0,0 l/m² 5,5 km/h (2 Bft) O 84 ° 0 min 0 W/m² -3,5 °C -1,5 °C 9,7 km/h (2 Bft)
18.02.2026 22:26 21,9 °C -1,6 °C 48 % 86 % 1013,4 hPa 0,0 l/m² 4,1 km/h (1 Bft) O-NO 67 ° 0 min 0 W/m² -3,6 °C -1,6 °C 6,4 km/h (2 Bft)
18.02.2026 22:27 21,9 °C -1,6 °C 48 % 86 % 1013,5 hPa 0,0 l/m² 7,1 km/h (2 Bft) O-NO 69 ° 0 min 0 W/m² -3,6 °C -2,4 °C 12,9 km/h (3 Bft)
18.02.2026 22:28 21,9 °C -1,6 °C 48 % 86 % 1013,4 hPa 0,0 l/m² 6,9 km/h (2 Bft) NO 54 ° 0 min 0 W/m² -3,6 °C -2,1 °C 11,3 km/h (2 Bft)
18.02.2026 22:29 21,9 °C -1,6 °C 48 % 86 % 1013,5 hPa 0,0 l/m² 6,4 km/h (2 Bft) O-NO 65 ° 0 min 0 W/m² -3,6 °C -1,6 °C 8,0 km/h (2 Bft)
18.02.2026 22:31 21,9 °C -1,6 °C 48 % 86 % 1013,5 hPa 0,0 l/m² 5,0 km/h (1 Bft) O-NO 73 ° 0 min 0 W/m² -3,6 °C -1,6 °C 6,4 km/h (2 Bft)
18.02.2026 22:33 21,9 °C -1,6 °C 48 % 86 % 1013,5 hPa 0,0 l/m² 5,0 km/h (1 Bft) O-NO 66 ° 0 min 0 W/m² -3,6 °C -1,6 °C 8,0 km/h (2 Bft)
18.02.2026 22:34 21,9 °C -1,6 °C 48 % 86 % 1013,4 hPa 0,0 l/m² 5,6 km/h (2 Bft) NO 54 ° 0 min 0 W/m² -3,6 °C -1,6 °C 9,7 km/h (2 Bft)
18.02.2026 22:35 21,9 °C -1,6 °C 48 % 86 % 1013,4 hPa 0,0 l/m² 7,1 km/h (2 Bft) O-NO 62 ° 0 min 0 W/m² -3,6 °C -2,4 °C 11,3 km/h (2 Bft)
18.02.2026 22:36 21,9 °C -1,6 °C 48 % 86 % 1013,4 hPa 0,0 l/m² 7,2 km/h (2 Bft) NO 48 ° 0 min 0 W/m² -3,6 °C -2,5 °C 11,3 km/h (2 Bft)
18.02.2026 22:37 21,9 °C -1,6 °C 48 % 86 % 1013,4 hPa 0,0 l/m² 5,9 km/h (2 Bft) NO 44 ° 0 min 0 W/m² -3,6 °C -1,6 °C 8,0 km/h (2 Bft)
18.02.2026 22:38 21,9 °C -1,6 °C 47 % 86 % 1013,3 hPa 0,0 l/m² 2,3 km/h (1 Bft) O-NO 71 ° 0 min 0 W/m² -3,6 °C -1,6 °C 4,8 km/h (1 Bft)
18.02.2026 22:39 21,9 °C -1,6 °C 48 % 86 % 1013,3 hPa 0,0 l/m² 1,7 km/h (1 Bft) O-NO 69 ° 0 min 0 W/m² -3,6 °C -1,6 °C 4,8 km/h (1 Bft)
18.02.2026 22:41 21,9 °C -1,6 °C 48 % 86 % 1013,3 hPa 0,0 l/m² 6,3 km/h (2 Bft) NO 43 ° 0 min 0 W/m² -3,6 °C -1,6 °C 11,3 km/h (2 Bft)
18.02.2026 22:43 21,9 °C -1,6 °C 48 % 86 % 1013,2 hPa 0,0 l/m² 4,0 km/h (1 Bft) O-NO 57 ° 0 min 0 W/m² -3,6 °C -1,6 °C 6,4 km/h (2 Bft)
18.02.2026 22:44 21,9 °C -1,6 °C 48 % 86 % 1013,2 hPa 0,0 l/m² 4,9 km/h (1 Bft) O-NO 69 ° 0 min 0 W/m² -3,6 °C -1,6 °C 6,4 km/h (2 Bft)
18.02.2026 22:45 21,9 °C -1,6 °C 47 % 86 % 1013,2 hPa 0,0 l/m² 7,2 km/h (2 Bft) O-NO 58 ° 0 min 0 W/m² -3,6 °C -2,5 °C 11,3 km/h (2 Bft)
18.02.2026 22:46 21,9 °C -1,6 °C 47 % 86 % 1013,2 hPa 0,0 l/m² 6,3 km/h (2 Bft) O-NO 76 ° 0 min 0 W/m² -3,6 °C -1,6 °C 11,3 km/h (2 Bft)
18.02.2026 22:47 21,9 °C -1,6 °C 47 % 86 % 1013,2 hPa 0,0 l/m² 3,7 km/h (1 Bft) O-NO 60 ° 0 min 0 W/m² -3,6 °C -1,6 °C 6,4 km/h (2 Bft)
18.02.2026 22:48 22,0 °C -1,6 °C 48 % 86 % 1013,2 hPa 0,0 l/m² 4,7 km/h (1 Bft) O-NO 60 ° 0 min 0 W/m² -3,6 °C -1,6 °C 6,4 km/h (2 Bft)
18.02.2026 22:49 21,9 °C -1,6 °C 47 % 86 % 1013,1 hPa 0,0 l/m² 8,2 km/h (2 Bft) O-NO 71 ° 0 min 0 W/m² -3,6 °C -3,5 °C 11,3 km/h (2 Bft)
18.02.2026 22:51 21,9 °C -1,6 °C 47 % 86 % 1013,2 hPa 0,0 l/m² 5,7 km/h (2 Bft) O-NO 63 ° 0 min 0 W/m² -3,6 °C -1,6 °C 9,7 km/h (2 Bft)
18.02.2026 22:53 21,9 °C -1,6 °C 47 % 86 % 1013,2 hPa 0,0 l/m² 4,9 km/h (1 Bft) O-NO 65 ° 0 min 0 W/m² -3,6 °C -1,6 °C 8,0 km/h (2 Bft)
18.02.2026 22:54 21,9 °C -1,6 °C 48 % 86 % 1013,2 hPa 0,0 l/m² 6,7 km/h (2 Bft) O-NO 75 ° 0 min 0 W/m² -3,6 °C -1,9 °C 9,7 km/h (2 Bft)
18.02.2026 22:55 21,9 °C -1,6 °C 47 % 86 % 1013,2 hPa 0,0 l/m² 6,9 km/h (2 Bft) O-NO 69 ° 0 min 0 W/m² -3,6 °C -2,1 °C 8,0 km/h (2 Bft)
18.02.2026 22:56 21,9 °C -1,6 °C 47 % 86 % 1013,2 hPa 0,0 l/m² 4,7 km/h (1 Bft) O-NO 69 ° 0 min 0 W/m² -3,6 °C -1,6 °C 8,0 km/h (2 Bft)
18.02.2026 22:57 21,9 °C -1,6 °C 47 % 86 % 1013,2 hPa 0,0 l/m² 7,9 km/h (2 Bft) O-NO 76 ° 0 min 0 W/m² -3,6 °C -3,2 °C 11,3 km/h (2 Bft)
18.02.2026 22:58 21,9 °C -1,6 °C 47 % 86 % 1013,3 hPa 0,0 l/m² 9,0 km/h (2 Bft) O-NO 67 ° 0 min 0 W/m² -3,6 °C -4,3 °C 12,9 km/h (3 Bft)
18.02.2026 22:59 21,9 °C -1,6 °C 48 % 86 % 1013,3 hPa 0,0 l/m² 6,6 km/h (2 Bft) NO 55 ° 0 min 0 W/m² -3,6 °C -1,8 °C 9,7 km/h (2 Bft)
18.02.2026 23:01 21,9 °C -1,6 °C 47 % 86 % 1013,3 hPa 0,0 l/m² 6,8 km/h (2 Bft) O-NO 63 ° 0 min 0 W/m² -3,6 °C -2,0 °C 9,7 km/h (2 Bft)
18.02.2026 23:03 21,9 °C -1,6 °C 48 % 86 % 1013,1 hPa 0,0 l/m² 5,6 km/h (2 Bft) NO 51 ° 0 min 0 W/m² -3,6 °C -1,6 °C 11,3 km/h (2 Bft)
18.02.2026 23:04 21,9 °C -1,6 °C 47 % 86 % 1013,1 hPa 0,0 l/m² 2,5 km/h (1 Bft) NO 51 ° 0 min 0 W/m² -3,6 °C -1,6 °C 4,8 km/h (1 Bft)
18.02.2026 23:05 21,9 °C -1,6 °C 48 % 86 % 1013,1 hPa 0,0 l/m² 6,1 km/h (2 Bft) O 80 ° 0 min 0 W/m² -3,6 °C -1,6 °C 8,0 km/h (2 Bft)
18.02.2026 23:06 21,9 °C -1,6 °C 47 % 86 % 1013,1 hPa 0,0 l/m² 5,4 km/h (2 Bft) O-NO 57 ° 0 min 0 W/m² -3,6 °C -1,6 °C 8,0 km/h (2 Bft)
18.02.2026 23:07 21,9 °C -1,6 °C 47 % 86 % 1013,2 hPa 0,0 l/m² 6,7 km/h (2 Bft) NO 55 ° 0 min 0 W/m² -3,6 °C -1,9 °C 11,3 km/h (2 Bft)
18.02.2026 23:08 21,9 °C -1,6 °C 48 % 86 % 1013,1 hPa 0,0 l/m² 7,3 km/h (2 Bft) O-NO 78 ° 0 min 0 W/m² -3,6 °C -2,6 °C 11,3 km/h (2 Bft)
18.02.2026 23:09 21,9 °C -1,6 °C 48 % 86 % 1013,1 hPa 0,0 l/m² 8,6 km/h (2 Bft) O 85 ° 0 min 0 W/m² -3,6 °C -3,9 °C 12,9 km/h (3 Bft)
18.02.2026 23:11 21,9 °C -1,6 °C 47 % 86 % 1013,2 hPa 0,0 l/m² 8,3 km/h (2 Bft) O-NO 61 ° 0 min 0 W/m² -3,6 °C -3,6 °C 12,9 km/h (3 Bft)
18.02.2026 23:13 21,9 °C -1,6 °C 48 % 86 % 1013,2 hPa 0,0 l/m² 10,3 km/h (2 Bft) O-NO 64 ° 0 min 0 W/m² -3,6 °C -5,5 °C 16,1 km/h (3 Bft)
18.02.2026 23:14 21,9 °C -1,6 °C 47 % 86 % 1013,2 hPa 0,0 l/m² 7,6 km/h (2 Bft) O-NO 74 ° 0 min 0 W/m² -3,6 °C -2,9 °C 14,5 km/h (3 Bft)
18.02.2026 23:15 21,9 °C -1,6 °C 48 % 86 % 1013,2 hPa 0,0 l/m² 6,6 km/h (2 Bft) O 92 ° 0 min 0 W/m² -3,6 °C -1,8 °C 11,3 km/h (2 Bft)
18.02.2026 23:16 21,9 °C -1,6 °C 47 % 86 % 1013,1 hPa 0,0 l/m² 3,2 km/h (1 Bft) O 90 ° 0 min 0 W/m² -3,6 °C -1,6 °C 6,4 km/h (2 Bft)
18.02.2026 23:17 21,9 °C -1,6 °C 47 % 86 % 1013,2 hPa 0,0 l/m² 8,0 km/h (2 Bft) O-NO 67 ° 0 min 0 W/m² -3,6 °C -3,3 °C 11,3 km/h (2 Bft)
18.02.2026 23:22 21,9 °C -1,6 °C 47 % 86 % 1013,0 hPa 0,0 l/m² 7,2 km/h (2 Bft) O 85 ° 0 min 0 W/m² -3,6 °C -2,5 °C 12,9 km/h (3 Bft)
18.02.2026 23:24 21,9 °C -1,6 °C 47 % 85 % 1013,0 hPa 0,0 l/m² 10,9 km/h (2 Bft) O-NO 76 ° 0 min 0 W/m² -3,8 °C -6,0 °C 16,1 km/h (3 Bft)
18.02.2026 23:25 21,9 °C -1,6 °C 47 % 85 % 1013,0 hPa 0,0 l/m² 7,8 km/h (2 Bft) O-NO 77 ° 0 min 0 W/m² -3,8 °C -3,1 °C 12,9 km/h (3 Bft)
18.02.2026 23:27 21,9 °C -1,6 °C 47 % 85 % 1013,0 hPa 0,0 l/m² 9,2 km/h (2 Bft) O-NO 70 ° 0 min 0 W/m² -3,8 °C -4,5 °C 14,5 km/h (3 Bft)
18.02.2026 23:29 21,9 °C -1,6 °C 47 % 86 % 1013,0 hPa 0,0 l/m² 7,7 km/h (2 Bft) O-NO 67 ° 0 min 0 W/m² -3,6 °C -3,0 °C 14,5 km/h (3 Bft)
18.02.2026 23:30 21,9 °C -1,6 °C 47 % 85 % 1013,0 hPa 0,0 l/m² 7,7 km/h (2 Bft) O 80 ° 0 min 0 W/m² -3,8 °C -3,0 °C 14,5 km/h (3 Bft)
18.02.2026 23:32 21,9 °C -1,6 °C 47 % 85 % 1012,9 hPa 0,0 l/m² 8,5 km/h (2 Bft) O 90 ° 0 min 0 W/m² -3,8 °C -3,8 °C 14,5 km/h (3 Bft)
18.02.2026 23:33 21,9 °C -1,6 °C 47 % 85 % 1013,0 hPa 0,0 l/m² 10,4 km/h (2 Bft) O-NO 70 ° 0 min 0 W/m² -3,8 °C -5,6 °C 16,1 km/h (3 Bft)
18.02.2026 23:35 21,9 °C -1,6 °C 47 % 85 % 1012,9 hPa 0,0 l/m² 10,3 km/h (2 Bft) NO 56 ° 0 min 0 W/m² -3,8 °C -5,5 °C 17,7 km/h (3 Bft)
18.02.2026 23:37 21,9 °C -1,6 °C 47 % 85 % 1012,9 hPa 0,0 l/m² 11,9 km/h (2 Bft) O-NO 74 ° 0 min 0 W/m² -3,8 °C -6,8 °C 16,1 km/h (3 Bft)
18.02.2026 23:39 21,9 °C -1,6 °C 47 % 85 % 1012,9 hPa 0,0 l/m² 9,2 km/h (2 Bft) O-NO 77 ° 0 min 0 W/m² -3,8 °C -4,5 °C 16,1 km/h (3 Bft)
18.02.2026 23:40 21,9 °C -1,6 °C 47 % 85 % 1012,8 hPa 0,0 l/m² 9,3 km/h (2 Bft) O 84 ° 0 min 0 W/m² -3,8 °C -4,6 °C 14,5 km/h (3 Bft)
18.02.2026 23:41 21,9 °C -1,6 °C 47 % 85 % 1012,8 hPa 0,0 l/m² 11,0 km/h (2 Bft) O-NO 58 ° 0 min 0 W/m² -3,8 °C -6,1 °C 16,1 km/h (3 Bft)
18.02.2026 23:42 21,9 °C -1,6 °C 47 % 85 % 1012,8 hPa 0,0 l/m² 8,2 km/h (2 Bft) O 86 ° 0 min 0 W/m² -3,8 °C -3,5 °C 11,3 km/h (2 Bft)
18.02.2026 23:44 21,9 °C -1,6 °C 47 % 85 % 1012,8 hPa 0,0 l/m² 7,2 km/h (2 Bft) NO 51 ° 0 min 0 W/m² -3,8 °C -2,5 °C 14,5 km/h (3 Bft)
18.02.2026 23:46 21,9 °C -1,6 °C 47 % 85 % 1012,8 hPa 0,0 l/m² 8,5 km/h (2 Bft) O-NO 65 ° 0 min 0 W/m² -3,8 °C -3,8 °C 16,1 km/h (3 Bft)
18.02.2026 23:47 21,9 °C -1,7 °C 47 % 85 % 1012,7 hPa 0,0 l/m² 6,7 km/h (2 Bft) O-NO 64 ° 0 min 0 W/m² -3,9 °C -2,0 °C 8,0 km/h (2 Bft)
18.02.2026 23:48 21,9 °C -1,7 °C 47 % 85 % 1012,7 hPa 0,0 l/m² 6,8 km/h (2 Bft) O-NO 57 ° 0 min 0 W/m² -3,9 °C -2,1 °C 12,9 km/h (3 Bft)
18.02.2026 23:50 21,9 °C -1,7 °C 47 % 85 % 1012,7 hPa 0,0 l/m² 7,1 km/h (2 Bft) NO 52 ° 0 min 0 W/m² -3,9 °C -2,5 °C 14,5 km/h (3 Bft)
18.02.2026 23:51 21,9 °C -1,7 °C 47 % 85 % 1012,7 hPa 0,0 l/m² 8,8 km/h (2 Bft) O-NO 70 ° 0 min 0 W/m² -3,9 °C -4,2 °C 11,3 km/h (2 Bft)
18.02.2026 23:52 21,9 °C -1,7 °C 47 % 85 % 1012,7 hPa 0,0 l/m² 7,9 km/h (2 Bft) O-NO 70 ° 0 min 0 W/m² -3,9 °C -3,3 °C 14,5 km/h (3 Bft)
18.02.2026 23:54 21,9 °C -1,7 °C 47 % 85 % 1012,7 hPa 0,0 l/m² 5,8 km/h (2 Bft) O-NO 57 ° 0 min 0 W/m² -3,9 °C -1,7 °C 14,5 km/h (3 Bft)
18.02.2026 23:56 21,9 °C -1,7 °C 47 % 85 % 1012,6 hPa 0,0 l/m² 6,6 km/h (2 Bft) O-NO 68 ° 0 min 0 W/m² -3,9 °C -1,9 °C 14,5 km/h (3 Bft)
18.02.2026 23:58 21,9 °C -1,7 °C 47 % 85 % 1012,5 hPa 0,0 l/m² 9,2 km/h (2 Bft) O-NO 61 ° 0 min 0 W/m² -3,9 °C -4,6 °C 16,1 km/h (3 Bft)
_ Min-Zeit 16:53 23:58 16:58 18:53 00:07 - 20:18 - - - - 23:58 23:37 20:18
Minimum _ 21,4 °C -1,7 °C 45 % 84 % 1009,0 hPa - 0,0 km/h (0 Bft) - - - - -3,9 °C -6,8 °C 0,0 km/h (0 Bft)
_ Max-Zeit 22:48 00:07 00:25 11:00 20:25 09:17 01:12 - - 10:17 10:52 00:07 00:07 01:12
Maximum _ 22,0 °C 2,3 °C 49 % 92 % 1014,6 hPa 0,2 l/m² 16,6 km/h
W-SW (3 Bft)
- - 5 min 227 W/m² 0,7 °C 2,3 °C 22,5 km/h
W (4 Bft)
Durchschnitt _ 21,6 °C 0,4 °C 47 % 89 % 1012,7 hPa #0,6 l/m² 4,5 km/h (1 Bft) W - #3:51 h 20 W/m² -1,3 °C -0,3 °C 7,9 km/h (2 Bft)
© 2009 Mathias Hoßbach